<?xml version="1.0" encoding="UTF-8" standalone="no" ?>
<gpx xmlns="http://www.topografix.com/GPX/1/1" xmlns:xsi="http://www.w3.org/2001/XMLSchema-instance" xsi:schemaLocation="http://www.topografix.com/GPX/1/1 http://www.topografix.com/GPX/1/1/gpx.xsd" version="1.1" creator="VisuGPX - https://www.visugpx.com">
  <metadata>
    <name>Saint Martin de Valgalgues - octobre 2011</name>
    <desc><![CDATA[Balade XC sans difficultés majeures.]]></desc>
  </metadata>
  <trk>
    <name><![CDATA[15-OCT-11 04:49:16 PM]]></name>
    <trkseg>
      <trkpt lat="44.16202" lon="4.07987">
        <ele>187.59</ele>
        <time>2011-10-15T11:48:44Z</time>
      </trkpt>
      <trkpt lat="44.16202" lon="4.07987">
        <ele>190.96</ele>
        <time>2011-10-15T11:48:54Z</time>
      </trkpt>
      <trkpt lat="44.16202" lon="4.07987">
        <ele>187.11</ele>
        <time>2011-10-15T11:48:55Z</time>
      </trkpt>
      <trkpt lat="44.16207" lon="4.07986">
        <ele>186.63</ele>
        <time>2011-10-15T11:49:05Z</time>
      </trkpt>
      <trkpt lat="44.16208" lon="4.07984">
        <ele>186.63</ele>
        <time>2011-10-15T11:49:18Z</time>
      </trkpt>
      <trkpt lat="44.16208" lon="4.07984">
        <ele>186.63</ele>
        <time>2011-10-15T11:49:42Z</time>
      </trkpt>
      <trkpt lat="44.16209" lon="4.07983">
        <ele>187.11</ele>
        <time>2011-10-15T11:50:12Z</time>
      </trkpt>
      <trkpt lat="44.16209" lon="4.07981">
        <ele>187.11</ele>
        <time>2011-10-15T11:50:17Z</time>
      </trkpt>
      <trkpt lat="44.16214" lon="4.07977">
        <ele>187.11</ele>
        <time>2011-10-15T11:50:22Z</time>
      </trkpt>
      <trkpt lat="44.16216" lon="4.07979">
        <ele>186.63</ele>
        <time>2011-10-15T11:50:34Z</time>
      </trkpt>
      <trkpt lat="44.16221" lon="4.07984">
        <ele>186.63</ele>
        <time>2011-10-15T11:50:51Z</time>
      </trkpt>
      <trkpt lat="44.1622" lon="4.07993">
        <ele>186.15</ele>
        <time>2011-10-15T11:50:59Z</time>
      </trkpt>
      <trkpt lat="44.16222" lon="4.08012">
        <ele>185.67</ele>
        <time>2011-10-15T11:51:07Z</time>
      </trkpt>
      <trkpt lat="44.16203" lon="4.08004">
        <ele>188.08</ele>
        <time>2011-10-15T11:51:16Z</time>
      </trkpt>
      <trkpt lat="44.16183" lon="4.07969">
        <ele>191.44</ele>
        <time>2011-10-15T11:51:30Z</time>
      </trkpt>
      <trkpt lat="44.1616" lon="4.07929">
        <ele>193.84</ele>
        <time>2011-10-15T11:51:46Z</time>
      </trkpt>
      <trkpt lat="44.16141" lon="4.07896">
        <ele>196.73</ele>
        <time>2011-10-15T11:52:00Z</time>
      </trkpt>
      <trkpt lat="44.16136" lon="4.07886">
        <ele>198.65</ele>
        <time>2011-10-15T11:52:06Z</time>
      </trkpt>
      <trkpt lat="44.16134" lon="4.07876">
        <ele>199.13</ele>
        <time>2011-10-15T11:52:11Z</time>
      </trkpt>
      <trkpt lat="44.16133" lon="4.07839">
        <ele>202.98</ele>
        <time>2011-10-15T11:52:25Z</time>
      </trkpt>
      <trkpt lat="44.16123" lon="4.07802">
        <ele>202.49</ele>
        <time>2011-10-15T11:52:35Z</time>
      </trkpt>
      <trkpt lat="44.16115" lon="4.07783">
        <ele>198.65</ele>
        <time>2011-10-15T11:52:40Z</time>
      </trkpt>
      <trkpt lat="44.16113" lon="4.07779">
        <ele>202.49</ele>
        <time>2011-10-15T11:52:41Z</time>
      </trkpt>
      <trkpt lat="44.16091" lon="4.07745">
        <ele>203.46</ele>
        <time>2011-10-15T11:52:52Z</time>
      </trkpt>
      <trkpt lat="44.16067" lon="4.07705">
        <ele>204.9</ele>
        <time>2011-10-15T11:53:04Z</time>
      </trkpt>
      <trkpt lat="44.16059" lon="4.0769">
        <ele>208.26</ele>
        <time>2011-10-15T11:53:09Z</time>
      </trkpt>
      <trkpt lat="44.16047" lon="4.07665">
        <ele>206.34</ele>
        <time>2011-10-15T11:53:17Z</time>
      </trkpt>
      <trkpt lat="44.16036" lon="4.07623">
        <ele>209.22</ele>
        <time>2011-10-15T11:53:30Z</time>
      </trkpt>
      <trkpt lat="44.16028" lon="4.07583">
        <ele>209.7</ele>
        <time>2011-10-15T11:53:41Z</time>
      </trkpt>
      <trkpt lat="44.16027" lon="4.07577">
        <ele>210.19</ele>
        <time>2011-10-15T11:53:43Z</time>
      </trkpt>
      <trkpt lat="44.16028" lon="4.07565">
        <ele>210.67</ele>
        <time>2011-10-15T11:53:47Z</time>
      </trkpt>
      <trkpt lat="44.16028" lon="4.07532">
        <ele>213.07</ele>
        <time>2011-10-15T11:53:58Z</time>
      </trkpt>
      <trkpt lat="44.16026" lon="4.07518">
        <ele>215.95</ele>
        <time>2011-10-15T11:54:04Z</time>
      </trkpt>
      <trkpt lat="44.16024" lon="4.0751">
        <ele>217.88</ele>
        <time>2011-10-15T11:54:13Z</time>
      </trkpt>
      <trkpt lat="44.16023" lon="4.07504">
        <ele>219.8</ele>
        <time>2011-10-15T11:54:18Z</time>
      </trkpt>
      <trkpt lat="44.16023" lon="4.07499">
        <ele>219.8</ele>
        <time>2011-10-15T11:54:22Z</time>
      </trkpt>
      <trkpt lat="44.16021" lon="4.07491">
        <ele>221.72</ele>
        <time>2011-10-15T11:54:27Z</time>
      </trkpt>
      <trkpt lat="44.16023" lon="4.07485">
        <ele>222.2</ele>
        <time>2011-10-15T11:54:40Z</time>
      </trkpt>
      <trkpt lat="44.16024" lon="4.07486">
        <ele>221.24</ele>
        <time>2011-10-15T11:54:46Z</time>
      </trkpt>
      <trkpt lat="44.16033" lon="4.07486">
        <ele>222.2</ele>
        <time>2011-10-15T11:54:51Z</time>
      </trkpt>
      <trkpt lat="44.16065" lon="4.07477">
        <ele>224.12</ele>
        <time>2011-10-15T11:55:07Z</time>
      </trkpt>
      <trkpt lat="44.16097" lon="4.07468">
        <ele>227.01</ele>
        <time>2011-10-15T11:55:22Z</time>
      </trkpt>
      <trkpt lat="44.1612" lon="4.07469">
        <ele>230.37</ele>
        <time>2011-10-15T11:55:32Z</time>
      </trkpt>
      <trkpt lat="44.16131" lon="4.07476">
        <ele>231.81</ele>
        <time>2011-10-15T11:55:38Z</time>
      </trkpt>
      <trkpt lat="44.16151" lon="4.07474">
        <ele>233.74</ele>
        <time>2011-10-15T11:55:50Z</time>
      </trkpt>
      <trkpt lat="44.16172" lon="4.07454">
        <ele>235.18</ele>
        <time>2011-10-15T11:56:03Z</time>
      </trkpt>
      <trkpt lat="44.16197" lon="4.07426">
        <ele>234.7</ele>
        <time>2011-10-15T11:56:16Z</time>
      </trkpt>
      <trkpt lat="44.16214" lon="4.0738">
        <ele>234.22</ele>
        <time>2011-10-15T11:56:29Z</time>
      </trkpt>
      <trkpt lat="44.16232" lon="4.07349">
        <ele>236.62</ele>
        <time>2011-10-15T11:56:40Z</time>
      </trkpt>
      <trkpt lat="44.1626" lon="4.07323">
        <ele>238.06</ele>
        <time>2011-10-15T11:56:53Z</time>
      </trkpt>
      <trkpt lat="44.16278" lon="4.07313">
        <ele>240.95</ele>
        <time>2011-10-15T11:56:59Z</time>
      </trkpt>
      <trkpt lat="44.16301" lon="4.07297">
        <ele>242.39</ele>
        <time>2011-10-15T11:57:09Z</time>
      </trkpt>
      <trkpt lat="44.16332" lon="4.073">
        <ele>244.31</ele>
        <time>2011-10-15T11:57:22Z</time>
      </trkpt>
      <trkpt lat="44.16357" lon="4.07308">
        <ele>246.72</ele>
        <time>2011-10-15T11:57:32Z</time>
      </trkpt>
      <trkpt lat="44.16395" lon="4.07307">
        <ele>248.16</ele>
        <time>2011-10-15T11:57:46Z</time>
      </trkpt>
      <trkpt lat="44.16434" lon="4.07307">
        <ele>248.64</ele>
        <time>2011-10-15T11:57:59Z</time>
      </trkpt>
      <trkpt lat="44.16472" lon="4.0729">
        <ele>250.56</ele>
        <time>2011-10-15T11:58:11Z</time>
      </trkpt>
      <trkpt lat="44.16522" lon="4.07292">
        <ele>249.6</ele>
        <time>2011-10-15T11:58:25Z</time>
      </trkpt>
      <trkpt lat="44.16552" lon="4.07288">
        <ele>250.56</ele>
        <time>2011-10-15T11:58:34Z</time>
      </trkpt>
      <trkpt lat="44.166" lon="4.07286">
        <ele>251.04</ele>
        <time>2011-10-15T11:58:48Z</time>
      </trkpt>
      <trkpt lat="44.16637" lon="4.07277">
        <ele>251.04</ele>
        <time>2011-10-15T11:58:59Z</time>
      </trkpt>
      <trkpt lat="44.1664" lon="4.07274">
        <ele>251.52</ele>
        <time>2011-10-15T11:59:00Z</time>
      </trkpt>
      <trkpt lat="44.16644" lon="4.07271">
        <ele>250.56</ele>
        <time>2011-10-15T11:59:01Z</time>
      </trkpt>
      <trkpt lat="44.16648" lon="4.07268">
        <ele>250.56</ele>
        <time>2011-10-15T11:59:02Z</time>
      </trkpt>
      <trkpt lat="44.16652" lon="4.07266">
        <ele>250.56</ele>
        <time>2011-10-15T11:59:03Z</time>
      </trkpt>
      <trkpt lat="44.16657" lon="4.07265">
        <ele>250.56</ele>
        <time>2011-10-15T11:59:04Z</time>
      </trkpt>
      <trkpt lat="44.16661" lon="4.07265">
        <ele>251.04</ele>
        <time>2011-10-15T11:59:05Z</time>
      </trkpt>
      <trkpt lat="44.16687" lon="4.0727">
        <ele>251.52</ele>
        <time>2011-10-15T11:59:12Z</time>
      </trkpt>
      <trkpt lat="44.16689" lon="4.07268">
        <ele>252</ele>
        <time>2011-10-15T11:59:13Z</time>
      </trkpt>
      <trkpt lat="44.16692" lon="4.07267">
        <ele>251.52</ele>
        <time>2011-10-15T11:59:14Z</time>
      </trkpt>
      <trkpt lat="44.16695" lon="4.07268">
        <ele>252</ele>
        <time>2011-10-15T11:59:15Z</time>
      </trkpt>
      <trkpt lat="44.16698" lon="4.0727">
        <ele>252.96</ele>
        <time>2011-10-15T11:59:16Z</time>
      </trkpt>
      <trkpt lat="44.167" lon="4.07273">
        <ele>252.96</ele>
        <time>2011-10-15T11:59:17Z</time>
      </trkpt>
      <trkpt lat="44.16702" lon="4.07277">
        <ele>252.48</ele>
        <time>2011-10-15T11:59:18Z</time>
      </trkpt>
      <trkpt lat="44.16704" lon="4.0728">
        <ele>252.96</ele>
        <time>2011-10-15T11:59:19Z</time>
      </trkpt>
      <trkpt lat="44.16706" lon="4.07283">
        <ele>253.44</ele>
        <time>2011-10-15T11:59:20Z</time>
      </trkpt>
      <trkpt lat="44.16708" lon="4.07285">
        <ele>253.44</ele>
        <time>2011-10-15T11:59:21Z</time>
      </trkpt>
      <trkpt lat="44.16711" lon="4.07286">
        <ele>252.96</ele>
        <time>2011-10-15T11:59:22Z</time>
      </trkpt>
      <trkpt lat="44.16736" lon="4.07311">
        <ele>255.85</ele>
        <time>2011-10-15T11:59:32Z</time>
      </trkpt>
      <trkpt lat="44.16739" lon="4.07312">
        <ele>255.85</ele>
        <time>2011-10-15T11:59:33Z</time>
      </trkpt>
      <trkpt lat="44.16761" lon="4.07328">
        <ele>256.81</ele>
        <time>2011-10-15T11:59:43Z</time>
      </trkpt>
      <trkpt lat="44.16791" lon="4.07336">
        <ele>259.69</ele>
        <time>2011-10-15T11:59:54Z</time>
      </trkpt>
      <trkpt lat="44.16809" lon="4.0735">
        <ele>260.17</ele>
        <time>2011-10-15T12:00:04Z</time>
      </trkpt>
      <trkpt lat="44.16825" lon="4.07359">
        <ele>259.69</ele>
        <time>2011-10-15T12:00:15Z</time>
      </trkpt>
      <trkpt lat="44.16827" lon="4.07361">
        <ele>260.17</ele>
        <time>2011-10-15T12:00:16Z</time>
      </trkpt>
      <trkpt lat="44.1685" lon="4.07373">
        <ele>259.69</ele>
        <time>2011-10-15T12:00:25Z</time>
      </trkpt>
      <trkpt lat="44.16867" lon="4.07385">
        <ele>260.17</ele>
        <time>2011-10-15T12:00:32Z</time>
      </trkpt>
      <trkpt lat="44.1689" lon="4.07403">
        <ele>260.17</ele>
        <time>2011-10-15T12:00:40Z</time>
      </trkpt>
      <trkpt lat="44.16899" lon="4.07402">
        <ele>261.14</ele>
        <time>2011-10-15T12:00:43Z</time>
      </trkpt>
      <trkpt lat="44.16921" lon="4.07407">
        <ele>260.65</ele>
        <time>2011-10-15T12:00:50Z</time>
      </trkpt>
      <trkpt lat="44.1693" lon="4.0741">
        <ele>260.17</ele>
        <time>2011-10-15T12:00:55Z</time>
      </trkpt>
      <trkpt lat="44.16939" lon="4.07408">
        <ele>261.14</ele>
        <time>2011-10-15T12:01:00Z</time>
      </trkpt>
      <trkpt lat="44.16959" lon="4.07411">
        <ele>259.69</ele>
        <time>2011-10-15T12:01:07Z</time>
      </trkpt>
      <trkpt lat="44.16962" lon="4.07411">
        <ele>260.17</ele>
        <time>2011-10-15T12:01:08Z</time>
      </trkpt>
      <trkpt lat="44.16965" lon="4.07411">
        <ele>260.17</ele>
        <time>2011-10-15T12:01:09Z</time>
      </trkpt>
      <trkpt lat="44.16967" lon="4.07412">
        <ele>260.65</ele>
        <time>2011-10-15T12:01:10Z</time>
      </trkpt>
      <trkpt lat="44.16969" lon="4.07411">
        <ele>261.14</ele>
        <time>2011-10-15T12:01:11Z</time>
      </trkpt>
      <trkpt lat="44.1697" lon="4.0741">
        <ele>260.65</ele>
        <time>2011-10-15T12:01:12Z</time>
      </trkpt>
      <trkpt lat="44.16972" lon="4.07409">
        <ele>261.14</ele>
        <time>2011-10-15T12:01:13Z</time>
      </trkpt>
      <trkpt lat="44.16974" lon="4.07407">
        <ele>261.62</ele>
        <time>2011-10-15T12:01:14Z</time>
      </trkpt>
      <trkpt lat="44.16976" lon="4.07407">
        <ele>261.14</ele>
        <time>2011-10-15T12:01:15Z</time>
      </trkpt>
      <trkpt lat="44.16979" lon="4.07408">
        <ele>260.65</ele>
        <time>2011-10-15T12:01:16Z</time>
      </trkpt>
      <trkpt lat="44.16982" lon="4.07409">
        <ele>260.17</ele>
        <time>2011-10-15T12:01:17Z</time>
      </trkpt>
      <trkpt lat="44.16984" lon="4.0741">
        <ele>260.17</ele>
        <time>2011-10-15T12:01:18Z</time>
      </trkpt>
      <trkpt lat="44.16986" lon="4.07411">
        <ele>260.65</ele>
        <time>2011-10-15T12:01:19Z</time>
      </trkpt>
      <trkpt lat="44.17004" lon="4.0742">
        <ele>257.29</ele>
        <time>2011-10-15T12:01:25Z</time>
      </trkpt>
      <trkpt lat="44.17008" lon="4.07423">
        <ele>257.29</ele>
        <time>2011-10-15T12:01:26Z</time>
      </trkpt>
      <trkpt lat="44.17024" lon="4.07431">
        <ele>253.93</ele>
        <time>2011-10-15T12:01:30Z</time>
      </trkpt>
      <trkpt lat="44.17039" lon="4.07439">
        <ele>250.56</ele>
        <time>2011-10-15T12:01:34Z</time>
      </trkpt>
      <trkpt lat="44.17053" lon="4.07447">
        <ele>247.68</ele>
        <time>2011-10-15T12:01:38Z</time>
      </trkpt>
      <trkpt lat="44.1706" lon="4.07451">
        <ele>245.75</ele>
        <time>2011-10-15T12:01:40Z</time>
      </trkpt>
      <trkpt lat="44.17072" lon="4.07464">
        <ele>243.35</ele>
        <time>2011-10-15T12:01:45Z</time>
      </trkpt>
      <trkpt lat="44.17074" lon="4.07465">
        <ele>243.35</ele>
        <time>2011-10-15T12:01:46Z</time>
      </trkpt>
      <trkpt lat="44.17075" lon="4.07467">
        <ele>243.35</ele>
        <time>2011-10-15T12:01:47Z</time>
      </trkpt>
      <trkpt lat="44.17077" lon="4.07468">
        <ele>242.39</ele>
        <time>2011-10-15T12:01:48Z</time>
      </trkpt>
      <trkpt lat="44.17079" lon="4.07471">
        <ele>241.91</ele>
        <time>2011-10-15T12:02:02Z</time>
      </trkpt>
      <trkpt lat="44.1708" lon="4.07472">
        <ele>241.43</ele>
        <time>2011-10-15T12:02:20Z</time>
      </trkpt>
      <trkpt lat="44.17082" lon="4.07474">
        <ele>241.43</ele>
        <time>2011-10-15T12:02:21Z</time>
      </trkpt>
      <trkpt lat="44.17084" lon="4.07475">
        <ele>241.43</ele>
        <time>2011-10-15T12:02:22Z</time>
      </trkpt>
      <trkpt lat="44.17087" lon="4.07477">
        <ele>241.43</ele>
        <time>2011-10-15T12:02:23Z</time>
      </trkpt>
      <trkpt lat="44.17089" lon="4.07479">
        <ele>241.43</ele>
        <time>2011-10-15T12:02:24Z</time>
      </trkpt>
      <trkpt lat="44.17097" lon="4.07484">
        <ele>239.51</ele>
        <time>2011-10-15T12:02:27Z</time>
      </trkpt>
      <trkpt lat="44.17141" lon="4.07505">
        <ele>235.66</ele>
        <time>2011-10-15T12:02:35Z</time>
      </trkpt>
      <trkpt lat="44.17146" lon="4.07509">
        <ele>235.66</ele>
        <time>2011-10-15T12:02:36Z</time>
      </trkpt>
      <trkpt lat="44.17164" lon="4.07521">
        <ele>232.3</ele>
        <time>2011-10-15T12:02:39Z</time>
      </trkpt>
      <trkpt lat="44.17168" lon="4.07523">
        <ele>231.33</ele>
        <time>2011-10-15T12:02:40Z</time>
      </trkpt>
      <trkpt lat="44.17172" lon="4.07524">
        <ele>230.37</ele>
        <time>2011-10-15T12:02:41Z</time>
      </trkpt>
      <trkpt lat="44.17176" lon="4.07525">
        <ele>230.37</ele>
        <time>2011-10-15T12:02:42Z</time>
      </trkpt>
      <trkpt lat="44.17201" lon="4.07513">
        <ele>231.33</ele>
        <time>2011-10-15T12:02:51Z</time>
      </trkpt>
      <trkpt lat="44.17209" lon="4.07501">
        <ele>233.26</ele>
        <time>2011-10-15T12:02:55Z</time>
      </trkpt>
      <trkpt lat="44.17233" lon="4.07473">
        <ele>236.62</ele>
        <time>2011-10-15T12:03:08Z</time>
      </trkpt>
      <trkpt lat="44.17238" lon="4.07473">
        <ele>237.58</ele>
        <time>2011-10-15T12:03:11Z</time>
      </trkpt>
      <trkpt lat="44.1724" lon="4.07475">
        <ele>237.58</ele>
        <time>2011-10-15T12:03:12Z</time>
      </trkpt>
      <trkpt lat="44.17244" lon="4.0748">
        <ele>239.51</ele>
        <time>2011-10-15T12:03:16Z</time>
      </trkpt>
      <trkpt lat="44.17246" lon="4.0748">
        <ele>239.51</ele>
        <time>2011-10-15T12:03:17Z</time>
      </trkpt>
      <trkpt lat="44.1725" lon="4.07482">
        <ele>239.51</ele>
        <time>2011-10-15T12:03:19Z</time>
      </trkpt>
      <trkpt lat="44.17252" lon="4.07483">
        <ele>239.51</ele>
        <time>2011-10-15T12:03:20Z</time>
      </trkpt>
      <trkpt lat="44.17254" lon="4.07484">
        <ele>239.99</ele>
        <time>2011-10-15T12:03:21Z</time>
      </trkpt>
      <trkpt lat="44.17256" lon="4.07487">
        <ele>240.95</ele>
        <time>2011-10-15T12:03:22Z</time>
      </trkpt>
      <trkpt lat="44.17257" lon="4.07489">
        <ele>240.95</ele>
        <time>2011-10-15T12:03:23Z</time>
      </trkpt>
      <trkpt lat="44.17258" lon="4.07492">
        <ele>240.95</ele>
        <time>2011-10-15T12:03:24Z</time>
      </trkpt>
      <trkpt lat="44.1726" lon="4.07494">
        <ele>241.91</ele>
        <time>2011-10-15T12:03:25Z</time>
      </trkpt>
      <trkpt lat="44.17261" lon="4.07496">
        <ele>241.91</ele>
        <time>2011-10-15T12:03:26Z</time>
      </trkpt>
      <trkpt lat="44.17263" lon="4.07498">
        <ele>242.39</ele>
        <time>2011-10-15T12:03:27Z</time>
      </trkpt>
      <trkpt lat="44.17284" lon="4.07525">
        <ele>242.87</ele>
        <time>2011-10-15T12:03:40Z</time>
      </trkpt>
      <trkpt lat="44.17288" lon="4.0753">
        <ele>242.87</ele>
        <time>2011-10-15T12:03:42Z</time>
      </trkpt>
      <trkpt lat="44.17291" lon="4.07532">
        <ele>241.91</ele>
        <time>2011-10-15T12:03:43Z</time>
      </trkpt>
      <trkpt lat="44.17294" lon="4.07533">
        <ele>241.43</ele>
        <time>2011-10-15T12:03:44Z</time>
      </trkpt>
      <trkpt lat="44.1733" lon="4.07555">
        <ele>241.91</ele>
        <time>2011-10-15T12:03:55Z</time>
      </trkpt>
      <trkpt lat="44.17333" lon="4.07558">
        <ele>242.39</ele>
        <time>2011-10-15T12:03:56Z</time>
      </trkpt>
      <trkpt lat="44.17345" lon="4.07568">
        <ele>241.91</ele>
        <time>2011-10-15T12:03:59Z</time>
      </trkpt>
      <trkpt lat="44.1735" lon="4.07571">
        <ele>241.91</ele>
        <time>2011-10-15T12:04:00Z</time>
      </trkpt>
      <trkpt lat="44.17407" lon="4.07599">
        <ele>242.87</ele>
        <time>2011-10-15T12:04:13Z</time>
      </trkpt>
      <trkpt lat="44.17416" lon="4.07603">
        <ele>241.91</ele>
        <time>2011-10-15T12:04:15Z</time>
      </trkpt>
      <trkpt lat="44.1742" lon="4.07607">
        <ele>242.87</ele>
        <time>2011-10-15T12:04:16Z</time>
      </trkpt>
      <trkpt lat="44.17423" lon="4.07611">
        <ele>243.35</ele>
        <time>2011-10-15T12:04:17Z</time>
      </trkpt>
      <trkpt lat="44.17426" lon="4.07615">
        <ele>242.39</ele>
        <time>2011-10-15T12:04:18Z</time>
      </trkpt>
      <trkpt lat="44.17429" lon="4.07618">
        <ele>243.35</ele>
        <time>2011-10-15T12:04:19Z</time>
      </trkpt>
      <trkpt lat="44.17432" lon="4.07622">
        <ele>243.83</ele>
        <time>2011-10-15T12:04:20Z</time>
      </trkpt>
      <trkpt lat="44.17437" lon="4.07632">
        <ele>243.35</ele>
        <time>2011-10-15T12:04:22Z</time>
      </trkpt>
      <trkpt lat="44.1744" lon="4.07637">
        <ele>242.87</ele>
        <time>2011-10-15T12:04:23Z</time>
      </trkpt>
      <trkpt lat="44.17444" lon="4.07641">
        <ele>242.39</ele>
        <time>2011-10-15T12:04:24Z</time>
      </trkpt>
      <trkpt lat="44.17458" lon="4.07651">
        <ele>242.39</ele>
        <time>2011-10-15T12:04:27Z</time>
      </trkpt>
      <trkpt lat="44.17474" lon="4.07664">
        <ele>242.39</ele>
        <time>2011-10-15T12:04:31Z</time>
      </trkpt>
      <trkpt lat="44.17507" lon="4.07686">
        <ele>244.31</ele>
        <time>2011-10-15T12:04:41Z</time>
      </trkpt>
      <trkpt lat="44.17525" lon="4.07704">
        <ele>247.68</ele>
        <time>2011-10-15T12:04:48Z</time>
      </trkpt>
      <trkpt lat="44.17535" lon="4.07715">
        <ele>247.68</ele>
        <time>2011-10-15T12:04:52Z</time>
      </trkpt>
      <trkpt lat="44.17537" lon="4.07717">
        <ele>247.68</ele>
        <time>2011-10-15T12:04:53Z</time>
      </trkpt>
      <trkpt lat="44.17566" lon="4.07742">
        <ele>252.48</ele>
        <time>2011-10-15T12:05:04Z</time>
      </trkpt>
      <trkpt lat="44.17568" lon="4.07743">
        <ele>248.64</ele>
        <time>2011-10-15T12:05:05Z</time>
      </trkpt>
      <trkpt lat="44.17604" lon="4.07761">
        <ele>251.04</ele>
        <time>2011-10-15T12:05:17Z</time>
      </trkpt>
      <trkpt lat="44.17608" lon="4.07756">
        <ele>252.48</ele>
        <time>2011-10-15T12:05:23Z</time>
      </trkpt>
      <trkpt lat="44.17599" lon="4.07738">
        <ele>254.41</ele>
        <time>2011-10-15T12:05:35Z</time>
      </trkpt>
      <trkpt lat="44.17593" lon="4.07725">
        <ele>257.29</ele>
        <time>2011-10-15T12:05:43Z</time>
      </trkpt>
      <trkpt lat="44.17593" lon="4.07724">
        <ele>257.29</ele>
        <time>2011-10-15T12:05:44Z</time>
      </trkpt>
      <trkpt lat="44.17591" lon="4.07721">
        <ele>257.29</ele>
        <time>2011-10-15T12:05:45Z</time>
      </trkpt>
      <trkpt lat="44.17587" lon="4.07704">
        <ele>259.69</ele>
        <time>2011-10-15T12:05:53Z</time>
      </trkpt>
      <trkpt lat="44.17586" lon="4.07702">
        <ele>259.69</ele>
        <time>2011-10-15T12:05:54Z</time>
      </trkpt>
      <trkpt lat="44.1758" lon="4.07677">
        <ele>261.62</ele>
        <time>2011-10-15T12:06:06Z</time>
      </trkpt>
      <trkpt lat="44.1758" lon="4.07675">
        <ele>261.62</ele>
        <time>2011-10-15T12:06:07Z</time>
      </trkpt>
      <trkpt lat="44.17581" lon="4.07672">
        <ele>262.1</ele>
        <time>2011-10-15T12:06:08Z</time>
      </trkpt>
      <trkpt lat="44.17581" lon="4.0767">
        <ele>262.1</ele>
        <time>2011-10-15T12:06:09Z</time>
      </trkpt>
      <trkpt lat="44.17584" lon="4.07664">
        <ele>262.58</ele>
        <time>2011-10-15T12:06:12Z</time>
      </trkpt>
      <trkpt lat="44.17589" lon="4.07652">
        <ele>263.54</ele>
        <time>2011-10-15T12:06:17Z</time>
      </trkpt>
      <trkpt lat="44.17595" lon="4.07638">
        <ele>263.06</ele>
        <time>2011-10-15T12:06:22Z</time>
      </trkpt>
      <trkpt lat="44.17596" lon="4.07636">
        <ele>264.02</ele>
        <time>2011-10-15T12:06:23Z</time>
      </trkpt>
      <trkpt lat="44.17596" lon="4.0763">
        <ele>264.5</ele>
        <time>2011-10-15T12:06:25Z</time>
      </trkpt>
      <trkpt lat="44.17608" lon="4.07613">
        <ele>266.9</ele>
        <time>2011-10-15T12:06:34Z</time>
      </trkpt>
      <trkpt lat="44.17611" lon="4.076">
        <ele>267.38</ele>
        <time>2011-10-15T12:06:39Z</time>
      </trkpt>
      <trkpt lat="44.17614" lon="4.07596">
        <ele>267.86</ele>
        <time>2011-10-15T12:06:41Z</time>
      </trkpt>
      <trkpt lat="44.17615" lon="4.07592">
        <ele>268.83</ele>
        <time>2011-10-15T12:06:44Z</time>
      </trkpt>
      <trkpt lat="44.17621" lon="4.07579">
        <ele>269.31</ele>
        <time>2011-10-15T12:06:49Z</time>
      </trkpt>
      <trkpt lat="44.17626" lon="4.07576">
        <ele>269.31</ele>
        <time>2011-10-15T12:06:52Z</time>
      </trkpt>
      <trkpt lat="44.17632" lon="4.07584">
        <ele>270.27</ele>
        <time>2011-10-15T12:06:58Z</time>
      </trkpt>
      <trkpt lat="44.17633" lon="4.07593">
        <ele>270.75</ele>
        <time>2011-10-15T12:07:06Z</time>
      </trkpt>
      <trkpt lat="44.17631" lon="4.07609">
        <ele>272.67</ele>
        <time>2011-10-15T12:07:12Z</time>
      </trkpt>
      <trkpt lat="44.17638" lon="4.07639">
        <ele>275.07</ele>
        <time>2011-10-15T12:07:24Z</time>
      </trkpt>
      <trkpt lat="44.17642" lon="4.07641">
        <ele>276.04</ele>
        <time>2011-10-15T12:07:27Z</time>
      </trkpt>
      <trkpt lat="44.17651" lon="4.07645">
        <ele>277.48</ele>
        <time>2011-10-15T12:07:34Z</time>
      </trkpt>
      <trkpt lat="44.17664" lon="4.07647">
        <ele>278.92</ele>
        <time>2011-10-15T12:07:44Z</time>
      </trkpt>
      <trkpt lat="44.17671" lon="4.0765">
        <ele>279.88</ele>
        <time>2011-10-15T12:07:47Z</time>
      </trkpt>
      <trkpt lat="44.17677" lon="4.07652">
        <ele>280.36</ele>
        <time>2011-10-15T12:07:51Z</time>
      </trkpt>
      <trkpt lat="44.17684" lon="4.07653">
        <ele>281.8</ele>
        <time>2011-10-15T12:07:55Z</time>
      </trkpt>
      <trkpt lat="44.17687" lon="4.07652">
        <ele>282.77</ele>
        <time>2011-10-15T12:07:57Z</time>
      </trkpt>
      <trkpt lat="44.17695" lon="4.07649">
        <ele>283.25</ele>
        <time>2011-10-15T12:08:01Z</time>
      </trkpt>
      <trkpt lat="44.17698" lon="4.0764">
        <ele>284.69</ele>
        <time>2011-10-15T12:08:08Z</time>
      </trkpt>
      <trkpt lat="44.17698" lon="4.07615">
        <ele>286.13</ele>
        <time>2011-10-15T12:08:20Z</time>
      </trkpt>
      <trkpt lat="44.17698" lon="4.0761">
        <ele>287.09</ele>
        <time>2011-10-15T12:08:22Z</time>
      </trkpt>
      <trkpt lat="44.17702" lon="4.07601">
        <ele>288.53</ele>
        <time>2011-10-15T12:08:28Z</time>
      </trkpt>
      <trkpt lat="44.17706" lon="4.0758">
        <ele>290.94</ele>
        <time>2011-10-15T12:08:39Z</time>
      </trkpt>
      <trkpt lat="44.1771" lon="4.07572">
        <ele>290.94</ele>
        <time>2011-10-15T12:08:43Z</time>
      </trkpt>
      <trkpt lat="44.17711" lon="4.07557">
        <ele>292.86</ele>
        <time>2011-10-15T12:08:50Z</time>
      </trkpt>
      <trkpt lat="44.17709" lon="4.07551">
        <ele>292.38</ele>
        <time>2011-10-15T12:08:52Z</time>
      </trkpt>
      <trkpt lat="44.17713" lon="4.07517">
        <ele>295.26</ele>
        <time>2011-10-15T12:09:08Z</time>
      </trkpt>
      <trkpt lat="44.17715" lon="4.07503">
        <ele>296.7</ele>
        <time>2011-10-15T12:09:15Z</time>
      </trkpt>
      <trkpt lat="44.17715" lon="4.0749">
        <ele>298.15</ele>
        <time>2011-10-15T12:09:22Z</time>
      </trkpt>
      <trkpt lat="44.17716" lon="4.07484">
        <ele>298.15</ele>
        <time>2011-10-15T12:09:25Z</time>
      </trkpt>
      <trkpt lat="44.17719" lon="4.07477">
        <ele>299.59</ele>
        <time>2011-10-15T12:09:29Z</time>
      </trkpt>
      <trkpt lat="44.17723" lon="4.07474">
        <ele>300.07</ele>
        <time>2011-10-15T12:09:32Z</time>
      </trkpt>
      <trkpt lat="44.17735" lon="4.07475">
        <ele>301.99</ele>
        <time>2011-10-15T12:09:39Z</time>
      </trkpt>
      <trkpt lat="44.17746" lon="4.07459">
        <ele>303.91</ele>
        <time>2011-10-15T12:09:49Z</time>
      </trkpt>
      <trkpt lat="44.17754" lon="4.07448">
        <ele>304.39</ele>
        <time>2011-10-15T12:09:55Z</time>
      </trkpt>
      <trkpt lat="44.17761" lon="4.07436">
        <ele>304.88</ele>
        <time>2011-10-15T12:10:01Z</time>
      </trkpt>
      <trkpt lat="44.17766" lon="4.07432">
        <ele>304.88</ele>
        <time>2011-10-15T12:10:04Z</time>
      </trkpt>
      <trkpt lat="44.17769" lon="4.07429">
        <ele>305.36</ele>
        <time>2011-10-15T12:10:06Z</time>
      </trkpt>
      <trkpt lat="44.17775" lon="4.07422">
        <ele>305.36</ele>
        <time>2011-10-15T12:10:10Z</time>
      </trkpt>
      <trkpt lat="44.17784" lon="4.07411">
        <ele>305.84</ele>
        <time>2011-10-15T12:10:15Z</time>
      </trkpt>
      <trkpt lat="44.17801" lon="4.07408">
        <ele>305.84</ele>
        <time>2011-10-15T12:10:21Z</time>
      </trkpt>
      <trkpt lat="44.17812" lon="4.07404">
        <ele>306.32</ele>
        <time>2011-10-15T12:10:26Z</time>
      </trkpt>
      <trkpt lat="44.17824" lon="4.07398">
        <ele>307.28</ele>
        <time>2011-10-15T12:10:37Z</time>
      </trkpt>
      <trkpt lat="44.17824" lon="4.07398">
        <ele>306.8</ele>
        <time>2011-10-15T12:11:03Z</time>
      </trkpt>
      <trkpt lat="44.17824" lon="4.07398">
        <ele>307.76</ele>
        <time>2011-10-15T12:11:32Z</time>
      </trkpt>
      <trkpt lat="44.17824" lon="4.07398">
        <ele>306.32</ele>
        <time>2011-10-15T12:12:01Z</time>
      </trkpt>
      <trkpt lat="44.17824" lon="4.07397">
        <ele>306.32</ele>
        <time>2011-10-15T12:12:24Z</time>
      </trkpt>
      <trkpt lat="44.17834" lon="4.07399">
        <ele>306.32</ele>
        <time>2011-10-15T12:12:33Z</time>
      </trkpt>
      <trkpt lat="44.17839" lon="4.07404">
        <ele>305.84</ele>
        <time>2011-10-15T12:12:37Z</time>
      </trkpt>
      <trkpt lat="44.17849" lon="4.07418">
        <ele>302.47</ele>
        <time>2011-10-15T12:12:42Z</time>
      </trkpt>
      <trkpt lat="44.17861" lon="4.0743">
        <ele>299.59</ele>
        <time>2011-10-15T12:12:48Z</time>
      </trkpt>
      <trkpt lat="44.17868" lon="4.07435">
        <ele>298.15</ele>
        <time>2011-10-15T12:12:51Z</time>
      </trkpt>
      <trkpt lat="44.17882" lon="4.07434">
        <ele>297.18</ele>
        <time>2011-10-15T12:12:57Z</time>
      </trkpt>
      <trkpt lat="44.17885" lon="4.07426">
        <ele>299.11</ele>
        <time>2011-10-15T12:13:01Z</time>
      </trkpt>
      <trkpt lat="44.17896" lon="4.07427">
        <ele>301.51</ele>
        <time>2011-10-15T12:13:09Z</time>
      </trkpt>
      <trkpt lat="44.17909" lon="4.07431">
        <ele>302.95</ele>
        <time>2011-10-15T12:13:16Z</time>
      </trkpt>
      <trkpt lat="44.17919" lon="4.07433">
        <ele>304.39</ele>
        <time>2011-10-15T12:13:21Z</time>
      </trkpt>
      <trkpt lat="44.17927" lon="4.0743">
        <ele>304.88</ele>
        <time>2011-10-15T12:13:28Z</time>
      </trkpt>
      <trkpt lat="44.17948" lon="4.07418">
        <ele>306.8</ele>
        <time>2011-10-15T12:13:42Z</time>
      </trkpt>
      <trkpt lat="44.17968" lon="4.07397">
        <ele>308.72</ele>
        <time>2011-10-15T12:13:56Z</time>
      </trkpt>
      <trkpt lat="44.17972" lon="4.07394">
        <ele>309.2</ele>
        <time>2011-10-15T12:13:58Z</time>
      </trkpt>
      <trkpt lat="44.17981" lon="4.07385">
        <ele>310.64</ele>
        <time>2011-10-15T12:14:07Z</time>
      </trkpt>
      <trkpt lat="44.17983" lon="4.07378">
        <ele>311.6</ele>
        <time>2011-10-15T12:14:10Z</time>
      </trkpt>
      <trkpt lat="44.17988" lon="4.07353">
        <ele>312.57</ele>
        <time>2011-10-15T12:14:19Z</time>
      </trkpt>
      <trkpt lat="44.17993" lon="4.07331">
        <ele>313.53</ele>
        <time>2011-10-15T12:14:29Z</time>
      </trkpt>
      <trkpt lat="44.17992" lon="4.07327">
        <ele>314.49</ele>
        <time>2011-10-15T12:14:31Z</time>
      </trkpt>
      <trkpt lat="44.17992" lon="4.07317">
        <ele>314.49</ele>
        <time>2011-10-15T12:14:35Z</time>
      </trkpt>
      <trkpt lat="44.17997" lon="4.07301">
        <ele>314.97</ele>
        <time>2011-10-15T12:14:42Z</time>
      </trkpt>
      <trkpt lat="44.17998" lon="4.07292">
        <ele>314.97</ele>
        <time>2011-10-15T12:14:47Z</time>
      </trkpt>
      <trkpt lat="44.17998" lon="4.07273">
        <ele>316.41</ele>
        <time>2011-10-15T12:14:56Z</time>
      </trkpt>
      <trkpt lat="44.17999" lon="4.07267">
        <ele>316.89</ele>
        <time>2011-10-15T12:14:58Z</time>
      </trkpt>
      <trkpt lat="44.18005" lon="4.07253">
        <ele>317.85</ele>
        <time>2011-10-15T12:15:05Z</time>
      </trkpt>
      <trkpt lat="44.18005" lon="4.07249">
        <ele>318.33</ele>
        <time>2011-10-15T12:15:07Z</time>
      </trkpt>
      <trkpt lat="44.18006" lon="4.07245">
        <ele>317.85</ele>
        <time>2011-10-15T12:15:09Z</time>
      </trkpt>
      <trkpt lat="44.18003" lon="4.07229">
        <ele>317.37</ele>
        <time>2011-10-15T12:15:16Z</time>
      </trkpt>
      <trkpt lat="44.18005" lon="4.07206">
        <ele>316.89</ele>
        <time>2011-10-15T12:15:25Z</time>
      </trkpt>
      <trkpt lat="44.18009" lon="4.07183">
        <ele>315.45</ele>
        <time>2011-10-15T12:15:32Z</time>
      </trkpt>
      <trkpt lat="44.18021" lon="4.07155">
        <ele>314.01</ele>
        <time>2011-10-15T12:15:38Z</time>
      </trkpt>
      <trkpt lat="44.18024" lon="4.07149">
        <ele>313.05</ele>
        <time>2011-10-15T12:15:39Z</time>
      </trkpt>
      <trkpt lat="44.18027" lon="4.07144">
        <ele>313.05</ele>
        <time>2011-10-15T12:15:40Z</time>
      </trkpt>
      <trkpt lat="44.18031" lon="4.07139">
        <ele>313.53</ele>
        <time>2011-10-15T12:15:41Z</time>
      </trkpt>
      <trkpt lat="44.18052" lon="4.07101">
        <ele>312.09</ele>
        <time>2011-10-15T12:15:49Z</time>
      </trkpt>
      <trkpt lat="44.18055" lon="4.07075">
        <ele>311.12</ele>
        <time>2011-10-15T12:15:53Z</time>
      </trkpt>
      <trkpt lat="44.18055" lon="4.07068">
        <ele>310.16</ele>
        <time>2011-10-15T12:15:54Z</time>
      </trkpt>
      <trkpt lat="44.18057" lon="4.07055">
        <ele>307.76</ele>
        <time>2011-10-15T12:15:57Z</time>
      </trkpt>
      <trkpt lat="44.1806" lon="4.07052">
        <ele>307.28</ele>
        <time>2011-10-15T12:15:58Z</time>
      </trkpt>
      <trkpt lat="44.18076" lon="4.07038">
        <ele>305.84</ele>
        <time>2011-10-15T12:16:02Z</time>
      </trkpt>
      <trkpt lat="44.18081" lon="4.07036">
        <ele>305.84</ele>
        <time>2011-10-15T12:16:03Z</time>
      </trkpt>
      <trkpt lat="44.18085" lon="4.07034">
        <ele>305.84</ele>
        <time>2011-10-15T12:16:04Z</time>
      </trkpt>
      <trkpt lat="44.18119" lon="4.07025">
        <ele>304.39</ele>
        <time>2011-10-15T12:16:11Z</time>
      </trkpt>
      <trkpt lat="44.1813" lon="4.07023">
        <ele>303.91</ele>
        <time>2011-10-15T12:16:13Z</time>
      </trkpt>
      <trkpt lat="44.18133" lon="4.07022">
        <ele>302.95</ele>
        <time>2011-10-15T12:16:14Z</time>
      </trkpt>
      <trkpt lat="44.18136" lon="4.07021">
        <ele>302.47</ele>
        <time>2011-10-15T12:16:15Z</time>
      </trkpt>
      <trkpt lat="44.18151" lon="4.07012">
        <ele>301.03</ele>
        <time>2011-10-15T12:16:21Z</time>
      </trkpt>
      <trkpt lat="44.18153" lon="4.07013">
        <ele>300.55</ele>
        <time>2011-10-15T12:16:22Z</time>
      </trkpt>
      <trkpt lat="44.18157" lon="4.07014">
        <ele>300.07</ele>
        <time>2011-10-15T12:16:23Z</time>
      </trkpt>
      <trkpt lat="44.18168" lon="4.07013">
        <ele>300.07</ele>
        <time>2011-10-15T12:16:26Z</time>
      </trkpt>
      <trkpt lat="44.18176" lon="4.0701">
        <ele>299.11</ele>
        <time>2011-10-15T12:16:29Z</time>
      </trkpt>
      <trkpt lat="44.18179" lon="4.07011">
        <ele>298.15</ele>
        <time>2011-10-15T12:16:30Z</time>
      </trkpt>
      <trkpt lat="44.18181" lon="4.07013">
        <ele>298.15</ele>
        <time>2011-10-15T12:16:31Z</time>
      </trkpt>
      <trkpt lat="44.18182" lon="4.07016">
        <ele>297.67</ele>
        <time>2011-10-15T12:16:32Z</time>
      </trkpt>
      <trkpt lat="44.18183" lon="4.07019">
        <ele>298.15</ele>
        <time>2011-10-15T12:16:33Z</time>
      </trkpt>
      <trkpt lat="44.18181" lon="4.07049">
        <ele>294.78</ele>
        <time>2011-10-15T12:16:39Z</time>
      </trkpt>
      <trkpt lat="44.18178" lon="4.07064">
        <ele>293.82</ele>
        <time>2011-10-15T12:16:41Z</time>
      </trkpt>
      <trkpt lat="44.18177" lon="4.0708">
        <ele>292.86</ele>
        <time>2011-10-15T12:16:43Z</time>
      </trkpt>
      <trkpt lat="44.18177" lon="4.07089">
        <ele>291.9</ele>
        <time>2011-10-15T12:16:44Z</time>
      </trkpt>
      <trkpt lat="44.18177" lon="4.07099">
        <ele>291.42</ele>
        <time>2011-10-15T12:16:45Z</time>
      </trkpt>
      <trkpt lat="44.18177" lon="4.0711">
        <ele>290.46</ele>
        <time>2011-10-15T12:16:46Z</time>
      </trkpt>
      <trkpt lat="44.18176" lon="4.07121">
        <ele>289.49</ele>
        <time>2011-10-15T12:16:47Z</time>
      </trkpt>
      <trkpt lat="44.18174" lon="4.07131">
        <ele>289.49</ele>
        <time>2011-10-15T12:16:48Z</time>
      </trkpt>
      <trkpt lat="44.18174" lon="4.07143">
        <ele>288.53</ele>
        <time>2011-10-15T12:16:49Z</time>
      </trkpt>
      <trkpt lat="44.18175" lon="4.07157">
        <ele>288.05</ele>
        <time>2011-10-15T12:16:50Z</time>
      </trkpt>
      <trkpt lat="44.18176" lon="4.0717">
        <ele>287.09</ele>
        <time>2011-10-15T12:16:51Z</time>
      </trkpt>
      <trkpt lat="44.18176" lon="4.07181">
        <ele>286.61</ele>
        <time>2011-10-15T12:16:52Z</time>
      </trkpt>
      <trkpt lat="44.18175" lon="4.07193">
        <ele>285.65</ele>
        <time>2011-10-15T12:16:53Z</time>
      </trkpt>
      <trkpt lat="44.18174" lon="4.07238">
        <ele>283.73</ele>
        <time>2011-10-15T12:16:57Z</time>
      </trkpt>
      <trkpt lat="44.18174" lon="4.07248">
        <ele>283.25</ele>
        <time>2011-10-15T12:16:58Z</time>
      </trkpt>
      <trkpt lat="44.18174" lon="4.07259">
        <ele>282.28</ele>
        <time>2011-10-15T12:16:59Z</time>
      </trkpt>
      <trkpt lat="44.18175" lon="4.07269">
        <ele>282.28</ele>
        <time>2011-10-15T12:17:00Z</time>
      </trkpt>
      <trkpt lat="44.18175" lon="4.0728">
        <ele>281.8</ele>
        <time>2011-10-15T12:17:01Z</time>
      </trkpt>
      <trkpt lat="44.18176" lon="4.07289">
        <ele>281.8</ele>
        <time>2011-10-15T12:17:02Z</time>
      </trkpt>
      <trkpt lat="44.18177" lon="4.07298">
        <ele>281.8</ele>
        <time>2011-10-15T12:17:03Z</time>
      </trkpt>
      <trkpt lat="44.18185" lon="4.07371">
        <ele>280.84</ele>
        <time>2011-10-15T12:17:11Z</time>
      </trkpt>
      <trkpt lat="44.18185" lon="4.0738">
        <ele>279.88</ele>
        <time>2011-10-15T12:17:12Z</time>
      </trkpt>
      <trkpt lat="44.18186" lon="4.07388">
        <ele>280.36</ele>
        <time>2011-10-15T12:17:13Z</time>
      </trkpt>
      <trkpt lat="44.18187" lon="4.07395">
        <ele>280.36</ele>
        <time>2011-10-15T12:17:14Z</time>
      </trkpt>
      <trkpt lat="44.1819" lon="4.07401">
        <ele>279.88</ele>
        <time>2011-10-15T12:17:15Z</time>
      </trkpt>
      <trkpt lat="44.18193" lon="4.07407">
        <ele>280.36</ele>
        <time>2011-10-15T12:17:16Z</time>
      </trkpt>
      <trkpt lat="44.18221" lon="4.07454">
        <ele>281.32</ele>
        <time>2011-10-15T12:17:24Z</time>
      </trkpt>
      <trkpt lat="44.18225" lon="4.07459">
        <ele>280.84</ele>
        <time>2011-10-15T12:17:25Z</time>
      </trkpt>
      <trkpt lat="44.1823" lon="4.07462">
        <ele>280.36</ele>
        <time>2011-10-15T12:17:26Z</time>
      </trkpt>
      <trkpt lat="44.18234" lon="4.07464">
        <ele>279.4</ele>
        <time>2011-10-15T12:17:27Z</time>
      </trkpt>
      <trkpt lat="44.18237" lon="4.07463">
        <ele>279.4</ele>
        <time>2011-10-15T12:17:28Z</time>
      </trkpt>
      <trkpt lat="44.18241" lon="4.07462">
        <ele>279.88</ele>
        <time>2011-10-15T12:17:29Z</time>
      </trkpt>
      <trkpt lat="44.18245" lon="4.0746">
        <ele>280.84</ele>
        <time>2011-10-15T12:17:30Z</time>
      </trkpt>
      <trkpt lat="44.18264" lon="4.07444">
        <ele>279.4</ele>
        <time>2011-10-15T12:17:35Z</time>
      </trkpt>
      <trkpt lat="44.18276" lon="4.07433">
        <ele>278.92</ele>
        <time>2011-10-15T12:17:38Z</time>
      </trkpt>
      <trkpt lat="44.1828" lon="4.07428">
        <ele>279.88</ele>
        <time>2011-10-15T12:17:39Z</time>
      </trkpt>
      <trkpt lat="44.18284" lon="4.07424">
        <ele>279.88</ele>
        <time>2011-10-15T12:17:40Z</time>
      </trkpt>
      <trkpt lat="44.18292" lon="4.07414">
        <ele>278.44</ele>
        <time>2011-10-15T12:17:42Z</time>
      </trkpt>
      <trkpt lat="44.18296" lon="4.0741">
        <ele>278.92</ele>
        <time>2011-10-15T12:17:43Z</time>
      </trkpt>
      <trkpt lat="44.183" lon="4.07405">
        <ele>279.4</ele>
        <time>2011-10-15T12:17:44Z</time>
      </trkpt>
      <trkpt lat="44.18319" lon="4.07382">
        <ele>279.4</ele>
        <time>2011-10-15T12:17:49Z</time>
      </trkpt>
      <trkpt lat="44.18321" lon="4.07376">
        <ele>279.4</ele>
        <time>2011-10-15T12:17:50Z</time>
      </trkpt>
      <trkpt lat="44.18324" lon="4.0737">
        <ele>279.88</ele>
        <time>2011-10-15T12:17:51Z</time>
      </trkpt>
      <trkpt lat="44.18326" lon="4.07363">
        <ele>279.4</ele>
        <time>2011-10-15T12:17:52Z</time>
      </trkpt>
      <trkpt lat="44.18328" lon="4.07357">
        <ele>278.92</ele>
        <time>2011-10-15T12:17:53Z</time>
      </trkpt>
      <trkpt lat="44.1833" lon="4.07349">
        <ele>280.36</ele>
        <time>2011-10-15T12:17:54Z</time>
      </trkpt>
      <trkpt lat="44.18331" lon="4.07343">
        <ele>280.36</ele>
        <time>2011-10-15T12:17:55Z</time>
      </trkpt>
      <trkpt lat="44.1834" lon="4.07304">
        <ele>280.36</ele>
        <time>2011-10-15T12:18:00Z</time>
      </trkpt>
      <trkpt lat="44.18345" lon="4.07299">
        <ele>279.4</ele>
        <time>2011-10-15T12:18:01Z</time>
      </trkpt>
      <trkpt lat="44.18349" lon="4.07295">
        <ele>279.4</ele>
        <time>2011-10-15T12:18:02Z</time>
      </trkpt>
      <trkpt lat="44.18354" lon="4.07293">
        <ele>279.4</ele>
        <time>2011-10-15T12:18:03Z</time>
      </trkpt>
      <trkpt lat="44.18359" lon="4.07291">
        <ele>279.4</ele>
        <time>2011-10-15T12:18:04Z</time>
      </trkpt>
      <trkpt lat="44.18364" lon="4.0729">
        <ele>279.4</ele>
        <time>2011-10-15T12:18:05Z</time>
      </trkpt>
      <trkpt lat="44.18369" lon="4.07288">
        <ele>279.4</ele>
        <time>2011-10-15T12:18:06Z</time>
      </trkpt>
      <trkpt lat="44.18374" lon="4.07287">
        <ele>278.92</ele>
        <time>2011-10-15T12:18:07Z</time>
      </trkpt>
      <trkpt lat="44.18385" lon="4.07283">
        <ele>279.4</ele>
        <time>2011-10-15T12:18:09Z</time>
      </trkpt>
      <trkpt lat="44.18405" lon="4.07275">
        <ele>278.92</ele>
        <time>2011-10-15T12:18:13Z</time>
      </trkpt>
      <trkpt lat="44.1841" lon="4.07274">
        <ele>279.4</ele>
        <time>2011-10-15T12:18:14Z</time>
      </trkpt>
      <trkpt lat="44.18415" lon="4.07272">
        <ele>279.4</ele>
        <time>2011-10-15T12:18:15Z</time>
      </trkpt>
      <trkpt lat="44.18439" lon="4.07263">
        <ele>278.92</ele>
        <time>2011-10-15T12:18:20Z</time>
      </trkpt>
      <trkpt lat="44.18448" lon="4.07262">
        <ele>278.44</ele>
        <time>2011-10-15T12:18:22Z</time>
      </trkpt>
      <trkpt lat="44.18458" lon="4.07262">
        <ele>278.44</ele>
        <time>2011-10-15T12:18:24Z</time>
      </trkpt>
      <trkpt lat="44.18463" lon="4.07263">
        <ele>278.44</ele>
        <time>2011-10-15T12:18:25Z</time>
      </trkpt>
      <trkpt lat="44.18467" lon="4.07262">
        <ele>278.44</ele>
        <time>2011-10-15T12:18:26Z</time>
      </trkpt>
      <trkpt lat="44.1847" lon="4.07262">
        <ele>278.44</ele>
        <time>2011-10-15T12:18:27Z</time>
      </trkpt>
      <trkpt lat="44.18472" lon="4.07261">
        <ele>279.4</ele>
        <time>2011-10-15T12:18:28Z</time>
      </trkpt>
      <trkpt lat="44.18475" lon="4.07261">
        <ele>279.4</ele>
        <time>2011-10-15T12:18:29Z</time>
      </trkpt>
      <trkpt lat="44.18477" lon="4.0726">
        <ele>279.4</ele>
        <time>2011-10-15T12:18:30Z</time>
      </trkpt>
      <trkpt lat="44.18502" lon="4.07268">
        <ele>281.8</ele>
        <time>2011-10-15T12:18:41Z</time>
      </trkpt>
      <trkpt lat="44.18523" lon="4.07282">
        <ele>282.77</ele>
        <time>2011-10-15T12:18:52Z</time>
      </trkpt>
      <trkpt lat="44.18524" lon="4.07282">
        <ele>283.25</ele>
        <time>2011-10-15T12:18:53Z</time>
      </trkpt>
      <trkpt lat="44.18527" lon="4.07283">
        <ele>283.25</ele>
        <time>2011-10-15T12:18:55Z</time>
      </trkpt>
      <trkpt lat="44.18529" lon="4.07284">
        <ele>283.25</ele>
        <time>2011-10-15T12:18:56Z</time>
      </trkpt>
      <trkpt lat="44.18531" lon="4.07285">
        <ele>283.73</ele>
        <time>2011-10-15T12:18:57Z</time>
      </trkpt>
      <trkpt lat="44.18533" lon="4.07287">
        <ele>283.73</ele>
        <time>2011-10-15T12:18:58Z</time>
      </trkpt>
      <trkpt lat="44.18535" lon="4.07288">
        <ele>283.25</ele>
        <time>2011-10-15T12:18:59Z</time>
      </trkpt>
      <trkpt lat="44.18536" lon="4.0729">
        <ele>283.25</ele>
        <time>2011-10-15T12:19:00Z</time>
      </trkpt>
      <trkpt lat="44.18537" lon="4.07292">
        <ele>283.73</ele>
        <time>2011-10-15T12:19:01Z</time>
      </trkpt>
      <trkpt lat="44.18529" lon="4.07303">
        <ele>285.17</ele>
        <time>2011-10-15T12:19:09Z</time>
      </trkpt>
      <trkpt lat="44.18518" lon="4.07305">
        <ele>286.61</ele>
        <time>2011-10-15T12:19:15Z</time>
      </trkpt>
      <trkpt lat="44.18512" lon="4.07306">
        <ele>287.09</ele>
        <time>2011-10-15T12:19:19Z</time>
      </trkpt>
      <trkpt lat="44.18505" lon="4.07313">
        <ele>287.57</ele>
        <time>2011-10-15T12:19:25Z</time>
      </trkpt>
      <trkpt lat="44.18504" lon="4.07316">
        <ele>287.57</ele>
        <time>2011-10-15T12:19:27Z</time>
      </trkpt>
      <trkpt lat="44.18495" lon="4.07326">
        <ele>289.97</ele>
        <time>2011-10-15T12:19:33Z</time>
      </trkpt>
      <trkpt lat="44.18489" lon="4.07331">
        <ele>290.94</ele>
        <time>2011-10-15T12:19:37Z</time>
      </trkpt>
      <trkpt lat="44.18477" lon="4.07343">
        <ele>291.9</ele>
        <time>2011-10-15T12:19:44Z</time>
      </trkpt>
      <trkpt lat="44.18468" lon="4.07352">
        <ele>292.38</ele>
        <time>2011-10-15T12:19:50Z</time>
      </trkpt>
      <trkpt lat="44.1846" lon="4.07366">
        <ele>292.38</ele>
        <time>2011-10-15T12:19:58Z</time>
      </trkpt>
      <trkpt lat="44.18463" lon="4.07371">
        <ele>293.82</ele>
        <time>2011-10-15T12:20:04Z</time>
      </trkpt>
      <trkpt lat="44.1847" lon="4.07366">
        <ele>294.3</ele>
        <time>2011-10-15T12:20:12Z</time>
      </trkpt>
      <trkpt lat="44.18473" lon="4.07366">
        <ele>294.78</ele>
        <time>2011-10-15T12:20:27Z</time>
      </trkpt>
      <trkpt lat="44.18473" lon="4.07366">
        <ele>294.78</ele>
        <time>2011-10-15T12:20:41Z</time>
      </trkpt>
      <trkpt lat="44.18474" lon="4.07365">
        <ele>295.26</ele>
        <time>2011-10-15T12:21:04Z</time>
      </trkpt>
      <trkpt lat="44.18501" lon="4.07355">
        <ele>298.15</ele>
        <time>2011-10-15T12:21:18Z</time>
      </trkpt>
      <trkpt lat="44.18503" lon="4.07354">
        <ele>297.67</ele>
        <time>2011-10-15T12:21:19Z</time>
      </trkpt>
      <trkpt lat="44.18508" lon="4.07352">
        <ele>297.67</ele>
        <time>2011-10-15T12:21:22Z</time>
      </trkpt>
      <trkpt lat="44.18519" lon="4.07349">
        <ele>298.15</ele>
        <time>2011-10-15T12:21:30Z</time>
      </trkpt>
      <trkpt lat="44.18544" lon="4.07354">
        <ele>299.11</ele>
        <time>2011-10-15T12:21:40Z</time>
      </trkpt>
      <trkpt lat="44.18576" lon="4.07371">
        <ele>301.03</ele>
        <time>2011-10-15T12:21:52Z</time>
      </trkpt>
      <trkpt lat="44.18601" lon="4.07384">
        <ele>302.47</ele>
        <time>2011-10-15T12:22:03Z</time>
      </trkpt>
      <trkpt lat="44.18607" lon="4.07387">
        <ele>302.95</ele>
        <time>2011-10-15T12:22:06Z</time>
      </trkpt>
      <trkpt lat="44.18611" lon="4.0739">
        <ele>302.47</ele>
        <time>2011-10-15T12:22:10Z</time>
      </trkpt>
      <trkpt lat="44.18626" lon="4.07401">
        <ele>304.88</ele>
        <time>2011-10-15T12:22:21Z</time>
      </trkpt>
      <trkpt lat="44.18626" lon="4.07401">
        <ele>304.39</ele>
        <time>2011-10-15T12:22:22Z</time>
      </trkpt>
      <trkpt lat="44.18633" lon="4.07403">
        <ele>305.84</ele>
        <time>2011-10-15T12:22:33Z</time>
      </trkpt>
      <trkpt lat="44.18637" lon="4.07405">
        <ele>305.36</ele>
        <time>2011-10-15T12:22:36Z</time>
      </trkpt>
      <trkpt lat="44.18645" lon="4.07407">
        <ele>306.32</ele>
        <time>2011-10-15T12:22:43Z</time>
      </trkpt>
      <trkpt lat="44.18655" lon="4.07408">
        <ele>307.76</ele>
        <time>2011-10-15T12:22:54Z</time>
      </trkpt>
      <trkpt lat="44.18667" lon="4.07406">
        <ele>308.72</ele>
        <time>2011-10-15T12:23:07Z</time>
      </trkpt>
      <trkpt lat="44.18668" lon="4.07406">
        <ele>309.2</ele>
        <time>2011-10-15T12:23:27Z</time>
      </trkpt>
      <trkpt lat="44.18671" lon="4.07405">
        <ele>309.68</ele>
        <time>2011-10-15T12:23:31Z</time>
      </trkpt>
      <trkpt lat="44.18684" lon="4.07405">
        <ele>310.64</ele>
        <time>2011-10-15T12:23:37Z</time>
      </trkpt>
      <trkpt lat="44.18695" lon="4.07403">
        <ele>311.12</ele>
        <time>2011-10-15T12:23:42Z</time>
      </trkpt>
      <trkpt lat="44.18712" lon="4.07401">
        <ele>313.05</ele>
        <time>2011-10-15T12:23:52Z</time>
      </trkpt>
      <trkpt lat="44.18727" lon="4.07395">
        <ele>314.97</ele>
        <time>2011-10-15T12:24:05Z</time>
      </trkpt>
      <trkpt lat="44.18735" lon="4.07394">
        <ele>315.93</ele>
        <time>2011-10-15T12:24:19Z</time>
      </trkpt>
      <trkpt lat="44.18746" lon="4.07388">
        <ele>317.37</ele>
        <time>2011-10-15T12:24:28Z</time>
      </trkpt>
      <trkpt lat="44.18749" lon="4.07385">
        <ele>317.37</ele>
        <time>2011-10-15T12:24:31Z</time>
      </trkpt>
      <trkpt lat="44.1876" lon="4.07379">
        <ele>319.3</ele>
        <time>2011-10-15T12:24:40Z</time>
      </trkpt>
      <trkpt lat="44.18763" lon="4.07375">
        <ele>319.78</ele>
        <time>2011-10-15T12:24:44Z</time>
      </trkpt>
      <trkpt lat="44.18784" lon="4.07369">
        <ele>320.74</ele>
        <time>2011-10-15T12:24:53Z</time>
      </trkpt>
      <trkpt lat="44.18787" lon="4.07376">
        <ele>322.66</ele>
        <time>2011-10-15T12:25:03Z</time>
      </trkpt>
      <trkpt lat="44.18786" lon="4.07379">
        <ele>322.66</ele>
        <time>2011-10-15T12:25:06Z</time>
      </trkpt>
      <trkpt lat="44.18782" lon="4.07383">
        <ele>323.14</ele>
        <time>2011-10-15T12:25:27Z</time>
      </trkpt>
      <trkpt lat="44.18782" lon="4.07384">
        <ele>322.66</ele>
        <time>2011-10-15T12:25:55Z</time>
      </trkpt>
      <trkpt lat="44.18782" lon="4.07384">
        <ele>322.66</ele>
        <time>2011-10-15T12:26:16Z</time>
      </trkpt>
      <trkpt lat="44.18769" lon="4.07404">
        <ele>324.58</ele>
        <time>2011-10-15T12:26:26Z</time>
      </trkpt>
      <trkpt lat="44.18758" lon="4.07421">
        <ele>326.02</ele>
        <time>2011-10-15T12:26:34Z</time>
      </trkpt>
      <trkpt lat="44.18757" lon="4.07432">
        <ele>326.99</ele>
        <time>2011-10-15T12:26:38Z</time>
      </trkpt>
      <trkpt lat="44.18757" lon="4.07435">
        <ele>327.47</ele>
        <time>2011-10-15T12:26:39Z</time>
      </trkpt>
      <trkpt lat="44.18755" lon="4.07453">
        <ele>329.87</ele>
        <time>2011-10-15T12:26:49Z</time>
      </trkpt>
      <trkpt lat="44.18754" lon="4.07459">
        <ele>330.83</ele>
        <time>2011-10-15T12:27:00Z</time>
      </trkpt>
      <trkpt lat="44.18747" lon="4.0747">
        <ele>331.31</ele>
        <time>2011-10-15T12:27:07Z</time>
      </trkpt>
      <trkpt lat="44.18725" lon="4.07492">
        <ele>333.71</ele>
        <time>2011-10-15T12:27:23Z</time>
      </trkpt>
      <trkpt lat="44.18716" lon="4.07497">
        <ele>332.75</ele>
        <time>2011-10-15T12:27:28Z</time>
      </trkpt>
      <trkpt lat="44.18707" lon="4.07505">
        <ele>333.71</ele>
        <time>2011-10-15T12:27:33Z</time>
      </trkpt>
      <trkpt lat="44.18703" lon="4.07509">
        <ele>333.71</ele>
        <time>2011-10-15T12:27:36Z</time>
      </trkpt>
      <trkpt lat="44.18702" lon="4.07524">
        <ele>335.16</ele>
        <time>2011-10-15T12:27:45Z</time>
      </trkpt>
      <trkpt lat="44.18705" lon="4.07524">
        <ele>335.16</ele>
        <time>2011-10-15T12:27:47Z</time>
      </trkpt>
      <trkpt lat="44.18718" lon="4.07523">
        <ele>336.12</ele>
        <time>2011-10-15T12:27:55Z</time>
      </trkpt>
      <trkpt lat="44.18736" lon="4.07525">
        <ele>339</ele>
        <time>2011-10-15T12:28:05Z</time>
      </trkpt>
      <trkpt lat="44.1874" lon="4.07527">
        <ele>339.48</ele>
        <time>2011-10-15T12:28:09Z</time>
      </trkpt>
      <trkpt lat="44.1875" lon="4.07526">
        <ele>340.92</ele>
        <time>2011-10-15T12:28:15Z</time>
      </trkpt>
      <trkpt lat="44.18755" lon="4.07527">
        <ele>341.41</ele>
        <time>2011-10-15T12:28:18Z</time>
      </trkpt>
      <trkpt lat="44.18767" lon="4.07523">
        <ele>343.33</ele>
        <time>2011-10-15T12:28:25Z</time>
      </trkpt>
      <trkpt lat="44.18779" lon="4.07515">
        <ele>344.77</ele>
        <time>2011-10-15T12:28:35Z</time>
      </trkpt>
      <trkpt lat="44.1879" lon="4.07509">
        <ele>345.25</ele>
        <time>2011-10-15T12:28:43Z</time>
      </trkpt>
      <trkpt lat="44.188" lon="4.07501">
        <ele>346.21</ele>
        <time>2011-10-15T12:28:51Z</time>
      </trkpt>
      <trkpt lat="44.18818" lon="4.07493">
        <ele>348.13</ele>
        <time>2011-10-15T12:28:58Z</time>
      </trkpt>
      <trkpt lat="44.18829" lon="4.07489">
        <ele>348.13</ele>
        <time>2011-10-15T12:29:03Z</time>
      </trkpt>
      <trkpt lat="44.18847" lon="4.07475">
        <ele>349.1</ele>
        <time>2011-10-15T12:29:16Z</time>
      </trkpt>
      <trkpt lat="44.18854" lon="4.07468">
        <ele>350.06</ele>
        <time>2011-10-15T12:29:21Z</time>
      </trkpt>
      <trkpt lat="44.18866" lon="4.07455">
        <ele>352.94</ele>
        <time>2011-10-15T12:29:30Z</time>
      </trkpt>
      <trkpt lat="44.18875" lon="4.07446">
        <ele>354.38</ele>
        <time>2011-10-15T12:29:38Z</time>
      </trkpt>
      <trkpt lat="44.18888" lon="4.07428">
        <ele>355.34</ele>
        <time>2011-10-15T12:29:51Z</time>
      </trkpt>
      <trkpt lat="44.1889" lon="4.07423">
        <ele>355.83</ele>
        <time>2011-10-15T12:29:54Z</time>
      </trkpt>
      <trkpt lat="44.18892" lon="4.07418">
        <ele>356.31</ele>
        <time>2011-10-15T12:29:57Z</time>
      </trkpt>
      <trkpt lat="44.18902" lon="4.07401">
        <ele>359.19</ele>
        <time>2011-10-15T12:30:10Z</time>
      </trkpt>
      <trkpt lat="44.18908" lon="4.07386">
        <ele>359.19</ele>
        <time>2011-10-15T12:30:20Z</time>
      </trkpt>
      <trkpt lat="44.18913" lon="4.07378">
        <ele>360.63</ele>
        <time>2011-10-15T12:30:26Z</time>
      </trkpt>
      <trkpt lat="44.18926" lon="4.07372">
        <ele>363.52</ele>
        <time>2011-10-15T12:30:37Z</time>
      </trkpt>
      <trkpt lat="44.18932" lon="4.07371">
        <ele>363.52</ele>
        <time>2011-10-15T12:30:41Z</time>
      </trkpt>
      <trkpt lat="44.18942" lon="4.07368">
        <ele>364.48</ele>
        <time>2011-10-15T12:30:48Z</time>
      </trkpt>
      <trkpt lat="44.18962" lon="4.07352">
        <ele>367.84</ele>
        <time>2011-10-15T12:31:01Z</time>
      </trkpt>
      <trkpt lat="44.18981" lon="4.07339">
        <ele>370.24</ele>
        <time>2011-10-15T12:31:15Z</time>
      </trkpt>
      <trkpt lat="44.18982" lon="4.0734">
        <ele>369.28</ele>
        <time>2011-10-15T12:31:30Z</time>
      </trkpt>
      <trkpt lat="44.18981" lon="4.0734">
        <ele>368.8</ele>
        <time>2011-10-15T12:31:31Z</time>
      </trkpt>
      <trkpt lat="44.18971" lon="4.07347">
        <ele>367.84</ele>
        <time>2011-10-15T12:31:38Z</time>
      </trkpt>
      <trkpt lat="44.18961" lon="4.07353">
        <ele>366.4</ele>
        <time>2011-10-15T12:31:52Z</time>
      </trkpt>
      <trkpt lat="44.18961" lon="4.07353">
        <ele>366.4</ele>
        <time>2011-10-15T12:32:20Z</time>
      </trkpt>
      <trkpt lat="44.18961" lon="4.07353">
        <ele>365.92</ele>
        <time>2011-10-15T12:32:54Z</time>
      </trkpt>
      <trkpt lat="44.18961" lon="4.07353">
        <ele>365.92</ele>
        <time>2011-10-15T12:33:33Z</time>
      </trkpt>
      <trkpt lat="44.18958" lon="4.07356">
        <ele>365.92</ele>
        <time>2011-10-15T12:34:04Z</time>
      </trkpt>
      <trkpt lat="44.18958" lon="4.07357">
        <ele>365.92</ele>
        <time>2011-10-15T12:34:21Z</time>
      </trkpt>
      <trkpt lat="44.18958" lon="4.07357">
        <ele>366.4</ele>
        <time>2011-10-15T12:34:38Z</time>
      </trkpt>
      <trkpt lat="44.18958" lon="4.07357">
        <ele>366.4</ele>
        <time>2011-10-15T12:35:05Z</time>
      </trkpt>
      <trkpt lat="44.18958" lon="4.07356">
        <ele>366.4</ele>
        <time>2011-10-15T12:35:31Z</time>
      </trkpt>
      <trkpt lat="44.18958" lon="4.07356">
        <ele>366.88</ele>
        <time>2011-10-15T12:35:54Z</time>
      </trkpt>
      <trkpt lat="44.18958" lon="4.07356">
        <ele>366.4</ele>
        <time>2011-10-15T12:36:36Z</time>
      </trkpt>
      <trkpt lat="44.18958" lon="4.07355">
        <ele>366.4</ele>
        <time>2011-10-15T12:37:15Z</time>
      </trkpt>
      <trkpt lat="44.18957" lon="4.07355">
        <ele>366.4</ele>
        <time>2011-10-15T12:37:52Z</time>
      </trkpt>
      <trkpt lat="44.18957" lon="4.07356">
        <ele>366.88</ele>
        <time>2011-10-15T12:38:26Z</time>
      </trkpt>
      <trkpt lat="44.18958" lon="4.07355">
        <ele>366.88</ele>
        <time>2011-10-15T12:39:02Z</time>
      </trkpt>
      <trkpt lat="44.18958" lon="4.07355">
        <ele>366.88</ele>
        <time>2011-10-15T12:39:36Z</time>
      </trkpt>
      <trkpt lat="44.18957" lon="4.07355">
        <ele>367.36</ele>
        <time>2011-10-15T12:40:09Z</time>
      </trkpt>
      <trkpt lat="44.18964" lon="4.07351">
        <ele>368.32</ele>
        <time>2011-10-15T12:40:27Z</time>
      </trkpt>
      <trkpt lat="44.18965" lon="4.07351">
        <ele>367.84</ele>
        <time>2011-10-15T12:40:28Z</time>
      </trkpt>
      <trkpt lat="44.18971" lon="4.07348">
        <ele>369.76</ele>
        <time>2011-10-15T12:40:40Z</time>
      </trkpt>
      <trkpt lat="44.18974" lon="4.07347">
        <ele>369.28</ele>
        <time>2011-10-15T12:40:44Z</time>
      </trkpt>
      <trkpt lat="44.18983" lon="4.07339">
        <ele>372.17</ele>
        <time>2011-10-15T12:40:54Z</time>
      </trkpt>
      <trkpt lat="44.18997" lon="4.07334">
        <ele>374.09</ele>
        <time>2011-10-15T12:41:04Z</time>
      </trkpt>
      <trkpt lat="44.18998" lon="4.07333">
        <ele>373.61</ele>
        <time>2011-10-15T12:41:05Z</time>
      </trkpt>
      <trkpt lat="44.19015" lon="4.0732">
        <ele>376.49</ele>
        <time>2011-10-15T12:41:19Z</time>
      </trkpt>
      <trkpt lat="44.19021" lon="4.07317">
        <ele>377.94</ele>
        <time>2011-10-15T12:41:32Z</time>
      </trkpt>
      <trkpt lat="44.19021" lon="4.07317">
        <ele>377.94</ele>
        <time>2011-10-15T12:41:36Z</time>
      </trkpt>
      <trkpt lat="44.19034" lon="4.07312">
        <ele>380.34</ele>
        <time>2011-10-15T12:41:46Z</time>
      </trkpt>
      <trkpt lat="44.19038" lon="4.07313">
        <ele>380.82</ele>
        <time>2011-10-15T12:41:59Z</time>
      </trkpt>
      <trkpt lat="44.19038" lon="4.07313">
        <ele>380.82</ele>
        <time>2011-10-15T12:42:00Z</time>
      </trkpt>
      <trkpt lat="44.19043" lon="4.07318">
        <ele>380.34</ele>
        <time>2011-10-15T12:42:03Z</time>
      </trkpt>
      <trkpt lat="44.19048" lon="4.07322">
        <ele>379.38</ele>
        <time>2011-10-15T12:42:07Z</time>
      </trkpt>
      <trkpt lat="44.19073" lon="4.07337">
        <ele>378.42</ele>
        <time>2011-10-15T12:42:19Z</time>
      </trkpt>
      <trkpt lat="44.19084" lon="4.07342">
        <ele>376.97</ele>
        <time>2011-10-15T12:42:22Z</time>
      </trkpt>
      <trkpt lat="44.19093" lon="4.07346">
        <ele>375.53</ele>
        <time>2011-10-15T12:42:25Z</time>
      </trkpt>
      <trkpt lat="44.19137" lon="4.07359">
        <ele>372.17</ele>
        <time>2011-10-15T12:42:36Z</time>
      </trkpt>
      <trkpt lat="44.19142" lon="4.07358">
        <ele>372.17</ele>
        <time>2011-10-15T12:42:37Z</time>
      </trkpt>
      <trkpt lat="44.19147" lon="4.07359">
        <ele>371.69</ele>
        <time>2011-10-15T12:42:38Z</time>
      </trkpt>
      <trkpt lat="44.19152" lon="4.07359">
        <ele>372.65</ele>
        <time>2011-10-15T12:42:39Z</time>
      </trkpt>
      <trkpt lat="44.19156" lon="4.07358">
        <ele>371.69</ele>
        <time>2011-10-15T12:42:40Z</time>
      </trkpt>
      <trkpt lat="44.19159" lon="4.07358">
        <ele>372.17</ele>
        <time>2011-10-15T12:42:41Z</time>
      </trkpt>
      <trkpt lat="44.19162" lon="4.07358">
        <ele>372.17</ele>
        <time>2011-10-15T12:42:42Z</time>
      </trkpt>
      <trkpt lat="44.19165" lon="4.07358">
        <ele>372.17</ele>
        <time>2011-10-15T12:42:43Z</time>
      </trkpt>
      <trkpt lat="44.19167" lon="4.07358">
        <ele>372.65</ele>
        <time>2011-10-15T12:42:44Z</time>
      </trkpt>
      <trkpt lat="44.19169" lon="4.07358">
        <ele>372.17</ele>
        <time>2011-10-15T12:42:45Z</time>
      </trkpt>
      <trkpt lat="44.19172" lon="4.07357">
        <ele>373.13</ele>
        <time>2011-10-15T12:42:46Z</time>
      </trkpt>
      <trkpt lat="44.19174" lon="4.07357">
        <ele>372.65</ele>
        <time>2011-10-15T12:42:47Z</time>
      </trkpt>
      <trkpt lat="44.19201" lon="4.07359">
        <ele>372.65</ele>
        <time>2011-10-15T12:42:58Z</time>
      </trkpt>
      <trkpt lat="44.19233" lon="4.07362">
        <ele>372.17</ele>
        <time>2011-10-15T12:43:09Z</time>
      </trkpt>
      <trkpt lat="44.19241" lon="4.07361">
        <ele>372.17</ele>
        <time>2011-10-15T12:43:12Z</time>
      </trkpt>
      <trkpt lat="44.19244" lon="4.07362">
        <ele>372.17</ele>
        <time>2011-10-15T12:43:13Z</time>
      </trkpt>
      <trkpt lat="44.19257" lon="4.07359">
        <ele>372.65</ele>
        <time>2011-10-15T12:43:19Z</time>
      </trkpt>
      <trkpt lat="44.19264" lon="4.07357">
        <ele>373.61</ele>
        <time>2011-10-15T12:43:23Z</time>
      </trkpt>
      <trkpt lat="44.19267" lon="4.07357">
        <ele>374.09</ele>
        <time>2011-10-15T12:43:24Z</time>
      </trkpt>
      <trkpt lat="44.1927" lon="4.07358">
        <ele>373.61</ele>
        <time>2011-10-15T12:43:25Z</time>
      </trkpt>
      <trkpt lat="44.19273" lon="4.07357">
        <ele>374.09</ele>
        <time>2011-10-15T12:43:26Z</time>
      </trkpt>
      <trkpt lat="44.19276" lon="4.07357">
        <ele>374.09</ele>
        <time>2011-10-15T12:43:27Z</time>
      </trkpt>
      <trkpt lat="44.19279" lon="4.07357">
        <ele>374.57</ele>
        <time>2011-10-15T12:43:28Z</time>
      </trkpt>
      <trkpt lat="44.19281" lon="4.07356">
        <ele>375.05</ele>
        <time>2011-10-15T12:43:29Z</time>
      </trkpt>
      <trkpt lat="44.19283" lon="4.07356">
        <ele>375.05</ele>
        <time>2011-10-15T12:43:30Z</time>
      </trkpt>
      <trkpt lat="44.19312" lon="4.07358">
        <ele>376.49</ele>
        <time>2011-10-15T12:43:41Z</time>
      </trkpt>
      <trkpt lat="44.19352" lon="4.07361">
        <ele>379.38</ele>
        <time>2011-10-15T12:43:55Z</time>
      </trkpt>
      <trkpt lat="44.1936" lon="4.07367">
        <ele>380.82</ele>
        <time>2011-10-15T12:43:59Z</time>
      </trkpt>
      <trkpt lat="44.19377" lon="4.07376">
        <ele>382.26</ele>
        <time>2011-10-15T12:44:08Z</time>
      </trkpt>
      <trkpt lat="44.19388" lon="4.07381">
        <ele>384.18</ele>
        <time>2011-10-15T12:44:13Z</time>
      </trkpt>
      <trkpt lat="44.19415" lon="4.07392">
        <ele>386.59</ele>
        <time>2011-10-15T12:44:26Z</time>
      </trkpt>
      <trkpt lat="44.19429" lon="4.07395">
        <ele>387.55</ele>
        <time>2011-10-15T12:44:33Z</time>
      </trkpt>
      <trkpt lat="44.19431" lon="4.07396">
        <ele>387.55</ele>
        <time>2011-10-15T12:44:34Z</time>
      </trkpt>
      <trkpt lat="44.19433" lon="4.07396">
        <ele>388.03</ele>
        <time>2011-10-15T12:44:35Z</time>
      </trkpt>
      <trkpt lat="44.19438" lon="4.07397">
        <ele>388.03</ele>
        <time>2011-10-15T12:44:37Z</time>
      </trkpt>
      <trkpt lat="44.1944" lon="4.07397">
        <ele>388.51</ele>
        <time>2011-10-15T12:44:38Z</time>
      </trkpt>
      <trkpt lat="44.19442" lon="4.07398">
        <ele>388.51</ele>
        <time>2011-10-15T12:44:39Z</time>
      </trkpt>
      <trkpt lat="44.19467" lon="4.074">
        <ele>388.99</ele>
        <time>2011-10-15T12:44:50Z</time>
      </trkpt>
      <trkpt lat="44.19482" lon="4.07397">
        <ele>389.95</ele>
        <time>2011-10-15T12:44:57Z</time>
      </trkpt>
      <trkpt lat="44.19484" lon="4.07396">
        <ele>389.47</ele>
        <time>2011-10-15T12:44:58Z</time>
      </trkpt>
      <trkpt lat="44.19486" lon="4.07395">
        <ele>389.47</ele>
        <time>2011-10-15T12:44:59Z</time>
      </trkpt>
      <trkpt lat="44.19488" lon="4.07395">
        <ele>390.43</ele>
        <time>2011-10-15T12:45:00Z</time>
      </trkpt>
      <trkpt lat="44.1949" lon="4.07395">
        <ele>389.95</ele>
        <time>2011-10-15T12:45:01Z</time>
      </trkpt>
      <trkpt lat="44.19492" lon="4.07395">
        <ele>390.43</ele>
        <time>2011-10-15T12:45:02Z</time>
      </trkpt>
      <trkpt lat="44.19494" lon="4.07395">
        <ele>389.95</ele>
        <time>2011-10-15T12:45:03Z</time>
      </trkpt>
      <trkpt lat="44.19495" lon="4.07396">
        <ele>390.43</ele>
        <time>2011-10-15T12:45:04Z</time>
      </trkpt>
      <trkpt lat="44.19497" lon="4.07398">
        <ele>391.39</ele>
        <time>2011-10-15T12:45:05Z</time>
      </trkpt>
      <trkpt lat="44.19498" lon="4.07401">
        <ele>390.91</ele>
        <time>2011-10-15T12:45:06Z</time>
      </trkpt>
      <trkpt lat="44.19499" lon="4.07404">
        <ele>391.39</ele>
        <time>2011-10-15T12:45:07Z</time>
      </trkpt>
      <trkpt lat="44.19499" lon="4.07407">
        <ele>391.39</ele>
        <time>2011-10-15T12:45:08Z</time>
      </trkpt>
      <trkpt lat="44.19499" lon="4.0741">
        <ele>391.39</ele>
        <time>2011-10-15T12:45:09Z</time>
      </trkpt>
      <trkpt lat="44.19497" lon="4.07412">
        <ele>390.91</ele>
        <time>2011-10-15T12:45:10Z</time>
      </trkpt>
      <trkpt lat="44.19496" lon="4.07415">
        <ele>391.39</ele>
        <time>2011-10-15T12:45:11Z</time>
      </trkpt>
      <trkpt lat="44.19496" lon="4.07418">
        <ele>391.39</ele>
        <time>2011-10-15T12:45:12Z</time>
      </trkpt>
      <trkpt lat="44.19485" lon="4.07463">
        <ele>391.87</ele>
        <time>2011-10-15T12:45:25Z</time>
      </trkpt>
      <trkpt lat="44.19474" lon="4.07518">
        <ele>392.36</ele>
        <time>2011-10-15T12:45:36Z</time>
      </trkpt>
      <trkpt lat="44.19467" lon="4.07534">
        <ele>390.91</ele>
        <time>2011-10-15T12:45:39Z</time>
      </trkpt>
      <trkpt lat="44.19464" lon="4.07542">
        <ele>390.43</ele>
        <time>2011-10-15T12:45:40Z</time>
      </trkpt>
      <trkpt lat="44.19463" lon="4.07549">
        <ele>390.43</ele>
        <time>2011-10-15T12:45:41Z</time>
      </trkpt>
      <trkpt lat="44.19463" lon="4.07557">
        <ele>389.47</ele>
        <time>2011-10-15T12:45:42Z</time>
      </trkpt>
      <trkpt lat="44.19464" lon="4.07564">
        <ele>389.95</ele>
        <time>2011-10-15T12:45:43Z</time>
      </trkpt>
      <trkpt lat="44.19464" lon="4.07571">
        <ele>389.95</ele>
        <time>2011-10-15T12:45:44Z</time>
      </trkpt>
      <trkpt lat="44.19465" lon="4.07576">
        <ele>389.95</ele>
        <time>2011-10-15T12:45:45Z</time>
      </trkpt>
      <trkpt lat="44.19467" lon="4.07581">
        <ele>389.95</ele>
        <time>2011-10-15T12:45:46Z</time>
      </trkpt>
      <trkpt lat="44.19467" lon="4.07585">
        <ele>389.47</ele>
        <time>2011-10-15T12:45:47Z</time>
      </trkpt>
      <trkpt lat="44.19467" lon="4.0759">
        <ele>389.47</ele>
        <time>2011-10-15T12:45:48Z</time>
      </trkpt>
      <trkpt lat="44.19477" lon="4.07627">
        <ele>388.03</ele>
        <time>2011-10-15T12:45:59Z</time>
      </trkpt>
      <trkpt lat="44.19498" lon="4.07641">
        <ele>388.03</ele>
        <time>2011-10-15T12:46:06Z</time>
      </trkpt>
      <trkpt lat="44.19502" lon="4.07643">
        <ele>387.55</ele>
        <time>2011-10-15T12:46:07Z</time>
      </trkpt>
      <trkpt lat="44.19506" lon="4.07644">
        <ele>387.07</ele>
        <time>2011-10-15T12:46:08Z</time>
      </trkpt>
      <trkpt lat="44.1954" lon="4.07652">
        <ele>388.51</ele>
        <time>2011-10-15T12:46:19Z</time>
      </trkpt>
      <trkpt lat="44.19575" lon="4.07658">
        <ele>389.47</ele>
        <time>2011-10-15T12:46:30Z</time>
      </trkpt>
      <trkpt lat="44.19602" lon="4.07665">
        <ele>389.95</ele>
        <time>2011-10-15T12:46:40Z</time>
      </trkpt>
      <trkpt lat="44.1961" lon="4.07669">
        <ele>390.43</ele>
        <time>2011-10-15T12:46:42Z</time>
      </trkpt>
      <trkpt lat="44.19614" lon="4.07671">
        <ele>391.39</ele>
        <time>2011-10-15T12:46:43Z</time>
      </trkpt>
      <trkpt lat="44.19618" lon="4.07674">
        <ele>390.91</ele>
        <time>2011-10-15T12:46:44Z</time>
      </trkpt>
      <trkpt lat="44.19623" lon="4.07678">
        <ele>391.39</ele>
        <time>2011-10-15T12:46:45Z</time>
      </trkpt>
      <trkpt lat="44.19627" lon="4.07681">
        <ele>391.87</ele>
        <time>2011-10-15T12:46:46Z</time>
      </trkpt>
      <trkpt lat="44.19632" lon="4.07685">
        <ele>391.39</ele>
        <time>2011-10-15T12:46:47Z</time>
      </trkpt>
      <trkpt lat="44.19636" lon="4.07689">
        <ele>391.39</ele>
        <time>2011-10-15T12:46:48Z</time>
      </trkpt>
      <trkpt lat="44.19658" lon="4.07709">
        <ele>391.39</ele>
        <time>2011-10-15T12:46:53Z</time>
      </trkpt>
      <trkpt lat="44.19662" lon="4.07711">
        <ele>390.91</ele>
        <time>2011-10-15T12:46:54Z</time>
      </trkpt>
      <trkpt lat="44.19666" lon="4.07714">
        <ele>391.87</ele>
        <time>2011-10-15T12:46:55Z</time>
      </trkpt>
      <trkpt lat="44.19709" lon="4.07759">
        <ele>389.95</ele>
        <time>2011-10-15T12:47:08Z</time>
      </trkpt>
      <trkpt lat="44.19739" lon="4.07802">
        <ele>390.91</ele>
        <time>2011-10-15T12:47:18Z</time>
      </trkpt>
      <trkpt lat="44.19758" lon="4.0784">
        <ele>389.47</ele>
        <time>2011-10-15T12:47:28Z</time>
      </trkpt>
      <trkpt lat="44.19773" lon="4.0785">
        <ele>392.84</ele>
        <time>2011-10-15T12:47:37Z</time>
      </trkpt>
      <trkpt lat="44.19779" lon="4.07852">
        <ele>393.32</ele>
        <time>2011-10-15T12:47:40Z</time>
      </trkpt>
      <trkpt lat="44.19781" lon="4.07852">
        <ele>393.8</ele>
        <time>2011-10-15T12:47:41Z</time>
      </trkpt>
      <trkpt lat="44.19783" lon="4.07853">
        <ele>393.32</ele>
        <time>2011-10-15T12:47:42Z</time>
      </trkpt>
      <trkpt lat="44.19785" lon="4.07852">
        <ele>392.84</ele>
        <time>2011-10-15T12:47:43Z</time>
      </trkpt>
      <trkpt lat="44.19787" lon="4.07852">
        <ele>393.32</ele>
        <time>2011-10-15T12:47:44Z</time>
      </trkpt>
      <trkpt lat="44.19788" lon="4.0785">
        <ele>394.28</ele>
        <time>2011-10-15T12:47:45Z</time>
      </trkpt>
      <trkpt lat="44.19789" lon="4.07847">
        <ele>394.28</ele>
        <time>2011-10-15T12:47:46Z</time>
      </trkpt>
      <trkpt lat="44.19791" lon="4.07844">
        <ele>394.28</ele>
        <time>2011-10-15T12:47:47Z</time>
      </trkpt>
      <trkpt lat="44.19793" lon="4.07842">
        <ele>394.76</ele>
        <time>2011-10-15T12:47:48Z</time>
      </trkpt>
      <trkpt lat="44.19794" lon="4.07839">
        <ele>394.28</ele>
        <time>2011-10-15T12:47:49Z</time>
      </trkpt>
      <trkpt lat="44.19795" lon="4.07836">
        <ele>395.24</ele>
        <time>2011-10-15T12:47:50Z</time>
      </trkpt>
      <trkpt lat="44.19796" lon="4.07833">
        <ele>395.72</ele>
        <time>2011-10-15T12:47:51Z</time>
      </trkpt>
      <trkpt lat="44.19797" lon="4.0783">
        <ele>395.72</ele>
        <time>2011-10-15T12:47:52Z</time>
      </trkpt>
      <trkpt lat="44.198" lon="4.07827">
        <ele>396.2</ele>
        <time>2011-10-15T12:47:53Z</time>
      </trkpt>
      <trkpt lat="44.19802" lon="4.07824">
        <ele>395.24</ele>
        <time>2011-10-15T12:47:54Z</time>
      </trkpt>
      <trkpt lat="44.19815" lon="4.07802">
        <ele>396.68</ele>
        <time>2011-10-15T12:48:01Z</time>
      </trkpt>
      <trkpt lat="44.19816" lon="4.078">
        <ele>396.2</ele>
        <time>2011-10-15T12:48:02Z</time>
      </trkpt>
      <trkpt lat="44.19817" lon="4.07798">
        <ele>396.2</ele>
        <time>2011-10-15T12:48:03Z</time>
      </trkpt>
      <trkpt lat="44.19819" lon="4.07796">
        <ele>395.72</ele>
        <time>2011-10-15T12:48:04Z</time>
      </trkpt>
      <trkpt lat="44.1982" lon="4.07793">
        <ele>394.76</ele>
        <time>2011-10-15T12:48:05Z</time>
      </trkpt>
      <trkpt lat="44.19822" lon="4.0779">
        <ele>395.72</ele>
        <time>2011-10-15T12:48:06Z</time>
      </trkpt>
      <trkpt lat="44.19824" lon="4.07786">
        <ele>394.76</ele>
        <time>2011-10-15T12:48:07Z</time>
      </trkpt>
      <trkpt lat="44.19825" lon="4.07782">
        <ele>394.76</ele>
        <time>2011-10-15T12:48:08Z</time>
      </trkpt>
      <trkpt lat="44.19841" lon="4.0774">
        <ele>394.28</ele>
        <time>2011-10-15T12:48:19Z</time>
      </trkpt>
      <trkpt lat="44.19843" lon="4.07739">
        <ele>394.28</ele>
        <time>2011-10-15T12:48:31Z</time>
      </trkpt>
      <trkpt lat="44.19844" lon="4.07738">
        <ele>393.8</ele>
        <time>2011-10-15T12:48:45Z</time>
      </trkpt>
      <trkpt lat="44.19846" lon="4.07737">
        <ele>393.32</ele>
        <time>2011-10-15T12:48:46Z</time>
      </trkpt>
      <trkpt lat="44.19848" lon="4.07734">
        <ele>392.36</ele>
        <time>2011-10-15T12:48:47Z</time>
      </trkpt>
      <trkpt lat="44.19851" lon="4.07732">
        <ele>392.36</ele>
        <time>2011-10-15T12:48:48Z</time>
      </trkpt>
      <trkpt lat="44.19854" lon="4.07731">
        <ele>391.39</ele>
        <time>2011-10-15T12:48:49Z</time>
      </trkpt>
      <trkpt lat="44.19857" lon="4.07728">
        <ele>390.43</ele>
        <time>2011-10-15T12:48:50Z</time>
      </trkpt>
      <trkpt lat="44.19859" lon="4.07725">
        <ele>390.91</ele>
        <time>2011-10-15T12:48:51Z</time>
      </trkpt>
      <trkpt lat="44.19862" lon="4.07722">
        <ele>390.91</ele>
        <time>2011-10-15T12:48:53Z</time>
      </trkpt>
      <trkpt lat="44.19864" lon="4.0772">
        <ele>389.95</ele>
        <time>2011-10-15T12:48:54Z</time>
      </trkpt>
      <trkpt lat="44.19866" lon="4.07717">
        <ele>389.95</ele>
        <time>2011-10-15T12:48:55Z</time>
      </trkpt>
      <trkpt lat="44.19868" lon="4.07716">
        <ele>388.99</ele>
        <time>2011-10-15T12:48:56Z</time>
      </trkpt>
      <trkpt lat="44.1987" lon="4.07714">
        <ele>388.99</ele>
        <time>2011-10-15T12:48:57Z</time>
      </trkpt>
      <trkpt lat="44.19872" lon="4.07712">
        <ele>388.03</ele>
        <time>2011-10-15T12:48:58Z</time>
      </trkpt>
      <trkpt lat="44.19884" lon="4.0769">
        <ele>387.55</ele>
        <time>2011-10-15T12:49:04Z</time>
      </trkpt>
      <trkpt lat="44.19886" lon="4.07688">
        <ele>387.55</ele>
        <time>2011-10-15T12:49:05Z</time>
      </trkpt>
      <trkpt lat="44.19888" lon="4.07685">
        <ele>387.07</ele>
        <time>2011-10-15T12:49:06Z</time>
      </trkpt>
      <trkpt lat="44.19889" lon="4.07681">
        <ele>387.55</ele>
        <time>2011-10-15T12:49:07Z</time>
      </trkpt>
      <trkpt lat="44.19891" lon="4.07679">
        <ele>388.51</ele>
        <time>2011-10-15T12:49:08Z</time>
      </trkpt>
      <trkpt lat="44.19892" lon="4.07677">
        <ele>387.55</ele>
        <time>2011-10-15T12:49:09Z</time>
      </trkpt>
      <trkpt lat="44.199" lon="4.07654">
        <ele>389.95</ele>
        <time>2011-10-15T12:49:17Z</time>
      </trkpt>
      <trkpt lat="44.19901" lon="4.0765">
        <ele>389.47</ele>
        <time>2011-10-15T12:49:18Z</time>
      </trkpt>
      <trkpt lat="44.19902" lon="4.07647">
        <ele>389.47</ele>
        <time>2011-10-15T12:49:19Z</time>
      </trkpt>
      <trkpt lat="44.19904" lon="4.07643">
        <ele>389.47</ele>
        <time>2011-10-15T12:49:20Z</time>
      </trkpt>
      <trkpt lat="44.19907" lon="4.0764">
        <ele>389.47</ele>
        <time>2011-10-15T12:49:21Z</time>
      </trkpt>
      <trkpt lat="44.19911" lon="4.07639">
        <ele>389.47</ele>
        <time>2011-10-15T12:49:22Z</time>
      </trkpt>
      <trkpt lat="44.19915" lon="4.07637">
        <ele>388.51</ele>
        <time>2011-10-15T12:49:23Z</time>
      </trkpt>
      <trkpt lat="44.1992" lon="4.07635">
        <ele>388.03</ele>
        <time>2011-10-15T12:49:24Z</time>
      </trkpt>
      <trkpt lat="44.19923" lon="4.07632">
        <ele>388.03</ele>
        <time>2011-10-15T12:49:25Z</time>
      </trkpt>
      <trkpt lat="44.19928" lon="4.0763">
        <ele>387.55</ele>
        <time>2011-10-15T12:49:26Z</time>
      </trkpt>
      <trkpt lat="44.19938" lon="4.07624">
        <ele>387.55</ele>
        <time>2011-10-15T12:49:29Z</time>
      </trkpt>
      <trkpt lat="44.19952" lon="4.07609">
        <ele>388.99</ele>
        <time>2011-10-15T12:49:35Z</time>
      </trkpt>
      <trkpt lat="44.1999" lon="4.07585">
        <ele>389.47</ele>
        <time>2011-10-15T12:49:46Z</time>
      </trkpt>
      <trkpt lat="44.20019" lon="4.0758">
        <ele>386.59</ele>
        <time>2011-10-15T12:49:54Z</time>
      </trkpt>
      <trkpt lat="44.20036" lon="4.07593">
        <ele>382.26</ele>
        <time>2011-10-15T12:50:00Z</time>
      </trkpt>
      <trkpt lat="44.20044" lon="4.07603">
        <ele>380.82</ele>
        <time>2011-10-15T12:50:03Z</time>
      </trkpt>
      <trkpt lat="44.20048" lon="4.07605">
        <ele>379.86</ele>
        <time>2011-10-15T12:50:05Z</time>
      </trkpt>
      <trkpt lat="44.20066" lon="4.07612">
        <ele>377.94</ele>
        <time>2011-10-15T12:50:11Z</time>
      </trkpt>
      <trkpt lat="44.20077" lon="4.07621">
        <ele>376.49</ele>
        <time>2011-10-15T12:50:16Z</time>
      </trkpt>
      <trkpt lat="44.20094" lon="4.07612">
        <ele>375.05</ele>
        <time>2011-10-15T12:50:23Z</time>
      </trkpt>
      <trkpt lat="44.20099" lon="4.07607">
        <ele>373.61</ele>
        <time>2011-10-15T12:50:27Z</time>
      </trkpt>
      <trkpt lat="44.20104" lon="4.07608">
        <ele>372.17</ele>
        <time>2011-10-15T12:50:30Z</time>
      </trkpt>
      <trkpt lat="44.20106" lon="4.07609">
        <ele>372.65</ele>
        <time>2011-10-15T12:50:31Z</time>
      </trkpt>
      <trkpt lat="44.20109" lon="4.07613">
        <ele>371.69</ele>
        <time>2011-10-15T12:50:48Z</time>
      </trkpt>
      <trkpt lat="44.2011" lon="4.07613">
        <ele>371.69</ele>
        <time>2011-10-15T12:50:58Z</time>
      </trkpt>
      <trkpt lat="44.2012" lon="4.07642">
        <ele>372.65</ele>
        <time>2011-10-15T12:51:09Z</time>
      </trkpt>
      <trkpt lat="44.2013" lon="4.07666">
        <ele>371.69</ele>
        <time>2011-10-15T12:51:17Z</time>
      </trkpt>
      <trkpt lat="44.20135" lon="4.07717">
        <ele>369.28</ele>
        <time>2011-10-15T12:51:28Z</time>
      </trkpt>
      <trkpt lat="44.20135" lon="4.07722">
        <ele>369.28</ele>
        <time>2011-10-15T12:51:29Z</time>
      </trkpt>
      <trkpt lat="44.20132" lon="4.07731">
        <ele>369.28</ele>
        <time>2011-10-15T12:51:31Z</time>
      </trkpt>
      <trkpt lat="44.20119" lon="4.0775">
        <ele>369.76</ele>
        <time>2011-10-15T12:51:39Z</time>
      </trkpt>
      <trkpt lat="44.20117" lon="4.07755">
        <ele>369.76</ele>
        <time>2011-10-15T12:51:41Z</time>
      </trkpt>
      <trkpt lat="44.20134" lon="4.07788">
        <ele>369.28</ele>
        <time>2011-10-15T12:51:50Z</time>
      </trkpt>
      <trkpt lat="44.20174" lon="4.0784">
        <ele>368.8</ele>
        <time>2011-10-15T12:52:04Z</time>
      </trkpt>
      <trkpt lat="44.20183" lon="4.07853">
        <ele>368.8</ele>
        <time>2011-10-15T12:52:07Z</time>
      </trkpt>
      <trkpt lat="44.20186" lon="4.07856">
        <ele>368.8</ele>
        <time>2011-10-15T12:52:08Z</time>
      </trkpt>
      <trkpt lat="44.2019" lon="4.0786">
        <ele>368.32</ele>
        <time>2011-10-15T12:52:09Z</time>
      </trkpt>
      <trkpt lat="44.20235" lon="4.07898">
        <ele>368.32</ele>
        <time>2011-10-15T12:52:21Z</time>
      </trkpt>
      <trkpt lat="44.20283" lon="4.07937">
        <ele>366.4</ele>
        <time>2011-10-15T12:52:34Z</time>
      </trkpt>
      <trkpt lat="44.20301" lon="4.07949">
        <ele>365.92</ele>
        <time>2011-10-15T12:52:38Z</time>
      </trkpt>
      <trkpt lat="44.20305" lon="4.0795">
        <ele>365.44</ele>
        <time>2011-10-15T12:52:39Z</time>
      </trkpt>
      <trkpt lat="44.2031" lon="4.07951">
        <ele>365.92</ele>
        <time>2011-10-15T12:52:40Z</time>
      </trkpt>
      <trkpt lat="44.20315" lon="4.07951">
        <ele>365.92</ele>
        <time>2011-10-15T12:52:41Z</time>
      </trkpt>
      <trkpt lat="44.20319" lon="4.0795">
        <ele>365.44</ele>
        <time>2011-10-15T12:52:42Z</time>
      </trkpt>
      <trkpt lat="44.20336" lon="4.07948">
        <ele>365.44</ele>
        <time>2011-10-15T12:52:46Z</time>
      </trkpt>
      <trkpt lat="44.20345" lon="4.07947">
        <ele>364.96</ele>
        <time>2011-10-15T12:52:48Z</time>
      </trkpt>
      <trkpt lat="44.2035" lon="4.07946">
        <ele>364.96</ele>
        <time>2011-10-15T12:52:49Z</time>
      </trkpt>
      <trkpt lat="44.20354" lon="4.07946">
        <ele>364.96</ele>
        <time>2011-10-15T12:52:50Z</time>
      </trkpt>
      <trkpt lat="44.20403" lon="4.07934">
        <ele>365.44</ele>
        <time>2011-10-15T12:53:03Z</time>
      </trkpt>
      <trkpt lat="44.2046" lon="4.07915">
        <ele>364.96</ele>
        <time>2011-10-15T12:53:19Z</time>
      </trkpt>
      <trkpt lat="44.20503" lon="4.07898">
        <ele>364.96</ele>
        <time>2011-10-15T12:53:31Z</time>
      </trkpt>
      <trkpt lat="44.20542" lon="4.07888">
        <ele>361.11</ele>
        <time>2011-10-15T12:53:41Z</time>
      </trkpt>
      <trkpt lat="44.20547" lon="4.07887">
        <ele>360.63</ele>
        <time>2011-10-15T12:53:53Z</time>
      </trkpt>
      <trkpt lat="44.20549" lon="4.07887">
        <ele>360.63</ele>
        <time>2011-10-15T12:54:09Z</time>
      </trkpt>
      <trkpt lat="44.20549" lon="4.07887">
        <ele>360.15</ele>
        <time>2011-10-15T12:54:36Z</time>
      </trkpt>
      <trkpt lat="44.20549" lon="4.07888">
        <ele>361.11</ele>
        <time>2011-10-15T12:55:00Z</time>
      </trkpt>
      <trkpt lat="44.20548" lon="4.07888">
        <ele>361.11</ele>
        <time>2011-10-15T12:55:28Z</time>
      </trkpt>
      <trkpt lat="44.20549" lon="4.07888">
        <ele>361.59</ele>
        <time>2011-10-15T12:55:48Z</time>
      </trkpt>
      <trkpt lat="44.20559" lon="4.07884">
        <ele>361.11</ele>
        <time>2011-10-15T12:56:04Z</time>
      </trkpt>
      <trkpt lat="44.2056" lon="4.07884">
        <ele>361.11</ele>
        <time>2011-10-15T12:56:05Z</time>
      </trkpt>
      <trkpt lat="44.20562" lon="4.07885">
        <ele>361.59</ele>
        <time>2011-10-15T12:56:06Z</time>
      </trkpt>
      <trkpt lat="44.20564" lon="4.07885">
        <ele>361.11</ele>
        <time>2011-10-15T12:56:07Z</time>
      </trkpt>
      <trkpt lat="44.20566" lon="4.07884">
        <ele>361.11</ele>
        <time>2011-10-15T12:56:08Z</time>
      </trkpt>
      <trkpt lat="44.20567" lon="4.07883">
        <ele>361.59</ele>
        <time>2011-10-15T12:56:09Z</time>
      </trkpt>
      <trkpt lat="44.2057" lon="4.07882">
        <ele>361.11</ele>
        <time>2011-10-15T12:56:10Z</time>
      </trkpt>
      <trkpt lat="44.20572" lon="4.07881">
        <ele>360.63</ele>
        <time>2011-10-15T12:56:11Z</time>
      </trkpt>
      <trkpt lat="44.20575" lon="4.0788">
        <ele>360.63</ele>
        <time>2011-10-15T12:56:12Z</time>
      </trkpt>
      <trkpt lat="44.20579" lon="4.07879">
        <ele>360.63</ele>
        <time>2011-10-15T12:56:13Z</time>
      </trkpt>
      <trkpt lat="44.20583" lon="4.07877">
        <ele>360.15</ele>
        <time>2011-10-15T12:56:14Z</time>
      </trkpt>
      <trkpt lat="44.20587" lon="4.07874">
        <ele>359.67</ele>
        <time>2011-10-15T12:56:15Z</time>
      </trkpt>
      <trkpt lat="44.2064" lon="4.07845">
        <ele>358.23</ele>
        <time>2011-10-15T12:56:24Z</time>
      </trkpt>
      <trkpt lat="44.2066" lon="4.07841">
        <ele>356.79</ele>
        <time>2011-10-15T12:56:27Z</time>
      </trkpt>
      <trkpt lat="44.20704" lon="4.07834">
        <ele>353.9</ele>
        <time>2011-10-15T12:56:34Z</time>
      </trkpt>
      <trkpt lat="44.20718" lon="4.07831">
        <ele>353.42</ele>
        <time>2011-10-15T12:56:36Z</time>
      </trkpt>
      <trkpt lat="44.20726" lon="4.07829">
        <ele>352.94</ele>
        <time>2011-10-15T12:56:37Z</time>
      </trkpt>
      <trkpt lat="44.2082" lon="4.07831">
        <ele>350.06</ele>
        <time>2011-10-15T12:56:49Z</time>
      </trkpt>
      <trkpt lat="44.20894" lon="4.07827">
        <ele>347.17</ele>
        <time>2011-10-15T12:56:58Z</time>
      </trkpt>
      <trkpt lat="44.209" lon="4.07828">
        <ele>347.17</ele>
        <time>2011-10-15T12:56:59Z</time>
      </trkpt>
      <trkpt lat="44.20907" lon="4.07829">
        <ele>347.17</ele>
        <time>2011-10-15T12:57:00Z</time>
      </trkpt>
      <trkpt lat="44.20914" lon="4.07829">
        <ele>347.17</ele>
        <time>2011-10-15T12:57:01Z</time>
      </trkpt>
      <trkpt lat="44.2092" lon="4.07827">
        <ele>347.17</ele>
        <time>2011-10-15T12:57:02Z</time>
      </trkpt>
      <trkpt lat="44.20925" lon="4.07825">
        <ele>347.17</ele>
        <time>2011-10-15T12:57:03Z</time>
      </trkpt>
      <trkpt lat="44.2093" lon="4.07822">
        <ele>347.17</ele>
        <time>2011-10-15T12:57:04Z</time>
      </trkpt>
      <trkpt lat="44.20939" lon="4.07814">
        <ele>346.69</ele>
        <time>2011-10-15T12:57:06Z</time>
      </trkpt>
      <trkpt lat="44.20941" lon="4.07809">
        <ele>346.21</ele>
        <time>2011-10-15T12:57:07Z</time>
      </trkpt>
      <trkpt lat="44.20942" lon="4.07802">
        <ele>345.25</ele>
        <time>2011-10-15T12:57:08Z</time>
      </trkpt>
      <trkpt lat="44.20942" lon="4.07795">
        <ele>345.25</ele>
        <time>2011-10-15T12:57:09Z</time>
      </trkpt>
      <trkpt lat="44.20942" lon="4.07788">
        <ele>345.73</ele>
        <time>2011-10-15T12:57:10Z</time>
      </trkpt>
      <trkpt lat="44.20945" lon="4.07708">
        <ele>346.21</ele>
        <time>2011-10-15T12:57:21Z</time>
      </trkpt>
      <trkpt lat="44.20946" lon="4.07702">
        <ele>345.25</ele>
        <time>2011-10-15T12:57:22Z</time>
      </trkpt>
      <trkpt lat="44.20948" lon="4.07697">
        <ele>346.21</ele>
        <time>2011-10-15T12:57:23Z</time>
      </trkpt>
      <trkpt lat="44.2095" lon="4.07693">
        <ele>346.21</ele>
        <time>2011-10-15T12:57:24Z</time>
      </trkpt>
      <trkpt lat="44.20953" lon="4.07689">
        <ele>346.69</ele>
        <time>2011-10-15T12:57:25Z</time>
      </trkpt>
      <trkpt lat="44.20957" lon="4.07687">
        <ele>347.17</ele>
        <time>2011-10-15T12:57:26Z</time>
      </trkpt>
      <trkpt lat="44.20961" lon="4.07684">
        <ele>347.17</ele>
        <time>2011-10-15T12:57:27Z</time>
      </trkpt>
      <trkpt lat="44.20965" lon="4.07682">
        <ele>347.65</ele>
        <time>2011-10-15T12:57:28Z</time>
      </trkpt>
      <trkpt lat="44.20994" lon="4.07674">
        <ele>349.1</ele>
        <time>2011-10-15T12:57:38Z</time>
      </trkpt>
      <trkpt lat="44.21023" lon="4.07667">
        <ele>350.54</ele>
        <time>2011-10-15T12:57:48Z</time>
      </trkpt>
      <trkpt lat="44.2105" lon="4.07681">
        <ele>351.5</ele>
        <time>2011-10-15T12:57:56Z</time>
      </trkpt>
      <trkpt lat="44.21072" lon="4.0772">
        <ele>351.98</ele>
        <time>2011-10-15T12:58:06Z</time>
      </trkpt>
      <trkpt lat="44.21085" lon="4.0776">
        <ele>354.38</ele>
        <time>2011-10-15T12:58:17Z</time>
      </trkpt>
      <trkpt lat="44.21098" lon="4.07771">
        <ele>355.83</ele>
        <time>2011-10-15T12:58:22Z</time>
      </trkpt>
      <trkpt lat="44.21104" lon="4.07776">
        <ele>356.79</ele>
        <time>2011-10-15T12:58:25Z</time>
      </trkpt>
      <trkpt lat="44.21106" lon="4.07775">
        <ele>356.79</ele>
        <time>2011-10-15T12:58:26Z</time>
      </trkpt>
      <trkpt lat="44.21107" lon="4.07775">
        <ele>356.31</ele>
        <time>2011-10-15T12:58:27Z</time>
      </trkpt>
      <trkpt lat="44.2111" lon="4.07775">
        <ele>356.79</ele>
        <time>2011-10-15T12:58:28Z</time>
      </trkpt>
      <trkpt lat="44.21112" lon="4.07775">
        <ele>357.27</ele>
        <time>2011-10-15T12:58:29Z</time>
      </trkpt>
      <trkpt lat="44.21114" lon="4.07775">
        <ele>357.75</ele>
        <time>2011-10-15T12:58:30Z</time>
      </trkpt>
      <trkpt lat="44.21119" lon="4.07773">
        <ele>357.75</ele>
        <time>2011-10-15T12:58:32Z</time>
      </trkpt>
      <trkpt lat="44.21122" lon="4.07773">
        <ele>358.23</ele>
        <time>2011-10-15T12:58:33Z</time>
      </trkpt>
      <trkpt lat="44.21123" lon="4.07771">
        <ele>358.23</ele>
        <time>2011-10-15T12:58:34Z</time>
      </trkpt>
      <trkpt lat="44.21125" lon="4.07769">
        <ele>358.23</ele>
        <time>2011-10-15T12:58:35Z</time>
      </trkpt>
      <trkpt lat="44.21126" lon="4.07767">
        <ele>358.71</ele>
        <time>2011-10-15T12:58:36Z</time>
      </trkpt>
      <trkpt lat="44.21127" lon="4.07764">
        <ele>359.19</ele>
        <time>2011-10-15T12:58:37Z</time>
      </trkpt>
      <trkpt lat="44.21135" lon="4.0775">
        <ele>360.15</ele>
        <time>2011-10-15T12:58:42Z</time>
      </trkpt>
      <trkpt lat="44.2114" lon="4.07749">
        <ele>361.11</ele>
        <time>2011-10-15T12:58:44Z</time>
      </trkpt>
      <trkpt lat="44.21157" lon="4.07766">
        <ele>362.55</ele>
        <time>2011-10-15T12:58:53Z</time>
      </trkpt>
      <trkpt lat="44.21158" lon="4.0777">
        <ele>362.55</ele>
        <time>2011-10-15T12:58:54Z</time>
      </trkpt>
      <trkpt lat="44.21171" lon="4.07794">
        <ele>365.92</ele>
        <time>2011-10-15T12:59:04Z</time>
      </trkpt>
      <trkpt lat="44.21175" lon="4.07798">
        <ele>366.88</ele>
        <time>2011-10-15T12:59:06Z</time>
      </trkpt>
      <trkpt lat="44.21193" lon="4.0782">
        <ele>369.76</ele>
        <time>2011-10-15T12:59:17Z</time>
      </trkpt>
      <trkpt lat="44.21194" lon="4.07821">
        <ele>370.24</ele>
        <time>2011-10-15T12:59:18Z</time>
      </trkpt>
      <trkpt lat="44.21195" lon="4.07822">
        <ele>370.24</ele>
        <time>2011-10-15T12:59:19Z</time>
      </trkpt>
      <trkpt lat="44.21196" lon="4.07824">
        <ele>370.24</ele>
        <time>2011-10-15T12:59:20Z</time>
      </trkpt>
      <trkpt lat="44.21196" lon="4.07826">
        <ele>370.24</ele>
        <time>2011-10-15T12:59:21Z</time>
      </trkpt>
      <trkpt lat="44.21197" lon="4.07827">
        <ele>370.73</ele>
        <time>2011-10-15T12:59:22Z</time>
      </trkpt>
      <trkpt lat="44.21198" lon="4.07829">
        <ele>370.73</ele>
        <time>2011-10-15T12:59:23Z</time>
      </trkpt>
      <trkpt lat="44.21199" lon="4.0783">
        <ele>370.24</ele>
        <time>2011-10-15T12:59:24Z</time>
      </trkpt>
      <trkpt lat="44.21206" lon="4.07845">
        <ele>370.73</ele>
        <time>2011-10-15T12:59:35Z</time>
      </trkpt>
      <trkpt lat="44.21206" lon="4.07845">
        <ele>370.73</ele>
        <time>2011-10-15T12:59:56Z</time>
      </trkpt>
      <trkpt lat="44.21208" lon="4.07848">
        <ele>371.21</ele>
        <time>2011-10-15T13:00:08Z</time>
      </trkpt>
      <trkpt lat="44.21209" lon="4.07851">
        <ele>370.73</ele>
        <time>2011-10-15T13:00:09Z</time>
      </trkpt>
      <trkpt lat="44.21211" lon="4.07854">
        <ele>370.73</ele>
        <time>2011-10-15T13:00:10Z</time>
      </trkpt>
      <trkpt lat="44.21228" lon="4.07882">
        <ele>369.28</ele>
        <time>2011-10-15T13:00:16Z</time>
      </trkpt>
      <trkpt lat="44.21245" lon="4.079">
        <ele>368.8</ele>
        <time>2011-10-15T13:00:20Z</time>
      </trkpt>
      <trkpt lat="44.21248" lon="4.07905">
        <ele>369.28</ele>
        <time>2011-10-15T13:00:21Z</time>
      </trkpt>
      <trkpt lat="44.21264" lon="4.0793">
        <ele>370.73</ele>
        <time>2011-10-15T13:00:26Z</time>
      </trkpt>
      <trkpt lat="44.21267" lon="4.07934">
        <ele>371.21</ele>
        <time>2011-10-15T13:00:27Z</time>
      </trkpt>
      <trkpt lat="44.2127" lon="4.07937">
        <ele>371.21</ele>
        <time>2011-10-15T13:00:28Z</time>
      </trkpt>
      <trkpt lat="44.21273" lon="4.07938">
        <ele>371.21</ele>
        <time>2011-10-15T13:00:29Z</time>
      </trkpt>
      <trkpt lat="44.21276" lon="4.07939">
        <ele>372.17</ele>
        <time>2011-10-15T13:00:30Z</time>
      </trkpt>
      <trkpt lat="44.21278" lon="4.0794">
        <ele>372.17</ele>
        <time>2011-10-15T13:00:31Z</time>
      </trkpt>
      <trkpt lat="44.21281" lon="4.07941">
        <ele>372.65</ele>
        <time>2011-10-15T13:00:32Z</time>
      </trkpt>
      <trkpt lat="44.21283" lon="4.07941">
        <ele>373.61</ele>
        <time>2011-10-15T13:00:33Z</time>
      </trkpt>
      <trkpt lat="44.21296" lon="4.07938">
        <ele>375.53</ele>
        <time>2011-10-15T13:00:40Z</time>
      </trkpt>
      <trkpt lat="44.21316" lon="4.07936">
        <ele>377.94</ele>
        <time>2011-10-15T13:00:51Z</time>
      </trkpt>
      <trkpt lat="44.21335" lon="4.07944">
        <ele>380.34</ele>
        <time>2011-10-15T13:01:03Z</time>
      </trkpt>
      <trkpt lat="44.21349" lon="4.07964">
        <ele>383.7</ele>
        <time>2011-10-15T13:01:16Z</time>
      </trkpt>
      <trkpt lat="44.21346" lon="4.07988">
        <ele>386.11</ele>
        <time>2011-10-15T13:01:29Z</time>
      </trkpt>
      <trkpt lat="44.21346" lon="4.07992">
        <ele>385.63</ele>
        <time>2011-10-15T13:01:31Z</time>
      </trkpt>
      <trkpt lat="44.21346" lon="4.07994">
        <ele>385.63</ele>
        <time>2011-10-15T13:01:32Z</time>
      </trkpt>
      <trkpt lat="44.21349" lon="4.08">
        <ele>386.59</ele>
        <time>2011-10-15T13:01:44Z</time>
      </trkpt>
      <trkpt lat="44.21349" lon="4.08">
        <ele>386.59</ele>
        <time>2011-10-15T13:02:13Z</time>
      </trkpt>
      <trkpt lat="44.21349" lon="4.08">
        <ele>386.11</ele>
        <time>2011-10-15T13:02:43Z</time>
      </trkpt>
      <trkpt lat="44.21349" lon="4.08">
        <ele>386.59</ele>
        <time>2011-10-15T13:03:15Z</time>
      </trkpt>
      <trkpt lat="44.21349" lon="4.08">
        <ele>386.59</ele>
        <time>2011-10-15T13:03:46Z</time>
      </trkpt>
      <trkpt lat="44.21349" lon="4.08004">
        <ele>387.07</ele>
        <time>2011-10-15T13:04:11Z</time>
      </trkpt>
      <trkpt lat="44.2135" lon="4.08011">
        <ele>387.07</ele>
        <time>2011-10-15T13:04:14Z</time>
      </trkpt>
      <trkpt lat="44.21351" lon="4.08013">
        <ele>386.59</ele>
        <time>2011-10-15T13:04:15Z</time>
      </trkpt>
      <trkpt lat="44.21352" lon="4.08015">
        <ele>387.07</ele>
        <time>2011-10-15T13:04:16Z</time>
      </trkpt>
      <trkpt lat="44.21352" lon="4.08018">
        <ele>387.07</ele>
        <time>2011-10-15T13:04:17Z</time>
      </trkpt>
      <trkpt lat="44.21353" lon="4.08021">
        <ele>386.59</ele>
        <time>2011-10-15T13:04:18Z</time>
      </trkpt>
      <trkpt lat="44.21354" lon="4.08024">
        <ele>387.55</ele>
        <time>2011-10-15T13:04:19Z</time>
      </trkpt>
      <trkpt lat="44.21354" lon="4.08071">
        <ele>388.51</ele>
        <time>2011-10-15T13:04:33Z</time>
      </trkpt>
      <trkpt lat="44.21351" lon="4.08078">
        <ele>390.43</ele>
        <time>2011-10-15T13:04:36Z</time>
      </trkpt>
      <trkpt lat="44.2135" lon="4.08079">
        <ele>390.43</ele>
        <time>2011-10-15T13:04:37Z</time>
      </trkpt>
      <trkpt lat="44.21349" lon="4.08081">
        <ele>390.91</ele>
        <time>2011-10-15T13:04:38Z</time>
      </trkpt>
      <trkpt lat="44.21349" lon="4.08084">
        <ele>391.39</ele>
        <time>2011-10-15T13:04:39Z</time>
      </trkpt>
      <trkpt lat="44.21348" lon="4.08086">
        <ele>390.91</ele>
        <time>2011-10-15T13:04:40Z</time>
      </trkpt>
      <trkpt lat="44.21348" lon="4.08089">
        <ele>391.39</ele>
        <time>2011-10-15T13:04:41Z</time>
      </trkpt>
      <trkpt lat="44.21348" lon="4.08091">
        <ele>391.87</ele>
        <time>2011-10-15T13:04:42Z</time>
      </trkpt>
      <trkpt lat="44.2135" lon="4.08112">
        <ele>394.28</ele>
        <time>2011-10-15T13:04:49Z</time>
      </trkpt>
      <trkpt lat="44.2135" lon="4.08114">
        <ele>393.8</ele>
        <time>2011-10-15T13:04:50Z</time>
      </trkpt>
      <trkpt lat="44.21351" lon="4.08116">
        <ele>394.76</ele>
        <time>2011-10-15T13:04:51Z</time>
      </trkpt>
      <trkpt lat="44.21353" lon="4.08119">
        <ele>394.76</ele>
        <time>2011-10-15T13:04:52Z</time>
      </trkpt>
      <trkpt lat="44.21355" lon="4.08121">
        <ele>395.24</ele>
        <time>2011-10-15T13:04:53Z</time>
      </trkpt>
      <trkpt lat="44.21357" lon="4.08122">
        <ele>394.76</ele>
        <time>2011-10-15T13:04:54Z</time>
      </trkpt>
      <trkpt lat="44.21359" lon="4.08123">
        <ele>395.24</ele>
        <time>2011-10-15T13:04:55Z</time>
      </trkpt>
      <trkpt lat="44.21361" lon="4.08123">
        <ele>395.24</ele>
        <time>2011-10-15T13:04:56Z</time>
      </trkpt>
      <trkpt lat="44.21363" lon="4.08124">
        <ele>395.24</ele>
        <time>2011-10-15T13:04:57Z</time>
      </trkpt>
      <trkpt lat="44.21366" lon="4.08123">
        <ele>395.24</ele>
        <time>2011-10-15T13:04:58Z</time>
      </trkpt>
      <trkpt lat="44.21368" lon="4.08122">
        <ele>395.24</ele>
        <time>2011-10-15T13:04:59Z</time>
      </trkpt>
      <trkpt lat="44.21392" lon="4.0811">
        <ele>397.16</ele>
        <time>2011-10-15T13:05:10Z</time>
      </trkpt>
      <trkpt lat="44.21414" lon="4.08105">
        <ele>398.6</ele>
        <time>2011-10-15T13:05:20Z</time>
      </trkpt>
      <trkpt lat="44.21437" lon="4.08085">
        <ele>400.53</ele>
        <time>2011-10-15T13:05:32Z</time>
      </trkpt>
      <trkpt lat="44.21465" lon="4.0807">
        <ele>403.41</ele>
        <time>2011-10-15T13:05:45Z</time>
      </trkpt>
      <trkpt lat="44.21481" lon="4.08063">
        <ele>405.81</ele>
        <time>2011-10-15T13:05:54Z</time>
      </trkpt>
      <trkpt lat="44.21485" lon="4.08063">
        <ele>407.26</ele>
        <time>2011-10-15T13:05:57Z</time>
      </trkpt>
      <trkpt lat="44.21487" lon="4.08062">
        <ele>406.77</ele>
        <time>2011-10-15T13:05:58Z</time>
      </trkpt>
      <trkpt lat="44.21489" lon="4.08062">
        <ele>407.26</ele>
        <time>2011-10-15T13:05:59Z</time>
      </trkpt>
      <trkpt lat="44.21517" lon="4.08057">
        <ele>410.14</ele>
        <time>2011-10-15T13:06:12Z</time>
      </trkpt>
      <trkpt lat="44.21529" lon="4.08062">
        <ele>412.06</ele>
        <time>2011-10-15T13:06:17Z</time>
      </trkpt>
      <trkpt lat="44.21556" lon="4.08069">
        <ele>415.43</ele>
        <time>2011-10-15T13:06:29Z</time>
      </trkpt>
      <trkpt lat="44.2158" lon="4.08079">
        <ele>416.39</ele>
        <time>2011-10-15T13:06:44Z</time>
      </trkpt>
      <trkpt lat="44.21588" lon="4.08082">
        <ele>417.35</ele>
        <time>2011-10-15T13:06:51Z</time>
      </trkpt>
      <trkpt lat="44.21589" lon="4.08083">
        <ele>417.35</ele>
        <time>2011-10-15T13:06:52Z</time>
      </trkpt>
      <trkpt lat="44.21589" lon="4.08086">
        <ele>416.87</ele>
        <time>2011-10-15T13:06:54Z</time>
      </trkpt>
      <trkpt lat="44.21588" lon="4.08088">
        <ele>416.87</ele>
        <time>2011-10-15T13:06:55Z</time>
      </trkpt>
      <trkpt lat="44.21587" lon="4.08089">
        <ele>416.39</ele>
        <time>2011-10-15T13:06:56Z</time>
      </trkpt>
      <trkpt lat="44.21586" lon="4.08089">
        <ele>416.87</ele>
        <time>2011-10-15T13:06:57Z</time>
      </trkpt>
      <trkpt lat="44.21585" lon="4.08088">
        <ele>416.87</ele>
        <time>2011-10-15T13:06:58Z</time>
      </trkpt>
      <trkpt lat="44.21584" lon="4.08087">
        <ele>417.35</ele>
        <time>2011-10-15T13:06:59Z</time>
      </trkpt>
      <trkpt lat="44.21584" lon="4.08085">
        <ele>416.87</ele>
        <time>2011-10-15T13:07:00Z</time>
      </trkpt>
      <trkpt lat="44.21584" lon="4.08083">
        <ele>416.39</ele>
        <time>2011-10-15T13:07:01Z</time>
      </trkpt>
      <trkpt lat="44.21585" lon="4.0808">
        <ele>416.39</ele>
        <time>2011-10-15T13:07:04Z</time>
      </trkpt>
      <trkpt lat="44.21587" lon="4.08091">
        <ele>416.39</ele>
        <time>2011-10-15T13:07:14Z</time>
      </trkpt>
      <trkpt lat="44.21586" lon="4.08092">
        <ele>416.39</ele>
        <time>2011-10-15T13:07:15Z</time>
      </trkpt>
      <trkpt lat="44.21585" lon="4.08089">
        <ele>416.39</ele>
        <time>2011-10-15T13:07:18Z</time>
      </trkpt>
      <trkpt lat="44.21585" lon="4.08087">
        <ele>416.87</ele>
        <time>2011-10-15T13:07:19Z</time>
      </trkpt>
      <trkpt lat="44.21585" lon="4.08086">
        <ele>415.91</ele>
        <time>2011-10-15T13:07:20Z</time>
      </trkpt>
      <trkpt lat="44.21585" lon="4.08085">
        <ele>416.39</ele>
        <time>2011-10-15T13:07:21Z</time>
      </trkpt>
      <trkpt lat="44.21586" lon="4.08084">
        <ele>416.39</ele>
        <time>2011-10-15T13:07:22Z</time>
      </trkpt>
      <trkpt lat="44.21588" lon="4.08084">
        <ele>416.39</ele>
        <time>2011-10-15T13:07:23Z</time>
      </trkpt>
      <trkpt lat="44.21588" lon="4.08084">
        <ele>416.87</ele>
        <time>2011-10-15T13:07:24Z</time>
      </trkpt>
      <trkpt lat="44.21589" lon="4.08085">
        <ele>415.91</ele>
        <time>2011-10-15T13:07:25Z</time>
      </trkpt>
      <trkpt lat="44.2159" lon="4.08087">
        <ele>416.39</ele>
        <time>2011-10-15T13:07:26Z</time>
      </trkpt>
      <trkpt lat="44.2159" lon="4.08089">
        <ele>416.87</ele>
        <time>2011-10-15T13:07:27Z</time>
      </trkpt>
      <trkpt lat="44.2159" lon="4.0809">
        <ele>417.35</ele>
        <time>2011-10-15T13:07:28Z</time>
      </trkpt>
      <trkpt lat="44.21586" lon="4.08122">
        <ele>418.31</ele>
        <time>2011-10-15T13:07:39Z</time>
      </trkpt>
      <trkpt lat="44.21582" lon="4.08144">
        <ele>419.75</ele>
        <time>2011-10-15T13:07:47Z</time>
      </trkpt>
      <trkpt lat="44.21581" lon="4.08149">
        <ele>420.23</ele>
        <time>2011-10-15T13:07:49Z</time>
      </trkpt>
      <trkpt lat="44.2158" lon="4.08151">
        <ele>419.75</ele>
        <time>2011-10-15T13:07:50Z</time>
      </trkpt>
      <trkpt lat="44.21579" lon="4.08153">
        <ele>420.23</ele>
        <time>2011-10-15T13:07:51Z</time>
      </trkpt>
      <trkpt lat="44.21578" lon="4.08155">
        <ele>420.71</ele>
        <time>2011-10-15T13:07:52Z</time>
      </trkpt>
      <trkpt lat="44.21577" lon="4.08157">
        <ele>420.71</ele>
        <time>2011-10-15T13:07:53Z</time>
      </trkpt>
      <trkpt lat="44.21577" lon="4.08159">
        <ele>420.71</ele>
        <time>2011-10-15T13:07:54Z</time>
      </trkpt>
      <trkpt lat="44.21577" lon="4.08161">
        <ele>420.71</ele>
        <time>2011-10-15T13:07:55Z</time>
      </trkpt>
      <trkpt lat="44.21575" lon="4.08166">
        <ele>421.68</ele>
        <time>2011-10-15T13:07:57Z</time>
      </trkpt>
      <trkpt lat="44.21566" lon="4.08195">
        <ele>422.64</ele>
        <time>2011-10-15T13:08:10Z</time>
      </trkpt>
      <trkpt lat="44.21562" lon="4.08205">
        <ele>423.6</ele>
        <time>2011-10-15T13:08:14Z</time>
      </trkpt>
      <trkpt lat="44.21561" lon="4.08208">
        <ele>424.08</ele>
        <time>2011-10-15T13:08:15Z</time>
      </trkpt>
      <trkpt lat="44.2156" lon="4.0821">
        <ele>424.08</ele>
        <time>2011-10-15T13:08:16Z</time>
      </trkpt>
      <trkpt lat="44.21558" lon="4.08213">
        <ele>424.56</ele>
        <time>2011-10-15T13:08:17Z</time>
      </trkpt>
      <trkpt lat="44.21557" lon="4.08216">
        <ele>424.56</ele>
        <time>2011-10-15T13:08:18Z</time>
      </trkpt>
      <trkpt lat="44.21555" lon="4.08218">
        <ele>425.04</ele>
        <time>2011-10-15T13:08:19Z</time>
      </trkpt>
      <trkpt lat="44.21554" lon="4.08221">
        <ele>425.04</ele>
        <time>2011-10-15T13:08:20Z</time>
      </trkpt>
      <trkpt lat="44.21553" lon="4.08224">
        <ele>425.52</ele>
        <time>2011-10-15T13:08:21Z</time>
      </trkpt>
      <trkpt lat="44.21553" lon="4.08226">
        <ele>425.52</ele>
        <time>2011-10-15T13:08:22Z</time>
      </trkpt>
      <trkpt lat="44.21552" lon="4.08229">
        <ele>425.52</ele>
        <time>2011-10-15T13:08:23Z</time>
      </trkpt>
      <trkpt lat="44.21552" lon="4.08232">
        <ele>425.52</ele>
        <time>2011-10-15T13:08:24Z</time>
      </trkpt>
      <trkpt lat="44.21552" lon="4.08235">
        <ele>425.52</ele>
        <time>2011-10-15T13:08:25Z</time>
      </trkpt>
      <trkpt lat="44.21551" lon="4.08237">
        <ele>426</ele>
        <time>2011-10-15T13:08:26Z</time>
      </trkpt>
      <trkpt lat="44.2155" lon="4.0824">
        <ele>425.52</ele>
        <time>2011-10-15T13:08:27Z</time>
      </trkpt>
      <trkpt lat="44.2155" lon="4.08248">
        <ele>426</ele>
        <time>2011-10-15T13:08:30Z</time>
      </trkpt>
      <trkpt lat="44.2155" lon="4.08251">
        <ele>426</ele>
        <time>2011-10-15T13:08:31Z</time>
      </trkpt>
      <trkpt lat="44.21557" lon="4.08278">
        <ele>427.92</ele>
        <time>2011-10-15T13:08:42Z</time>
      </trkpt>
      <trkpt lat="44.21559" lon="4.08283">
        <ele>427.92</ele>
        <time>2011-10-15T13:08:45Z</time>
      </trkpt>
      <trkpt lat="44.21558" lon="4.08285">
        <ele>427.92</ele>
        <time>2011-10-15T13:08:58Z</time>
      </trkpt>
      <trkpt lat="44.21558" lon="4.08285">
        <ele>428.89</ele>
        <time>2011-10-15T13:09:25Z</time>
      </trkpt>
      <trkpt lat="44.21557" lon="4.08288">
        <ele>428.4</ele>
        <time>2011-10-15T13:09:27Z</time>
      </trkpt>
      <trkpt lat="44.21557" lon="4.08291">
        <ele>428.89</ele>
        <time>2011-10-15T13:09:28Z</time>
      </trkpt>
      <trkpt lat="44.21557" lon="4.08293">
        <ele>428.4</ele>
        <time>2011-10-15T13:09:29Z</time>
      </trkpt>
      <trkpt lat="44.21558" lon="4.08312">
        <ele>430.81</ele>
        <time>2011-10-15T13:09:37Z</time>
      </trkpt>
      <trkpt lat="44.21557" lon="4.08318">
        <ele>430.81</ele>
        <time>2011-10-15T13:09:40Z</time>
      </trkpt>
      <trkpt lat="44.21557" lon="4.0832">
        <ele>430.81</ele>
        <time>2011-10-15T13:09:41Z</time>
      </trkpt>
      <trkpt lat="44.21558" lon="4.08325">
        <ele>431.77</ele>
        <time>2011-10-15T13:09:44Z</time>
      </trkpt>
      <trkpt lat="44.21558" lon="4.08328">
        <ele>432.25</ele>
        <time>2011-10-15T13:09:45Z</time>
      </trkpt>
      <trkpt lat="44.21558" lon="4.0833">
        <ele>431.77</ele>
        <time>2011-10-15T13:09:46Z</time>
      </trkpt>
      <trkpt lat="44.21556" lon="4.08357">
        <ele>434.17</ele>
        <time>2011-10-15T13:09:57Z</time>
      </trkpt>
      <trkpt lat="44.21558" lon="4.08383">
        <ele>436.58</ele>
        <time>2011-10-15T13:10:09Z</time>
      </trkpt>
      <trkpt lat="44.21558" lon="4.08391">
        <ele>437.54</ele>
        <time>2011-10-15T13:10:13Z</time>
      </trkpt>
      <trkpt lat="44.21558" lon="4.08393">
        <ele>437.54</ele>
        <time>2011-10-15T13:10:14Z</time>
      </trkpt>
      <trkpt lat="44.21559" lon="4.08405">
        <ele>438.5</ele>
        <time>2011-10-15T13:10:20Z</time>
      </trkpt>
      <trkpt lat="44.21558" lon="4.08407">
        <ele>438.98</ele>
        <time>2011-10-15T13:10:21Z</time>
      </trkpt>
      <trkpt lat="44.21558" lon="4.08409">
        <ele>438.5</ele>
        <time>2011-10-15T13:10:22Z</time>
      </trkpt>
      <trkpt lat="44.21557" lon="4.08411">
        <ele>438.5</ele>
        <time>2011-10-15T13:10:23Z</time>
      </trkpt>
      <trkpt lat="44.21557" lon="4.08413">
        <ele>438.5</ele>
        <time>2011-10-15T13:10:24Z</time>
      </trkpt>
      <trkpt lat="44.21558" lon="4.08415">
        <ele>439.46</ele>
        <time>2011-10-15T13:10:25Z</time>
      </trkpt>
      <trkpt lat="44.21558" lon="4.08417">
        <ele>439.46</ele>
        <time>2011-10-15T13:10:26Z</time>
      </trkpt>
      <trkpt lat="44.21558" lon="4.08419">
        <ele>439.94</ele>
        <time>2011-10-15T13:10:27Z</time>
      </trkpt>
      <trkpt lat="44.21558" lon="4.08422">
        <ele>439.46</ele>
        <time>2011-10-15T13:10:28Z</time>
      </trkpt>
      <trkpt lat="44.21557" lon="4.08424">
        <ele>439.46</ele>
        <time>2011-10-15T13:10:29Z</time>
      </trkpt>
      <trkpt lat="44.21557" lon="4.08425">
        <ele>439.94</ele>
        <time>2011-10-15T13:10:30Z</time>
      </trkpt>
      <trkpt lat="44.21557" lon="4.08427">
        <ele>439.94</ele>
        <time>2011-10-15T13:10:31Z</time>
      </trkpt>
      <trkpt lat="44.2156" lon="4.08444">
        <ele>441.38</ele>
        <time>2011-10-15T13:10:40Z</time>
      </trkpt>
      <trkpt lat="44.2156" lon="4.08446">
        <ele>441.38</ele>
        <time>2011-10-15T13:10:41Z</time>
      </trkpt>
      <trkpt lat="44.21561" lon="4.08447">
        <ele>441.86</ele>
        <time>2011-10-15T13:10:42Z</time>
      </trkpt>
      <trkpt lat="44.21562" lon="4.08449">
        <ele>441.86</ele>
        <time>2011-10-15T13:10:43Z</time>
      </trkpt>
      <trkpt lat="44.21562" lon="4.08451">
        <ele>441.86</ele>
        <time>2011-10-15T13:10:44Z</time>
      </trkpt>
      <trkpt lat="44.21569" lon="4.08475">
        <ele>443.79</ele>
        <time>2011-10-15T13:10:56Z</time>
      </trkpt>
      <trkpt lat="44.21569" lon="4.08477">
        <ele>443.79</ele>
        <time>2011-10-15T13:10:57Z</time>
      </trkpt>
      <trkpt lat="44.21569" lon="4.0848">
        <ele>444.27</ele>
        <time>2011-10-15T13:10:58Z</time>
      </trkpt>
      <trkpt lat="44.21569" lon="4.08482">
        <ele>444.27</ele>
        <time>2011-10-15T13:10:59Z</time>
      </trkpt>
      <trkpt lat="44.21569" lon="4.08484">
        <ele>444.27</ele>
        <time>2011-10-15T13:11:00Z</time>
      </trkpt>
      <trkpt lat="44.21568" lon="4.08486">
        <ele>444.75</ele>
        <time>2011-10-15T13:11:01Z</time>
      </trkpt>
      <trkpt lat="44.21567" lon="4.08488">
        <ele>444.75</ele>
        <time>2011-10-15T13:11:02Z</time>
      </trkpt>
      <trkpt lat="44.21565" lon="4.0849">
        <ele>445.23</ele>
        <time>2011-10-15T13:11:05Z</time>
      </trkpt>
      <trkpt lat="44.21563" lon="4.08493">
        <ele>445.23</ele>
        <time>2011-10-15T13:11:08Z</time>
      </trkpt>
      <trkpt lat="44.21562" lon="4.08494">
        <ele>445.23</ele>
        <time>2011-10-15T13:11:09Z</time>
      </trkpt>
      <trkpt lat="44.21561" lon="4.08495">
        <ele>445.23</ele>
        <time>2011-10-15T13:11:10Z</time>
      </trkpt>
      <trkpt lat="44.21548" lon="4.08507">
        <ele>446.19</ele>
        <time>2011-10-15T13:11:23Z</time>
      </trkpt>
      <trkpt lat="44.21548" lon="4.08507">
        <ele>446.19</ele>
        <time>2011-10-15T13:11:49Z</time>
      </trkpt>
      <trkpt lat="44.21548" lon="4.08508">
        <ele>445.23</ele>
        <time>2011-10-15T13:12:18Z</time>
      </trkpt>
      <trkpt lat="44.2154" lon="4.08514">
        <ele>446.19</ele>
        <time>2011-10-15T13:12:33Z</time>
      </trkpt>
      <trkpt lat="44.21539" lon="4.08515">
        <ele>445.71</ele>
        <time>2011-10-15T13:12:34Z</time>
      </trkpt>
      <trkpt lat="44.21538" lon="4.08516">
        <ele>446.19</ele>
        <time>2011-10-15T13:12:35Z</time>
      </trkpt>
      <trkpt lat="44.21535" lon="4.08518">
        <ele>445.23</ele>
        <time>2011-10-15T13:12:37Z</time>
      </trkpt>
      <trkpt lat="44.21534" lon="4.0852">
        <ele>446.19</ele>
        <time>2011-10-15T13:12:38Z</time>
      </trkpt>
      <trkpt lat="44.21532" lon="4.08521">
        <ele>445.71</ele>
        <time>2011-10-15T13:12:39Z</time>
      </trkpt>
      <trkpt lat="44.21531" lon="4.08523">
        <ele>445.71</ele>
        <time>2011-10-15T13:12:40Z</time>
      </trkpt>
      <trkpt lat="44.2153" lon="4.08524">
        <ele>446.19</ele>
        <time>2011-10-15T13:12:41Z</time>
      </trkpt>
      <trkpt lat="44.21528" lon="4.08524">
        <ele>446.19</ele>
        <time>2011-10-15T13:12:42Z</time>
      </trkpt>
      <trkpt lat="44.21527" lon="4.08525">
        <ele>446.67</ele>
        <time>2011-10-15T13:12:43Z</time>
      </trkpt>
      <trkpt lat="44.21526" lon="4.08527">
        <ele>446.19</ele>
        <time>2011-10-15T13:12:44Z</time>
      </trkpt>
      <trkpt lat="44.21525" lon="4.08528">
        <ele>446.67</ele>
        <time>2011-10-15T13:12:45Z</time>
      </trkpt>
      <trkpt lat="44.21524" lon="4.08529">
        <ele>446.67</ele>
        <time>2011-10-15T13:12:46Z</time>
      </trkpt>
      <trkpt lat="44.21523" lon="4.08531">
        <ele>446.67</ele>
        <time>2011-10-15T13:12:47Z</time>
      </trkpt>
      <trkpt lat="44.21522" lon="4.08532">
        <ele>446.67</ele>
        <time>2011-10-15T13:12:48Z</time>
      </trkpt>
      <trkpt lat="44.21521" lon="4.08534">
        <ele>447.15</ele>
        <time>2011-10-15T13:12:49Z</time>
      </trkpt>
      <trkpt lat="44.2152" lon="4.08535">
        <ele>446.67</ele>
        <time>2011-10-15T13:12:50Z</time>
      </trkpt>
      <trkpt lat="44.21518" lon="4.08537">
        <ele>447.15</ele>
        <time>2011-10-15T13:12:51Z</time>
      </trkpt>
      <trkpt lat="44.21517" lon="4.08539">
        <ele>447.15</ele>
        <time>2011-10-15T13:12:52Z</time>
      </trkpt>
      <trkpt lat="44.21516" lon="4.0854">
        <ele>447.15</ele>
        <time>2011-10-15T13:12:53Z</time>
      </trkpt>
      <trkpt lat="44.21514" lon="4.08541">
        <ele>447.15</ele>
        <time>2011-10-15T13:12:54Z</time>
      </trkpt>
      <trkpt lat="44.21513" lon="4.08542">
        <ele>447.15</ele>
        <time>2011-10-15T13:12:55Z</time>
      </trkpt>
      <trkpt lat="44.21509" lon="4.08547">
        <ele>448.59</ele>
        <time>2011-10-15T13:12:58Z</time>
      </trkpt>
      <trkpt lat="44.21507" lon="4.0855">
        <ele>448.11</ele>
        <time>2011-10-15T13:12:59Z</time>
      </trkpt>
      <trkpt lat="44.21506" lon="4.08552">
        <ele>448.59</ele>
        <time>2011-10-15T13:13:00Z</time>
      </trkpt>
      <trkpt lat="44.21504" lon="4.08553">
        <ele>448.11</ele>
        <time>2011-10-15T13:13:01Z</time>
      </trkpt>
      <trkpt lat="44.21502" lon="4.08554">
        <ele>449.07</ele>
        <time>2011-10-15T13:13:02Z</time>
      </trkpt>
      <trkpt lat="44.21501" lon="4.08556">
        <ele>448.59</ele>
        <time>2011-10-15T13:13:03Z</time>
      </trkpt>
      <trkpt lat="44.21492" lon="4.08564">
        <ele>450.03</ele>
        <time>2011-10-15T13:13:09Z</time>
      </trkpt>
      <trkpt lat="44.21491" lon="4.08566">
        <ele>449.55</ele>
        <time>2011-10-15T13:13:10Z</time>
      </trkpt>
      <trkpt lat="44.2149" lon="4.08567">
        <ele>449.55</ele>
        <time>2011-10-15T13:13:11Z</time>
      </trkpt>
      <trkpt lat="44.21488" lon="4.08568">
        <ele>449.55</ele>
        <time>2011-10-15T13:13:12Z</time>
      </trkpt>
      <trkpt lat="44.21486" lon="4.0857">
        <ele>450.03</ele>
        <time>2011-10-15T13:13:13Z</time>
      </trkpt>
      <trkpt lat="44.21485" lon="4.08571">
        <ele>449.55</ele>
        <time>2011-10-15T13:13:14Z</time>
      </trkpt>
      <trkpt lat="44.21481" lon="4.08577">
        <ele>450.52</ele>
        <time>2011-10-15T13:13:18Z</time>
      </trkpt>
      <trkpt lat="44.2148" lon="4.08579">
        <ele>450.52</ele>
        <time>2011-10-15T13:13:19Z</time>
      </trkpt>
      <trkpt lat="44.21476" lon="4.08593">
        <ele>451</ele>
        <time>2011-10-15T13:13:25Z</time>
      </trkpt>
      <trkpt lat="44.21476" lon="4.08596">
        <ele>451.48</ele>
        <time>2011-10-15T13:13:26Z</time>
      </trkpt>
      <trkpt lat="44.21476" lon="4.08598">
        <ele>451</ele>
        <time>2011-10-15T13:13:27Z</time>
      </trkpt>
      <trkpt lat="44.21477" lon="4.08599">
        <ele>451.96</ele>
        <time>2011-10-15T13:13:28Z</time>
      </trkpt>
      <trkpt lat="44.21481" lon="4.08612">
        <ele>451.96</ele>
        <time>2011-10-15T13:13:34Z</time>
      </trkpt>
      <trkpt lat="44.2149" lon="4.08635">
        <ele>452.92</ele>
        <time>2011-10-15T13:13:45Z</time>
      </trkpt>
      <trkpt lat="44.21503" lon="4.08672">
        <ele>454.36</ele>
        <time>2011-10-15T13:14:00Z</time>
      </trkpt>
      <trkpt lat="44.21501" lon="4.08709">
        <ele>455.32</ele>
        <time>2011-10-15T13:14:14Z</time>
      </trkpt>
      <trkpt lat="44.21498" lon="4.08713">
        <ele>455.8</ele>
        <time>2011-10-15T13:14:16Z</time>
      </trkpt>
      <trkpt lat="44.21497" lon="4.08715">
        <ele>456.28</ele>
        <time>2011-10-15T13:14:17Z</time>
      </trkpt>
      <trkpt lat="44.21497" lon="4.08717">
        <ele>457.24</ele>
        <time>2011-10-15T13:14:18Z</time>
      </trkpt>
      <trkpt lat="44.21496" lon="4.08719">
        <ele>457.72</ele>
        <time>2011-10-15T13:14:19Z</time>
      </trkpt>
      <trkpt lat="44.21494" lon="4.08721">
        <ele>457.24</ele>
        <time>2011-10-15T13:14:20Z</time>
      </trkpt>
      <trkpt lat="44.21493" lon="4.08723">
        <ele>457.72</ele>
        <time>2011-10-15T13:14:21Z</time>
      </trkpt>
      <trkpt lat="44.21492" lon="4.08725">
        <ele>457.72</ele>
        <time>2011-10-15T13:14:22Z</time>
      </trkpt>
      <trkpt lat="44.21474" lon="4.08752">
        <ele>459.17</ele>
        <time>2011-10-15T13:14:37Z</time>
      </trkpt>
      <trkpt lat="44.21448" lon="4.08772">
        <ele>460.61</ele>
        <time>2011-10-15T13:14:53Z</time>
      </trkpt>
      <trkpt lat="44.21424" lon="4.08788">
        <ele>462.53</ele>
        <time>2011-10-15T13:15:07Z</time>
      </trkpt>
      <trkpt lat="44.21406" lon="4.08817">
        <ele>464.45</ele>
        <time>2011-10-15T13:15:20Z</time>
      </trkpt>
      <trkpt lat="44.21399" lon="4.0884">
        <ele>465.42</ele>
        <time>2011-10-15T13:15:29Z</time>
      </trkpt>
      <trkpt lat="44.21399" lon="4.08843">
        <ele>465.42</ele>
        <time>2011-10-15T13:15:30Z</time>
      </trkpt>
      <trkpt lat="44.21399" lon="4.08846">
        <ele>465.42</ele>
        <time>2011-10-15T13:15:31Z</time>
      </trkpt>
      <trkpt lat="44.21418" lon="4.08881">
        <ele>462.05</ele>
        <time>2011-10-15T13:15:43Z</time>
      </trkpt>
      <trkpt lat="44.2143" lon="4.08891">
        <ele>459.65</ele>
        <time>2011-10-15T13:15:48Z</time>
      </trkpt>
      <trkpt lat="44.21431" lon="4.08894">
        <ele>459.65</ele>
        <time>2011-10-15T13:15:49Z</time>
      </trkpt>
      <trkpt lat="44.2143" lon="4.08897">
        <ele>459.17</ele>
        <time>2011-10-15T13:15:50Z</time>
      </trkpt>
      <trkpt lat="44.21429" lon="4.08899">
        <ele>459.17</ele>
        <time>2011-10-15T13:15:51Z</time>
      </trkpt>
      <trkpt lat="44.21427" lon="4.08901">
        <ele>459.65</ele>
        <time>2011-10-15T13:15:52Z</time>
      </trkpt>
      <trkpt lat="44.21424" lon="4.08903">
        <ele>460.13</ele>
        <time>2011-10-15T13:15:53Z</time>
      </trkpt>
      <trkpt lat="44.21421" lon="4.08906">
        <ele>461.09</ele>
        <time>2011-10-15T13:15:54Z</time>
      </trkpt>
      <trkpt lat="44.21419" lon="4.08909">
        <ele>460.13</ele>
        <time>2011-10-15T13:15:55Z</time>
      </trkpt>
      <trkpt lat="44.21398" lon="4.0894">
        <ele>463.01</ele>
        <time>2011-10-15T13:16:06Z</time>
      </trkpt>
      <trkpt lat="44.21379" lon="4.08989">
        <ele>463.49</ele>
        <time>2011-10-15T13:16:20Z</time>
      </trkpt>
      <trkpt lat="44.21353" lon="4.09073">
        <ele>463.49</ele>
        <time>2011-10-15T13:16:37Z</time>
      </trkpt>
      <trkpt lat="44.21329" lon="4.09152">
        <ele>460.13</ele>
        <time>2011-10-15T13:16:47Z</time>
      </trkpt>
      <trkpt lat="44.21322" lon="4.09171">
        <ele>459.65</ele>
        <time>2011-10-15T13:16:49Z</time>
      </trkpt>
      <trkpt lat="44.21303" lon="4.09225">
        <ele>457.72</ele>
        <time>2011-10-15T13:16:54Z</time>
      </trkpt>
      <trkpt lat="44.21279" lon="4.09283">
        <ele>455.32</ele>
        <time>2011-10-15T13:16:59Z</time>
      </trkpt>
      <trkpt lat="44.21262" lon="4.09316">
        <ele>451.96</ele>
        <time>2011-10-15T13:17:02Z</time>
      </trkpt>
      <trkpt lat="44.21227" lon="4.09369">
        <ele>448.11</ele>
        <time>2011-10-15T13:17:07Z</time>
      </trkpt>
      <trkpt lat="44.21219" lon="4.09378">
        <ele>448.11</ele>
        <time>2011-10-15T13:17:08Z</time>
      </trkpt>
      <trkpt lat="44.21195" lon="4.09402">
        <ele>446.67</ele>
        <time>2011-10-15T13:17:11Z</time>
      </trkpt>
      <trkpt lat="44.21161" lon="4.09429">
        <ele>443.31</ele>
        <time>2011-10-15T13:17:15Z</time>
      </trkpt>
      <trkpt lat="44.21116" lon="4.0945">
        <ele>439.46</ele>
        <time>2011-10-15T13:17:20Z</time>
      </trkpt>
      <trkpt lat="44.21078" lon="4.09459">
        <ele>436.1</ele>
        <time>2011-10-15T13:17:24Z</time>
      </trkpt>
      <trkpt lat="44.21068" lon="4.09461">
        <ele>435.61</ele>
        <time>2011-10-15T13:17:25Z</time>
      </trkpt>
      <trkpt lat="44.21016" lon="4.09459">
        <ele>432.25</ele>
        <time>2011-10-15T13:17:30Z</time>
      </trkpt>
      <trkpt lat="44.21005" lon="4.09456">
        <ele>432.25</ele>
        <time>2011-10-15T13:17:31Z</time>
      </trkpt>
      <trkpt lat="44.20985" lon="4.09451">
        <ele>428.89</ele>
        <time>2011-10-15T13:17:33Z</time>
      </trkpt>
      <trkpt lat="44.20965" lon="4.09446">
        <ele>427.92</ele>
        <time>2011-10-15T13:17:35Z</time>
      </trkpt>
      <trkpt lat="44.20926" lon="4.09436">
        <ele>424.56</ele>
        <time>2011-10-15T13:17:39Z</time>
      </trkpt>
      <trkpt lat="44.20897" lon="4.09428">
        <ele>421.68</ele>
        <time>2011-10-15T13:17:42Z</time>
      </trkpt>
      <trkpt lat="44.20877" lon="4.09423">
        <ele>420.71</ele>
        <time>2011-10-15T13:17:44Z</time>
      </trkpt>
      <trkpt lat="44.20838" lon="4.09418">
        <ele>417.83</ele>
        <time>2011-10-15T13:17:48Z</time>
      </trkpt>
      <trkpt lat="44.20811" lon="4.09421">
        <ele>416.39</ele>
        <time>2011-10-15T13:17:51Z</time>
      </trkpt>
      <trkpt lat="44.20804" lon="4.09426">
        <ele>415.43</ele>
        <time>2011-10-15T13:17:52Z</time>
      </trkpt>
      <trkpt lat="44.20797" lon="4.09431">
        <ele>413.98</ele>
        <time>2011-10-15T13:17:53Z</time>
      </trkpt>
      <trkpt lat="44.2079" lon="4.09435">
        <ele>413.98</ele>
        <time>2011-10-15T13:17:54Z</time>
      </trkpt>
      <trkpt lat="44.20783" lon="4.09437">
        <ele>413.98</ele>
        <time>2011-10-15T13:17:55Z</time>
      </trkpt>
      <trkpt lat="44.20777" lon="4.0944">
        <ele>413.98</ele>
        <time>2011-10-15T13:17:56Z</time>
      </trkpt>
      <trkpt lat="44.20772" lon="4.09443">
        <ele>413.5</ele>
        <time>2011-10-15T13:17:57Z</time>
      </trkpt>
      <trkpt lat="44.20768" lon="4.09448">
        <ele>414.47</ele>
        <time>2011-10-15T13:17:58Z</time>
      </trkpt>
      <trkpt lat="44.20764" lon="4.09452">
        <ele>413.98</ele>
        <time>2011-10-15T13:17:59Z</time>
      </trkpt>
      <trkpt lat="44.2076" lon="4.09457">
        <ele>413.98</ele>
        <time>2011-10-15T13:18:00Z</time>
      </trkpt>
      <trkpt lat="44.20758" lon="4.09462">
        <ele>414.95</ele>
        <time>2011-10-15T13:18:01Z</time>
      </trkpt>
      <trkpt lat="44.20738" lon="4.09493">
        <ele>417.83</ele>
        <time>2011-10-15T13:18:11Z</time>
      </trkpt>
      <trkpt lat="44.20715" lon="4.09494">
        <ele>420.71</ele>
        <time>2011-10-15T13:18:20Z</time>
      </trkpt>
      <trkpt lat="44.20686" lon="4.09492">
        <ele>424.08</ele>
        <time>2011-10-15T13:18:32Z</time>
      </trkpt>
      <trkpt lat="44.20684" lon="4.09493">
        <ele>424.08</ele>
        <time>2011-10-15T13:18:33Z</time>
      </trkpt>
      <trkpt lat="44.20655" lon="4.09514">
        <ele>427.92</ele>
        <time>2011-10-15T13:18:46Z</time>
      </trkpt>
      <trkpt lat="44.20638" lon="4.0953">
        <ele>427.92</ele>
        <time>2011-10-15T13:18:55Z</time>
      </trkpt>
      <trkpt lat="44.20637" lon="4.09531">
        <ele>428.89</ele>
        <time>2011-10-15T13:18:56Z</time>
      </trkpt>
      <trkpt lat="44.20635" lon="4.09533">
        <ele>428.89</ele>
        <time>2011-10-15T13:18:57Z</time>
      </trkpt>
      <trkpt lat="44.20633" lon="4.09534">
        <ele>428.89</ele>
        <time>2011-10-15T13:18:58Z</time>
      </trkpt>
      <trkpt lat="44.20631" lon="4.09535">
        <ele>429.37</ele>
        <time>2011-10-15T13:18:59Z</time>
      </trkpt>
      <trkpt lat="44.20603" lon="4.09548">
        <ele>430.81</ele>
        <time>2011-10-15T13:19:12Z</time>
      </trkpt>
      <trkpt lat="44.20576" lon="4.09553">
        <ele>432.73</ele>
        <time>2011-10-15T13:19:24Z</time>
      </trkpt>
      <trkpt lat="44.20554" lon="4.09572">
        <ele>431.77</ele>
        <time>2011-10-15T13:19:36Z</time>
      </trkpt>
      <trkpt lat="44.20544" lon="4.09612">
        <ele>431.77</ele>
        <time>2011-10-15T13:19:49Z</time>
      </trkpt>
      <trkpt lat="44.20541" lon="4.09646">
        <ele>428.89</ele>
        <time>2011-10-15T13:19:59Z</time>
      </trkpt>
      <trkpt lat="44.20537" lon="4.09695">
        <ele>426.96</ele>
        <time>2011-10-15T13:20:07Z</time>
      </trkpt>
      <trkpt lat="44.20536" lon="4.09703">
        <ele>426.96</ele>
        <time>2011-10-15T13:20:08Z</time>
      </trkpt>
      <trkpt lat="44.20534" lon="4.09718">
        <ele>426</ele>
        <time>2011-10-15T13:20:10Z</time>
      </trkpt>
      <trkpt lat="44.20532" lon="4.09734">
        <ele>425.52</ele>
        <time>2011-10-15T13:20:12Z</time>
      </trkpt>
      <trkpt lat="44.20532" lon="4.09743">
        <ele>424.56</ele>
        <time>2011-10-15T13:20:13Z</time>
      </trkpt>
      <trkpt lat="44.20534" lon="4.09751">
        <ele>424.56</ele>
        <time>2011-10-15T13:20:14Z</time>
      </trkpt>
      <trkpt lat="44.20537" lon="4.09758">
        <ele>424.08</ele>
        <time>2011-10-15T13:20:15Z</time>
      </trkpt>
      <trkpt lat="44.2054" lon="4.09764">
        <ele>423.6</ele>
        <time>2011-10-15T13:20:16Z</time>
      </trkpt>
      <trkpt lat="44.20544" lon="4.09771">
        <ele>423.12</ele>
        <time>2011-10-15T13:20:17Z</time>
      </trkpt>
      <trkpt lat="44.20552" lon="4.09783">
        <ele>422.16</ele>
        <time>2011-10-15T13:20:19Z</time>
      </trkpt>
      <trkpt lat="44.20556" lon="4.0979">
        <ele>422.16</ele>
        <time>2011-10-15T13:20:20Z</time>
      </trkpt>
      <trkpt lat="44.20559" lon="4.09796">
        <ele>421.68</ele>
        <time>2011-10-15T13:20:21Z</time>
      </trkpt>
      <trkpt lat="44.20565" lon="4.0981">
        <ele>419.75</ele>
        <time>2011-10-15T13:20:23Z</time>
      </trkpt>
      <trkpt lat="44.20567" lon="4.09818">
        <ele>419.27</ele>
        <time>2011-10-15T13:20:24Z</time>
      </trkpt>
      <trkpt lat="44.20569" lon="4.09827">
        <ele>418.31</ele>
        <time>2011-10-15T13:20:25Z</time>
      </trkpt>
      <trkpt lat="44.20571" lon="4.09836">
        <ele>417.83</ele>
        <time>2011-10-15T13:20:26Z</time>
      </trkpt>
      <trkpt lat="44.20573" lon="4.09845">
        <ele>416.87</ele>
        <time>2011-10-15T13:20:27Z</time>
      </trkpt>
      <trkpt lat="44.20577" lon="4.09863">
        <ele>415.91</ele>
        <time>2011-10-15T13:20:29Z</time>
      </trkpt>
      <trkpt lat="44.2058" lon="4.09871">
        <ele>415.43</ele>
        <time>2011-10-15T13:20:30Z</time>
      </trkpt>
      <trkpt lat="44.20583" lon="4.0988">
        <ele>413.98</ele>
        <time>2011-10-15T13:20:31Z</time>
      </trkpt>
      <trkpt lat="44.20588" lon="4.09887">
        <ele>413.5</ele>
        <time>2011-10-15T13:20:32Z</time>
      </trkpt>
      <trkpt lat="44.20593" lon="4.09894">
        <ele>412.54</ele>
        <time>2011-10-15T13:20:33Z</time>
      </trkpt>
      <trkpt lat="44.20599" lon="4.09901">
        <ele>412.06</ele>
        <time>2011-10-15T13:20:34Z</time>
      </trkpt>
      <trkpt lat="44.20605" lon="4.09907">
        <ele>411.58</ele>
        <time>2011-10-15T13:20:35Z</time>
      </trkpt>
      <trkpt lat="44.20611" lon="4.09912">
        <ele>410.14</ele>
        <time>2011-10-15T13:20:36Z</time>
      </trkpt>
      <trkpt lat="44.2063" lon="4.0993">
        <ele>408.7</ele>
        <time>2011-10-15T13:20:39Z</time>
      </trkpt>
      <trkpt lat="44.20676" lon="4.0997">
        <ele>406.77</ele>
        <time>2011-10-15T13:20:47Z</time>
      </trkpt>
      <trkpt lat="44.20683" lon="4.09974">
        <ele>405.81</ele>
        <time>2011-10-15T13:20:48Z</time>
      </trkpt>
      <trkpt lat="44.20689" lon="4.09976">
        <ele>405.33</ele>
        <time>2011-10-15T13:20:49Z</time>
      </trkpt>
      <trkpt lat="44.20696" lon="4.09978">
        <ele>405.33</ele>
        <time>2011-10-15T13:20:50Z</time>
      </trkpt>
      <trkpt lat="44.20703" lon="4.09981">
        <ele>404.85</ele>
        <time>2011-10-15T13:20:51Z</time>
      </trkpt>
      <trkpt lat="44.2071" lon="4.09985">
        <ele>403.89</ele>
        <time>2011-10-15T13:20:52Z</time>
      </trkpt>
      <trkpt lat="44.20717" lon="4.0999">
        <ele>403.41</ele>
        <time>2011-10-15T13:20:53Z</time>
      </trkpt>
      <trkpt lat="44.20738" lon="4.1">
        <ele>401.49</ele>
        <time>2011-10-15T13:20:56Z</time>
      </trkpt>
      <trkpt lat="44.20769" lon="4.10009">
        <ele>399.08</ele>
        <time>2011-10-15T13:21:00Z</time>
      </trkpt>
      <trkpt lat="44.20793" lon="4.10011">
        <ele>397.16</ele>
        <time>2011-10-15T13:21:03Z</time>
      </trkpt>
      <trkpt lat="44.20815" lon="4.10013">
        <ele>394.28</ele>
        <time>2011-10-15T13:21:06Z</time>
      </trkpt>
      <trkpt lat="44.20822" lon="4.10015">
        <ele>392.84</ele>
        <time>2011-10-15T13:21:07Z</time>
      </trkpt>
      <trkpt lat="44.20828" lon="4.10019">
        <ele>392.84</ele>
        <time>2011-10-15T13:21:08Z</time>
      </trkpt>
      <trkpt lat="44.20833" lon="4.10023">
        <ele>391.39</ele>
        <time>2011-10-15T13:21:09Z</time>
      </trkpt>
      <trkpt lat="44.20839" lon="4.10029">
        <ele>391.87</ele>
        <time>2011-10-15T13:21:10Z</time>
      </trkpt>
      <trkpt lat="44.20845" lon="4.10034">
        <ele>390.43</ele>
        <time>2011-10-15T13:21:11Z</time>
      </trkpt>
      <trkpt lat="44.20877" lon="4.10062">
        <ele>387.07</ele>
        <time>2011-10-15T13:21:16Z</time>
      </trkpt>
      <trkpt lat="44.20896" lon="4.10084">
        <ele>385.15</ele>
        <time>2011-10-15T13:21:21Z</time>
      </trkpt>
      <trkpt lat="44.20896" lon="4.10088">
        <ele>385.63</ele>
        <time>2011-10-15T13:21:22Z</time>
      </trkpt>
      <trkpt lat="44.20894" lon="4.10092">
        <ele>385.63</ele>
        <time>2011-10-15T13:21:23Z</time>
      </trkpt>
      <trkpt lat="44.20891" lon="4.10095">
        <ele>384.66</ele>
        <time>2011-10-15T13:21:24Z</time>
      </trkpt>
      <trkpt lat="44.20888" lon="4.10097">
        <ele>384.66</ele>
        <time>2011-10-15T13:21:25Z</time>
      </trkpt>
      <trkpt lat="44.20884" lon="4.101">
        <ele>384.66</ele>
        <time>2011-10-15T13:21:26Z</time>
      </trkpt>
      <trkpt lat="44.20875" lon="4.10103">
        <ele>383.22</ele>
        <time>2011-10-15T13:21:28Z</time>
      </trkpt>
      <trkpt lat="44.20865" lon="4.10102">
        <ele>381.3</ele>
        <time>2011-10-15T13:21:30Z</time>
      </trkpt>
      <trkpt lat="44.2086" lon="4.101">
        <ele>381.3</ele>
        <time>2011-10-15T13:21:31Z</time>
      </trkpt>
      <trkpt lat="44.20854" lon="4.10098">
        <ele>380.82</ele>
        <time>2011-10-15T13:21:32Z</time>
      </trkpt>
      <trkpt lat="44.20843" lon="4.10095">
        <ele>380.34</ele>
        <time>2011-10-15T13:21:34Z</time>
      </trkpt>
      <trkpt lat="44.20837" lon="4.10096">
        <ele>380.34</ele>
        <time>2011-10-15T13:21:35Z</time>
      </trkpt>
      <trkpt lat="44.20832" lon="4.10097">
        <ele>379.86</ele>
        <time>2011-10-15T13:21:36Z</time>
      </trkpt>
      <trkpt lat="44.20827" lon="4.10098">
        <ele>378.9</ele>
        <time>2011-10-15T13:21:37Z</time>
      </trkpt>
      <trkpt lat="44.20821" lon="4.10099">
        <ele>378.42</ele>
        <time>2011-10-15T13:21:38Z</time>
      </trkpt>
      <trkpt lat="44.20814" lon="4.10099">
        <ele>378.42</ele>
        <time>2011-10-15T13:21:39Z</time>
      </trkpt>
      <trkpt lat="44.20808" lon="4.101">
        <ele>377.94</ele>
        <time>2011-10-15T13:21:40Z</time>
      </trkpt>
      <trkpt lat="44.20802" lon="4.10102">
        <ele>377.45</ele>
        <time>2011-10-15T13:21:41Z</time>
      </trkpt>
      <trkpt lat="44.20795" lon="4.10104">
        <ele>376.97</ele>
        <time>2011-10-15T13:21:42Z</time>
      </trkpt>
      <trkpt lat="44.20782" lon="4.10111">
        <ele>376.01</ele>
        <time>2011-10-15T13:21:44Z</time>
      </trkpt>
      <trkpt lat="44.2074" lon="4.10127">
        <ele>372.17</ele>
        <time>2011-10-15T13:21:50Z</time>
      </trkpt>
      <trkpt lat="44.20733" lon="4.10128">
        <ele>372.17</ele>
        <time>2011-10-15T13:21:51Z</time>
      </trkpt>
      <trkpt lat="44.2072" lon="4.10131">
        <ele>371.21</ele>
        <time>2011-10-15T13:21:53Z</time>
      </trkpt>
      <trkpt lat="44.20699" lon="4.1014">
        <ele>370.24</ele>
        <time>2011-10-15T13:21:56Z</time>
      </trkpt>
      <trkpt lat="44.2064" lon="4.10177">
        <ele>366.88</ele>
        <time>2011-10-15T13:22:05Z</time>
      </trkpt>
      <trkpt lat="44.20634" lon="4.10181">
        <ele>365.44</ele>
        <time>2011-10-15T13:22:06Z</time>
      </trkpt>
      <trkpt lat="44.20628" lon="4.10185">
        <ele>365.44</ele>
        <time>2011-10-15T13:22:07Z</time>
      </trkpt>
      <trkpt lat="44.20624" lon="4.10187">
        <ele>364.96</ele>
        <time>2011-10-15T13:22:08Z</time>
      </trkpt>
      <trkpt lat="44.20619" lon="4.10189">
        <ele>363.52</ele>
        <time>2011-10-15T13:22:09Z</time>
      </trkpt>
      <trkpt lat="44.20615" lon="4.10188">
        <ele>363.04</ele>
        <time>2011-10-15T13:22:10Z</time>
      </trkpt>
      <trkpt lat="44.20612" lon="4.10185">
        <ele>363.04</ele>
        <time>2011-10-15T13:22:11Z</time>
      </trkpt>
      <trkpt lat="44.2061" lon="4.10181">
        <ele>363.04</ele>
        <time>2011-10-15T13:22:12Z</time>
      </trkpt>
      <trkpt lat="44.20608" lon="4.10176">
        <ele>362.55</ele>
        <time>2011-10-15T13:22:13Z</time>
      </trkpt>
      <trkpt lat="44.20607" lon="4.1017">
        <ele>363.04</ele>
        <time>2011-10-15T13:22:14Z</time>
      </trkpt>
      <trkpt lat="44.20606" lon="4.10163">
        <ele>362.07</ele>
        <time>2011-10-15T13:22:15Z</time>
      </trkpt>
      <trkpt lat="44.20605" lon="4.10157">
        <ele>362.55</ele>
        <time>2011-10-15T13:22:16Z</time>
      </trkpt>
      <trkpt lat="44.20603" lon="4.1015">
        <ele>362.55</ele>
        <time>2011-10-15T13:22:17Z</time>
      </trkpt>
      <trkpt lat="44.20602" lon="4.10142">
        <ele>362.55</ele>
        <time>2011-10-15T13:22:18Z</time>
      </trkpt>
      <trkpt lat="44.20597" lon="4.10128">
        <ele>362.07</ele>
        <time>2011-10-15T13:22:20Z</time>
      </trkpt>
      <trkpt lat="44.20567" lon="4.10063">
        <ele>361.59</ele>
        <time>2011-10-15T13:22:30Z</time>
      </trkpt>
      <trkpt lat="44.20562" lon="4.1006">
        <ele>362.55</ele>
        <time>2011-10-15T13:22:31Z</time>
      </trkpt>
      <trkpt lat="44.20557" lon="4.10058">
        <ele>363.04</ele>
        <time>2011-10-15T13:22:32Z</time>
      </trkpt>
      <trkpt lat="44.20552" lon="4.10059">
        <ele>363.04</ele>
        <time>2011-10-15T13:22:33Z</time>
      </trkpt>
      <trkpt lat="44.20546" lon="4.10062">
        <ele>363.04</ele>
        <time>2011-10-15T13:22:34Z</time>
      </trkpt>
      <trkpt lat="44.20541" lon="4.10066">
        <ele>363.52</ele>
        <time>2011-10-15T13:22:35Z</time>
      </trkpt>
      <trkpt lat="44.20536" lon="4.1007">
        <ele>363.52</ele>
        <time>2011-10-15T13:22:36Z</time>
      </trkpt>
      <trkpt lat="44.20532" lon="4.10075">
        <ele>364.48</ele>
        <time>2011-10-15T13:22:37Z</time>
      </trkpt>
      <trkpt lat="44.20508" lon="4.101">
        <ele>362.55</ele>
        <time>2011-10-15T13:22:43Z</time>
      </trkpt>
      <trkpt lat="44.20504" lon="4.10104">
        <ele>363.04</ele>
        <time>2011-10-15T13:22:44Z</time>
      </trkpt>
      <trkpt lat="44.20476" lon="4.10124">
        <ele>361.11</ele>
        <time>2011-10-15T13:22:50Z</time>
      </trkpt>
      <trkpt lat="44.2046" lon="4.10135">
        <ele>357.75</ele>
        <time>2011-10-15T13:22:53Z</time>
      </trkpt>
      <trkpt lat="44.20449" lon="4.10139">
        <ele>355.83</ele>
        <time>2011-10-15T13:22:55Z</time>
      </trkpt>
      <trkpt lat="44.20443" lon="4.10139">
        <ele>354.38</ele>
        <time>2011-10-15T13:22:56Z</time>
      </trkpt>
      <trkpt lat="44.20437" lon="4.10137">
        <ele>354.38</ele>
        <time>2011-10-15T13:22:57Z</time>
      </trkpt>
      <trkpt lat="44.20426" lon="4.1013">
        <ele>353.42</ele>
        <time>2011-10-15T13:22:59Z</time>
      </trkpt>
      <trkpt lat="44.20422" lon="4.10126">
        <ele>353.42</ele>
        <time>2011-10-15T13:23:00Z</time>
      </trkpt>
      <trkpt lat="44.20418" lon="4.10121">
        <ele>353.42</ele>
        <time>2011-10-15T13:23:01Z</time>
      </trkpt>
      <trkpt lat="44.20382" lon="4.10065">
        <ele>349.58</ele>
        <time>2011-10-15T13:23:10Z</time>
      </trkpt>
      <trkpt lat="44.20378" lon="4.10059">
        <ele>350.06</ele>
        <time>2011-10-15T13:23:11Z</time>
      </trkpt>
      <trkpt lat="44.20368" lon="4.10046">
        <ele>350.06</ele>
        <time>2011-10-15T13:23:13Z</time>
      </trkpt>
      <trkpt lat="44.20363" lon="4.10041">
        <ele>349.58</ele>
        <time>2011-10-15T13:23:14Z</time>
      </trkpt>
      <trkpt lat="44.20357" lon="4.10036">
        <ele>349.1</ele>
        <time>2011-10-15T13:23:15Z</time>
      </trkpt>
      <trkpt lat="44.2035" lon="4.10031">
        <ele>349.1</ele>
        <time>2011-10-15T13:23:16Z</time>
      </trkpt>
      <trkpt lat="44.20344" lon="4.10027">
        <ele>349.1</ele>
        <time>2011-10-15T13:23:17Z</time>
      </trkpt>
      <trkpt lat="44.20337" lon="4.10021">
        <ele>348.62</ele>
        <time>2011-10-15T13:23:18Z</time>
      </trkpt>
      <trkpt lat="44.20331" lon="4.10015">
        <ele>348.62</ele>
        <time>2011-10-15T13:23:19Z</time>
      </trkpt>
      <trkpt lat="44.20319" lon="4.10002">
        <ele>349.1</ele>
        <time>2011-10-15T13:23:21Z</time>
      </trkpt>
      <trkpt lat="44.20313" lon="4.09998">
        <ele>349.58</ele>
        <time>2011-10-15T13:23:22Z</time>
      </trkpt>
      <trkpt lat="44.20307" lon="4.09995">
        <ele>349.58</ele>
        <time>2011-10-15T13:23:23Z</time>
      </trkpt>
      <trkpt lat="44.20301" lon="4.09995">
        <ele>350.06</ele>
        <time>2011-10-15T13:23:24Z</time>
      </trkpt>
      <trkpt lat="44.20297" lon="4.09999">
        <ele>349.58</ele>
        <time>2011-10-15T13:23:25Z</time>
      </trkpt>
      <trkpt lat="44.20295" lon="4.10005">
        <ele>350.54</ele>
        <time>2011-10-15T13:23:26Z</time>
      </trkpt>
      <trkpt lat="44.20294" lon="4.10013">
        <ele>350.54</ele>
        <time>2011-10-15T13:23:27Z</time>
      </trkpt>
      <trkpt lat="44.20294" lon="4.10021">
        <ele>350.06</ele>
        <time>2011-10-15T13:23:28Z</time>
      </trkpt>
      <trkpt lat="44.20294" lon="4.1003">
        <ele>350.06</ele>
        <time>2011-10-15T13:23:29Z</time>
      </trkpt>
      <trkpt lat="44.20293" lon="4.10039">
        <ele>349.58</ele>
        <time>2011-10-15T13:23:30Z</time>
      </trkpt>
      <trkpt lat="44.20291" lon="4.10047">
        <ele>348.62</ele>
        <time>2011-10-15T13:23:31Z</time>
      </trkpt>
      <trkpt lat="44.20288" lon="4.10055">
        <ele>348.62</ele>
        <time>2011-10-15T13:23:32Z</time>
      </trkpt>
      <trkpt lat="44.20284" lon="4.10062">
        <ele>348.62</ele>
        <time>2011-10-15T13:23:33Z</time>
      </trkpt>
      <trkpt lat="44.20281" lon="4.10067">
        <ele>348.13</ele>
        <time>2011-10-15T13:23:34Z</time>
      </trkpt>
      <trkpt lat="44.20277" lon="4.10072">
        <ele>348.13</ele>
        <time>2011-10-15T13:23:35Z</time>
      </trkpt>
      <trkpt lat="44.20273" lon="4.10077">
        <ele>348.62</ele>
        <time>2011-10-15T13:23:36Z</time>
      </trkpt>
      <trkpt lat="44.20261" lon="4.10088">
        <ele>348.13</ele>
        <time>2011-10-15T13:23:39Z</time>
      </trkpt>
      <trkpt lat="44.20256" lon="4.10092">
        <ele>347.17</ele>
        <time>2011-10-15T13:23:40Z</time>
      </trkpt>
      <trkpt lat="44.20251" lon="4.10095">
        <ele>347.65</ele>
        <time>2011-10-15T13:23:41Z</time>
      </trkpt>
      <trkpt lat="44.20246" lon="4.10097">
        <ele>347.17</ele>
        <time>2011-10-15T13:23:42Z</time>
      </trkpt>
      <trkpt lat="44.2024" lon="4.10098">
        <ele>346.69</ele>
        <time>2011-10-15T13:23:43Z</time>
      </trkpt>
      <trkpt lat="44.20188" lon="4.10114">
        <ele>344.29</ele>
        <time>2011-10-15T13:23:52Z</time>
      </trkpt>
      <trkpt lat="44.20176" lon="4.10118">
        <ele>343.33</ele>
        <time>2011-10-15T13:23:54Z</time>
      </trkpt>
      <trkpt lat="44.20131" lon="4.10123">
        <ele>340.44</ele>
        <time>2011-10-15T13:24:01Z</time>
      </trkpt>
      <trkpt lat="44.20085" lon="4.10123">
        <ele>338.52</ele>
        <time>2011-10-15T13:24:08Z</time>
      </trkpt>
      <trkpt lat="44.20071" lon="4.10124">
        <ele>337.56</ele>
        <time>2011-10-15T13:24:10Z</time>
      </trkpt>
      <trkpt lat="44.20043" lon="4.10131">
        <ele>336.6</ele>
        <time>2011-10-15T13:24:14Z</time>
      </trkpt>
      <trkpt lat="44.20036" lon="4.10135">
        <ele>335.16</ele>
        <time>2011-10-15T13:24:15Z</time>
      </trkpt>
      <trkpt lat="44.20029" lon="4.10139">
        <ele>335.16</ele>
        <time>2011-10-15T13:24:16Z</time>
      </trkpt>
      <trkpt lat="44.20009" lon="4.10152">
        <ele>333.71</ele>
        <time>2011-10-15T13:24:19Z</time>
      </trkpt>
      <trkpt lat="44.20002" lon="4.10156">
        <ele>334.68</ele>
        <time>2011-10-15T13:24:20Z</time>
      </trkpt>
      <trkpt lat="44.19995" lon="4.10159">
        <ele>334.68</ele>
        <time>2011-10-15T13:24:21Z</time>
      </trkpt>
      <trkpt lat="44.19988" lon="4.1016">
        <ele>335.64</ele>
        <time>2011-10-15T13:24:22Z</time>
      </trkpt>
      <trkpt lat="44.19981" lon="4.10161">
        <ele>336.12</ele>
        <time>2011-10-15T13:24:23Z</time>
      </trkpt>
      <trkpt lat="44.19968" lon="4.10163">
        <ele>336.6</ele>
        <time>2011-10-15T13:24:25Z</time>
      </trkpt>
      <trkpt lat="44.19962" lon="4.10165">
        <ele>337.08</ele>
        <time>2011-10-15T13:24:26Z</time>
      </trkpt>
      <trkpt lat="44.19957" lon="4.10168">
        <ele>337.56</ele>
        <time>2011-10-15T13:24:27Z</time>
      </trkpt>
      <trkpt lat="44.19946" lon="4.10175">
        <ele>337.56</ele>
        <time>2011-10-15T13:24:29Z</time>
      </trkpt>
      <trkpt lat="44.19941" lon="4.10179">
        <ele>337.56</ele>
        <time>2011-10-15T13:24:30Z</time>
      </trkpt>
      <trkpt lat="44.19936" lon="4.10182">
        <ele>337.56</ele>
        <time>2011-10-15T13:24:31Z</time>
      </trkpt>
      <trkpt lat="44.19932" lon="4.10183">
        <ele>337.56</ele>
        <time>2011-10-15T13:24:32Z</time>
      </trkpt>
      <trkpt lat="44.19929" lon="4.10182">
        <ele>336.12</ele>
        <time>2011-10-15T13:24:33Z</time>
      </trkpt>
      <trkpt lat="44.19909" lon="4.10176">
        <ele>334.68</ele>
        <time>2011-10-15T13:24:39Z</time>
      </trkpt>
      <trkpt lat="44.19904" lon="4.10175">
        <ele>335.16</ele>
        <time>2011-10-15T13:24:40Z</time>
      </trkpt>
      <trkpt lat="44.19893" lon="4.10171">
        <ele>333.23</ele>
        <time>2011-10-15T13:24:42Z</time>
      </trkpt>
      <trkpt lat="44.19888" lon="4.1017">
        <ele>332.75</ele>
        <time>2011-10-15T13:24:43Z</time>
      </trkpt>
      <trkpt lat="44.19877" lon="4.10168">
        <ele>330.83</ele>
        <time>2011-10-15T13:24:45Z</time>
      </trkpt>
      <trkpt lat="44.19866" lon="4.10168">
        <ele>328.91</ele>
        <time>2011-10-15T13:24:47Z</time>
      </trkpt>
      <trkpt lat="44.19841" lon="4.10168">
        <ele>325.06</ele>
        <time>2011-10-15T13:24:51Z</time>
      </trkpt>
      <trkpt lat="44.19834" lon="4.10168">
        <ele>325.06</ele>
        <time>2011-10-15T13:24:52Z</time>
      </trkpt>
      <trkpt lat="44.19807" lon="4.10169">
        <ele>321.22</ele>
        <time>2011-10-15T13:24:56Z</time>
      </trkpt>
      <trkpt lat="44.19801" lon="4.1017">
        <ele>321.22</ele>
        <time>2011-10-15T13:24:57Z</time>
      </trkpt>
      <trkpt lat="44.19793" lon="4.10171">
        <ele>319.3</ele>
        <time>2011-10-15T13:25:00Z</time>
      </trkpt>
      <trkpt lat="44.19797" lon="4.10172">
        <ele>319.3</ele>
        <time>2011-10-15T13:25:08Z</time>
      </trkpt>
      <trkpt lat="44.19796" lon="4.10173">
        <ele>318.81</ele>
        <time>2011-10-15T13:25:17Z</time>
      </trkpt>
      <trkpt lat="44.19795" lon="4.10173">
        <ele>319.3</ele>
        <time>2011-10-15T13:25:18Z</time>
      </trkpt>
      <trkpt lat="44.19793" lon="4.10173">
        <ele>318.81</ele>
        <time>2011-10-15T13:25:19Z</time>
      </trkpt>
      <trkpt lat="44.19791" lon="4.10173">
        <ele>318.81</ele>
        <time>2011-10-15T13:25:31Z</time>
      </trkpt>
      <trkpt lat="44.19788" lon="4.10174">
        <ele>317.85</ele>
        <time>2011-10-15T13:25:47Z</time>
      </trkpt>
      <trkpt lat="44.19774" lon="4.10178">
        <ele>317.37</ele>
        <time>2011-10-15T13:25:53Z</time>
      </trkpt>
      <trkpt lat="44.19737" lon="4.10194">
        <ele>315.93</ele>
        <time>2011-10-15T13:26:05Z</time>
      </trkpt>
      <trkpt lat="44.19733" lon="4.10197">
        <ele>316.41</ele>
        <time>2011-10-15T13:26:06Z</time>
      </trkpt>
      <trkpt lat="44.19729" lon="4.102">
        <ele>315.93</ele>
        <time>2011-10-15T13:26:07Z</time>
      </trkpt>
      <trkpt lat="44.19721" lon="4.10204">
        <ele>315.93</ele>
        <time>2011-10-15T13:26:09Z</time>
      </trkpt>
      <trkpt lat="44.19717" lon="4.10207">
        <ele>315.93</ele>
        <time>2011-10-15T13:26:10Z</time>
      </trkpt>
      <trkpt lat="44.19712" lon="4.10209">
        <ele>315.45</ele>
        <time>2011-10-15T13:26:11Z</time>
      </trkpt>
      <trkpt lat="44.19703" lon="4.10214">
        <ele>314.97</ele>
        <time>2011-10-15T13:26:13Z</time>
      </trkpt>
      <trkpt lat="44.19669" lon="4.10238">
        <ele>312.09</ele>
        <time>2011-10-15T13:26:20Z</time>
      </trkpt>
      <trkpt lat="44.19663" lon="4.10242">
        <ele>312.09</ele>
        <time>2011-10-15T13:26:21Z</time>
      </trkpt>
      <trkpt lat="44.19658" lon="4.10246">
        <ele>312.09</ele>
        <time>2011-10-15T13:26:22Z</time>
      </trkpt>
      <trkpt lat="44.19642" lon="4.10259">
        <ele>310.16</ele>
        <time>2011-10-15T13:26:25Z</time>
      </trkpt>
      <trkpt lat="44.19638" lon="4.10265">
        <ele>308.72</ele>
        <time>2011-10-15T13:26:26Z</time>
      </trkpt>
      <trkpt lat="44.19633" lon="4.10271">
        <ele>308.24</ele>
        <time>2011-10-15T13:26:27Z</time>
      </trkpt>
      <trkpt lat="44.19629" lon="4.10276">
        <ele>308.24</ele>
        <time>2011-10-15T13:26:28Z</time>
      </trkpt>
      <trkpt lat="44.19624" lon="4.10279">
        <ele>307.76</ele>
        <time>2011-10-15T13:26:29Z</time>
      </trkpt>
      <trkpt lat="44.19618" lon="4.1028">
        <ele>306.8</ele>
        <time>2011-10-15T13:26:30Z</time>
      </trkpt>
      <trkpt lat="44.19612" lon="4.1028">
        <ele>306.32</ele>
        <time>2011-10-15T13:26:31Z</time>
      </trkpt>
      <trkpt lat="44.19606" lon="4.1028">
        <ele>305.84</ele>
        <time>2011-10-15T13:26:32Z</time>
      </trkpt>
      <trkpt lat="44.19601" lon="4.10279">
        <ele>305.84</ele>
        <time>2011-10-15T13:26:33Z</time>
      </trkpt>
      <trkpt lat="44.19594" lon="4.10278">
        <ele>305.36</ele>
        <time>2011-10-15T13:26:34Z</time>
      </trkpt>
      <trkpt lat="44.19589" lon="4.10277">
        <ele>304.88</ele>
        <time>2011-10-15T13:26:35Z</time>
      </trkpt>
      <trkpt lat="44.19583" lon="4.10275">
        <ele>304.88</ele>
        <time>2011-10-15T13:26:36Z</time>
      </trkpt>
      <trkpt lat="44.19577" lon="4.10275">
        <ele>303.43</ele>
        <time>2011-10-15T13:26:37Z</time>
      </trkpt>
      <trkpt lat="44.19572" lon="4.10274">
        <ele>303.91</ele>
        <time>2011-10-15T13:26:38Z</time>
      </trkpt>
      <trkpt lat="44.19548" lon="4.10271">
        <ele>301.99</ele>
        <time>2011-10-15T13:26:42Z</time>
      </trkpt>
      <trkpt lat="44.19502" lon="4.10274">
        <ele>300.07</ele>
        <time>2011-10-15T13:26:52Z</time>
      </trkpt>
      <trkpt lat="44.19471" lon="4.10284">
        <ele>299.11</ele>
        <time>2011-10-15T13:26:57Z</time>
      </trkpt>
      <trkpt lat="44.19466" lon="4.10288">
        <ele>299.11</ele>
        <time>2011-10-15T13:26:58Z</time>
      </trkpt>
      <trkpt lat="44.19462" lon="4.10293">
        <ele>298.63</ele>
        <time>2011-10-15T13:26:59Z</time>
      </trkpt>
      <trkpt lat="44.19458" lon="4.10299">
        <ele>298.63</ele>
        <time>2011-10-15T13:27:00Z</time>
      </trkpt>
      <trkpt lat="44.19455" lon="4.10303">
        <ele>298.63</ele>
        <time>2011-10-15T13:27:01Z</time>
      </trkpt>
      <trkpt lat="44.19453" lon="4.10308">
        <ele>299.11</ele>
        <time>2011-10-15T13:27:02Z</time>
      </trkpt>
      <trkpt lat="44.19453" lon="4.10315">
        <ele>297.67</ele>
        <time>2011-10-15T13:27:03Z</time>
      </trkpt>
      <trkpt lat="44.19452" lon="4.10323">
        <ele>297.67</ele>
        <time>2011-10-15T13:27:04Z</time>
      </trkpt>
      <trkpt lat="44.19451" lon="4.10331">
        <ele>297.18</ele>
        <time>2011-10-15T13:27:05Z</time>
      </trkpt>
      <trkpt lat="44.19447" lon="4.10339">
        <ele>296.22</ele>
        <time>2011-10-15T13:27:06Z</time>
      </trkpt>
      <trkpt lat="44.19442" lon="4.10346">
        <ele>295.26</ele>
        <time>2011-10-15T13:27:07Z</time>
      </trkpt>
      <trkpt lat="44.19426" lon="4.10377">
        <ele>292.38</ele>
        <time>2011-10-15T13:27:11Z</time>
      </trkpt>
      <trkpt lat="44.19422" lon="4.10384">
        <ele>290.94</ele>
        <time>2011-10-15T13:27:12Z</time>
      </trkpt>
      <trkpt lat="44.19417" lon="4.1039">
        <ele>290.46</ele>
        <time>2011-10-15T13:27:13Z</time>
      </trkpt>
      <trkpt lat="44.19412" lon="4.10395">
        <ele>289.01</ele>
        <time>2011-10-15T13:27:14Z</time>
      </trkpt>
      <trkpt lat="44.19406" lon="4.10399">
        <ele>289.01</ele>
        <time>2011-10-15T13:27:15Z</time>
      </trkpt>
      <trkpt lat="44.194" lon="4.10403">
        <ele>288.05</ele>
        <time>2011-10-15T13:27:16Z</time>
      </trkpt>
      <trkpt lat="44.19394" lon="4.10407">
        <ele>287.09</ele>
        <time>2011-10-15T13:27:17Z</time>
      </trkpt>
      <trkpt lat="44.19385" lon="4.10407">
        <ele>286.61</ele>
        <time>2011-10-15T13:27:18Z</time>
      </trkpt>
      <trkpt lat="44.19375" lon="4.10408">
        <ele>284.69</ele>
        <time>2011-10-15T13:27:19Z</time>
      </trkpt>
      <trkpt lat="44.19366" lon="4.1041">
        <ele>283.73</ele>
        <time>2011-10-15T13:27:20Z</time>
      </trkpt>
      <trkpt lat="44.19357" lon="4.10412">
        <ele>283.73</ele>
        <time>2011-10-15T13:27:21Z</time>
      </trkpt>
      <trkpt lat="44.19349" lon="4.10416">
        <ele>282.28</ele>
        <time>2011-10-15T13:27:22Z</time>
      </trkpt>
      <trkpt lat="44.19342" lon="4.10421">
        <ele>282.77</ele>
        <time>2011-10-15T13:27:23Z</time>
      </trkpt>
      <trkpt lat="44.19321" lon="4.10437">
        <ele>281.32</ele>
        <time>2011-10-15T13:27:26Z</time>
      </trkpt>
      <trkpt lat="44.19308" lon="4.10453">
        <ele>278.92</ele>
        <time>2011-10-15T13:27:28Z</time>
      </trkpt>
      <trkpt lat="44.19296" lon="4.10471">
        <ele>276.04</ele>
        <time>2011-10-15T13:27:30Z</time>
      </trkpt>
      <trkpt lat="44.1929" lon="4.10478">
        <ele>275.07</ele>
        <time>2011-10-15T13:27:31Z</time>
      </trkpt>
      <trkpt lat="44.19284" lon="4.10484">
        <ele>273.15</ele>
        <time>2011-10-15T13:27:32Z</time>
      </trkpt>
      <trkpt lat="44.19266" lon="4.10501">
        <ele>269.79</ele>
        <time>2011-10-15T13:27:35Z</time>
      </trkpt>
      <trkpt lat="44.19255" lon="4.10511">
        <ele>267.86</ele>
        <time>2011-10-15T13:27:37Z</time>
      </trkpt>
      <trkpt lat="44.19249" lon="4.10515">
        <ele>267.38</ele>
        <time>2011-10-15T13:27:38Z</time>
      </trkpt>
      <trkpt lat="44.19243" lon="4.10519">
        <ele>265.94</ele>
        <time>2011-10-15T13:27:39Z</time>
      </trkpt>
      <trkpt lat="44.19237" lon="4.10523">
        <ele>264.98</ele>
        <time>2011-10-15T13:27:40Z</time>
      </trkpt>
      <trkpt lat="44.1923" lon="4.10528">
        <ele>264.02</ele>
        <time>2011-10-15T13:27:41Z</time>
      </trkpt>
      <trkpt lat="44.19216" lon="4.10537">
        <ele>261.14</ele>
        <time>2011-10-15T13:27:43Z</time>
      </trkpt>
      <trkpt lat="44.19194" lon="4.10547">
        <ele>257.29</ele>
        <time>2011-10-15T13:27:46Z</time>
      </trkpt>
      <trkpt lat="44.19177" lon="4.10555">
        <ele>253.44</ele>
        <time>2011-10-15T13:27:48Z</time>
      </trkpt>
      <trkpt lat="44.19161" lon="4.10562">
        <ele>249.6</ele>
        <time>2011-10-15T13:27:50Z</time>
      </trkpt>
      <trkpt lat="44.19137" lon="4.10573">
        <ele>246.23</ele>
        <time>2011-10-15T13:27:53Z</time>
      </trkpt>
      <trkpt lat="44.19121" lon="4.10582">
        <ele>242.39</ele>
        <time>2011-10-15T13:27:55Z</time>
      </trkpt>
      <trkpt lat="44.19113" lon="4.10588">
        <ele>239.99</ele>
        <time>2011-10-15T13:27:56Z</time>
      </trkpt>
      <trkpt lat="44.19096" lon="4.10603">
        <ele>236.62</ele>
        <time>2011-10-15T13:27:58Z</time>
      </trkpt>
      <trkpt lat="44.19077" lon="4.10623">
        <ele>232.3</ele>
        <time>2011-10-15T13:28:01Z</time>
      </trkpt>
      <trkpt lat="44.19058" lon="4.10642">
        <ele>228.93</ele>
        <time>2011-10-15T13:28:04Z</time>
      </trkpt>
      <trkpt lat="44.19044" lon="4.10653">
        <ele>227.49</ele>
        <time>2011-10-15T13:28:06Z</time>
      </trkpt>
      <trkpt lat="44.19003" lon="4.10685">
        <ele>224.12</ele>
        <time>2011-10-15T13:28:13Z</time>
      </trkpt>
      <trkpt lat="44.18999" lon="4.10688">
        <ele>224.12</ele>
        <time>2011-10-15T13:28:14Z</time>
      </trkpt>
      <trkpt lat="44.18997" lon="4.10691">
        <ele>223.64</ele>
        <time>2011-10-15T13:28:15Z</time>
      </trkpt>
      <trkpt lat="44.18995" lon="4.10695">
        <ele>222.68</ele>
        <time>2011-10-15T13:28:16Z</time>
      </trkpt>
      <trkpt lat="44.18995" lon="4.10699">
        <ele>222.68</ele>
        <time>2011-10-15T13:28:17Z</time>
      </trkpt>
      <trkpt lat="44.18995" lon="4.10704">
        <ele>222.2</ele>
        <time>2011-10-15T13:28:18Z</time>
      </trkpt>
      <trkpt lat="44.18996" lon="4.10708">
        <ele>222.68</ele>
        <time>2011-10-15T13:28:19Z</time>
      </trkpt>
      <trkpt lat="44.18998" lon="4.10712">
        <ele>223.16</ele>
        <time>2011-10-15T13:28:20Z</time>
      </trkpt>
      <trkpt lat="44.18998" lon="4.10717">
        <ele>222.68</ele>
        <time>2011-10-15T13:28:21Z</time>
      </trkpt>
      <trkpt lat="44.18998" lon="4.10721">
        <ele>222.2</ele>
        <time>2011-10-15T13:28:22Z</time>
      </trkpt>
      <trkpt lat="44.18996" lon="4.10726">
        <ele>222.68</ele>
        <time>2011-10-15T13:28:23Z</time>
      </trkpt>
      <trkpt lat="44.18994" lon="4.10729">
        <ele>222.2</ele>
        <time>2011-10-15T13:28:24Z</time>
      </trkpt>
      <trkpt lat="44.18993" lon="4.10733">
        <ele>223.16</ele>
        <time>2011-10-15T13:28:25Z</time>
      </trkpt>
      <trkpt lat="44.18991" lon="4.10736">
        <ele>223.16</ele>
        <time>2011-10-15T13:28:26Z</time>
      </trkpt>
      <trkpt lat="44.18986" lon="4.10742">
        <ele>222.2</ele>
        <time>2011-10-15T13:28:36Z</time>
      </trkpt>
      <trkpt lat="44.18986" lon="4.10742">
        <ele>222.2</ele>
        <time>2011-10-15T13:28:57Z</time>
      </trkpt>
      <trkpt lat="44.18987" lon="4.10744">
        <ele>222.2</ele>
        <time>2011-10-15T13:29:00Z</time>
      </trkpt>
      <trkpt lat="44.18988" lon="4.10745">
        <ele>221.72</ele>
        <time>2011-10-15T13:29:18Z</time>
      </trkpt>
      <trkpt lat="44.18988" lon="4.10745">
        <ele>222.2</ele>
        <time>2011-10-15T13:29:53Z</time>
      </trkpt>
      <trkpt lat="44.18988" lon="4.10745">
        <ele>222.2</ele>
        <time>2011-10-15T13:30:32Z</time>
      </trkpt>
      <trkpt lat="44.18988" lon="4.10745">
        <ele>221.72</ele>
        <time>2011-10-15T13:31:05Z</time>
      </trkpt>
      <trkpt lat="44.18988" lon="4.10745">
        <ele>221.72</ele>
        <time>2011-10-15T13:31:29Z</time>
      </trkpt>
      <trkpt lat="44.18988" lon="4.10744">
        <ele>222.2</ele>
        <time>2011-10-15T13:31:57Z</time>
      </trkpt>
      <trkpt lat="44.18988" lon="4.10744">
        <ele>222.2</ele>
        <time>2011-10-15T13:32:21Z</time>
      </trkpt>
      <trkpt lat="44.18988" lon="4.10744">
        <ele>221.72</ele>
        <time>2011-10-15T13:32:51Z</time>
      </trkpt>
      <trkpt lat="44.18988" lon="4.10744">
        <ele>222.68</ele>
        <time>2011-10-15T13:33:23Z</time>
      </trkpt>
      <trkpt lat="44.18987" lon="4.10744">
        <ele>222.68</ele>
        <time>2011-10-15T13:33:54Z</time>
      </trkpt>
      <trkpt lat="44.18987" lon="4.10744">
        <ele>222.68</ele>
        <time>2011-10-15T13:34:20Z</time>
      </trkpt>
      <trkpt lat="44.18988" lon="4.10743">
        <ele>222.2</ele>
        <time>2011-10-15T13:34:46Z</time>
      </trkpt>
      <trkpt lat="44.18988" lon="4.10743">
        <ele>222.68</ele>
        <time>2011-10-15T13:35:12Z</time>
      </trkpt>
      <trkpt lat="44.18988" lon="4.10743">
        <ele>222.2</ele>
        <time>2011-10-15T13:35:38Z</time>
      </trkpt>
      <trkpt lat="44.18987" lon="4.10743">
        <ele>223.64</ele>
        <time>2011-10-15T13:36:11Z</time>
      </trkpt>
      <trkpt lat="44.18988" lon="4.10743">
        <ele>222.68</ele>
        <time>2011-10-15T13:36:48Z</time>
      </trkpt>
      <trkpt lat="44.18988" lon="4.10744">
        <ele>222.2</ele>
        <time>2011-10-15T13:37:23Z</time>
      </trkpt>
      <trkpt lat="44.18988" lon="4.10744">
        <ele>223.64</ele>
        <time>2011-10-15T13:38:01Z</time>
      </trkpt>
      <trkpt lat="44.18988" lon="4.10744">
        <ele>223.64</ele>
        <time>2011-10-15T13:38:36Z</time>
      </trkpt>
      <trkpt lat="44.18988" lon="4.10744">
        <ele>223.64</ele>
        <time>2011-10-15T13:39:11Z</time>
      </trkpt>
      <trkpt lat="44.18986" lon="4.1075">
        <ele>223.16</ele>
        <time>2011-10-15T13:39:19Z</time>
      </trkpt>
      <trkpt lat="44.18986" lon="4.10752">
        <ele>223.16</ele>
        <time>2011-10-15T13:39:20Z</time>
      </trkpt>
      <trkpt lat="44.18986" lon="4.10756">
        <ele>223.64</ele>
        <time>2011-10-15T13:39:21Z</time>
      </trkpt>
      <trkpt lat="44.18993" lon="4.108">
        <ele>223.64</ele>
        <time>2011-10-15T13:39:32Z</time>
      </trkpt>
      <trkpt lat="44.19007" lon="4.10859">
        <ele>223.16</ele>
        <time>2011-10-15T13:39:44Z</time>
      </trkpt>
      <trkpt lat="44.19009" lon="4.10864">
        <ele>223.64</ele>
        <time>2011-10-15T13:39:45Z</time>
      </trkpt>
      <trkpt lat="44.19022" lon="4.10887">
        <ele>224.12</ele>
        <time>2011-10-15T13:39:50Z</time>
      </trkpt>
      <trkpt lat="44.19025" lon="4.10892">
        <ele>223.16</ele>
        <time>2011-10-15T13:39:51Z</time>
      </trkpt>
      <trkpt lat="44.19028" lon="4.10896">
        <ele>223.64</ele>
        <time>2011-10-15T13:39:52Z</time>
      </trkpt>
      <trkpt lat="44.19031" lon="4.10901">
        <ele>223.64</ele>
        <time>2011-10-15T13:39:53Z</time>
      </trkpt>
      <trkpt lat="44.19033" lon="4.10906">
        <ele>223.16</ele>
        <time>2011-10-15T13:39:54Z</time>
      </trkpt>
      <trkpt lat="44.19035" lon="4.10909">
        <ele>222.68</ele>
        <time>2011-10-15T13:39:55Z</time>
      </trkpt>
      <trkpt lat="44.19036" lon="4.1091">
        <ele>223.16</ele>
        <time>2011-10-15T13:39:56Z</time>
      </trkpt>
      <trkpt lat="44.19036" lon="4.10912">
        <ele>223.16</ele>
        <time>2011-10-15T13:39:57Z</time>
      </trkpt>
      <trkpt lat="44.19037" lon="4.10914">
        <ele>222.68</ele>
        <time>2011-10-15T13:39:58Z</time>
      </trkpt>
      <trkpt lat="44.19039" lon="4.10915">
        <ele>222.68</ele>
        <time>2011-10-15T13:39:59Z</time>
      </trkpt>
      <trkpt lat="44.19042" lon="4.10921">
        <ele>222.68</ele>
        <time>2011-10-15T13:40:03Z</time>
      </trkpt>
      <trkpt lat="44.19042" lon="4.10922">
        <ele>222.68</ele>
        <time>2011-10-15T13:40:14Z</time>
      </trkpt>
      <trkpt lat="44.19039" lon="4.10921">
        <ele>223.16</ele>
        <time>2011-10-15T13:40:22Z</time>
      </trkpt>
      <trkpt lat="44.19037" lon="4.10922">
        <ele>222.2</ele>
        <time>2011-10-15T13:40:24Z</time>
      </trkpt>
      <trkpt lat="44.19035" lon="4.10921">
        <ele>221.24</ele>
        <time>2011-10-15T13:40:28Z</time>
      </trkpt>
      <trkpt lat="44.19021" lon="4.10917">
        <ele>221.72</ele>
        <time>2011-10-15T13:40:37Z</time>
      </trkpt>
      <trkpt lat="44.19012" lon="4.10921">
        <ele>222.68</ele>
        <time>2011-10-15T13:40:46Z</time>
      </trkpt>
      <trkpt lat="44.19013" lon="4.1093">
        <ele>224.61</ele>
        <time>2011-10-15T13:40:57Z</time>
      </trkpt>
      <trkpt lat="44.19016" lon="4.10938">
        <ele>225.57</ele>
        <time>2011-10-15T13:41:11Z</time>
      </trkpt>
      <trkpt lat="44.19013" lon="4.1094">
        <ele>226.05</ele>
        <time>2011-10-15T13:41:15Z</time>
      </trkpt>
      <trkpt lat="44.1901" lon="4.10944">
        <ele>227.49</ele>
        <time>2011-10-15T13:41:18Z</time>
      </trkpt>
      <trkpt lat="44.19005" lon="4.10946">
        <ele>227.97</ele>
        <time>2011-10-15T13:41:23Z</time>
      </trkpt>
      <trkpt lat="44.19002" lon="4.10954">
        <ele>229.41</ele>
        <time>2011-10-15T13:41:29Z</time>
      </trkpt>
      <trkpt lat="44.19004" lon="4.10962">
        <ele>230.37</ele>
        <time>2011-10-15T13:41:33Z</time>
      </trkpt>
      <trkpt lat="44.19003" lon="4.10969">
        <ele>230.85</ele>
        <time>2011-10-15T13:41:39Z</time>
      </trkpt>
      <trkpt lat="44.19002" lon="4.10981">
        <ele>233.26</ele>
        <time>2011-10-15T13:41:46Z</time>
      </trkpt>
      <trkpt lat="44.18992" lon="4.11">
        <ele>235.18</ele>
        <time>2011-10-15T13:41:58Z</time>
      </trkpt>
      <trkpt lat="44.18988" lon="4.11009">
        <ele>236.62</ele>
        <time>2011-10-15T13:42:09Z</time>
      </trkpt>
      <trkpt lat="44.18982" lon="4.11023">
        <ele>237.1</ele>
        <time>2011-10-15T13:42:21Z</time>
      </trkpt>
      <trkpt lat="44.18978" lon="4.11031">
        <ele>238.06</ele>
        <time>2011-10-15T13:42:26Z</time>
      </trkpt>
      <trkpt lat="44.18972" lon="4.1104">
        <ele>238.06</ele>
        <time>2011-10-15T13:42:35Z</time>
      </trkpt>
      <trkpt lat="44.18971" lon="4.11044">
        <ele>238.06</ele>
        <time>2011-10-15T13:42:50Z</time>
      </trkpt>
      <trkpt lat="44.18971" lon="4.11045">
        <ele>238.06</ele>
        <time>2011-10-15T13:43:17Z</time>
      </trkpt>
      <trkpt lat="44.18971" lon="4.11045">
        <ele>236.62</ele>
        <time>2011-10-15T13:43:49Z</time>
      </trkpt>
      <trkpt lat="44.18971" lon="4.11045">
        <ele>236.14</ele>
        <time>2011-10-15T13:44:17Z</time>
      </trkpt>
      <trkpt lat="44.18971" lon="4.11044">
        <ele>236.14</ele>
        <time>2011-10-15T13:44:43Z</time>
      </trkpt>
      <trkpt lat="44.18971" lon="4.11044">
        <ele>236.14</ele>
        <time>2011-10-15T13:45:01Z</time>
      </trkpt>
      <trkpt lat="44.18972" lon="4.11046">
        <ele>236.62</ele>
        <time>2011-10-15T13:45:03Z</time>
      </trkpt>
      <trkpt lat="44.18975" lon="4.11058">
        <ele>236.62</ele>
        <time>2011-10-15T13:45:08Z</time>
      </trkpt>
      <trkpt lat="44.18977" lon="4.11067">
        <ele>237.1</ele>
        <time>2011-10-15T13:45:12Z</time>
      </trkpt>
      <trkpt lat="44.18976" lon="4.11095">
        <ele>238.54</ele>
        <time>2011-10-15T13:45:24Z</time>
      </trkpt>
      <trkpt lat="44.18968" lon="4.11125">
        <ele>239.51</ele>
        <time>2011-10-15T13:45:36Z</time>
      </trkpt>
      <trkpt lat="44.1896" lon="4.11155">
        <ele>239.51</ele>
        <time>2011-10-15T13:45:50Z</time>
      </trkpt>
      <trkpt lat="44.18955" lon="4.11168">
        <ele>239.99</ele>
        <time>2011-10-15T13:45:55Z</time>
      </trkpt>
      <trkpt lat="44.18954" lon="4.11173">
        <ele>240.47</ele>
        <time>2011-10-15T13:45:57Z</time>
      </trkpt>
      <trkpt lat="44.18951" lon="4.11181">
        <ele>240.95</ele>
        <time>2011-10-15T13:46:01Z</time>
      </trkpt>
      <trkpt lat="44.18942" lon="4.11205">
        <ele>241.91</ele>
        <time>2011-10-15T13:46:14Z</time>
      </trkpt>
      <trkpt lat="44.18944" lon="4.11206">
        <ele>242.39</ele>
        <time>2011-10-15T13:46:15Z</time>
      </trkpt>
      <trkpt lat="44.18963" lon="4.11225">
        <ele>245.75</ele>
        <time>2011-10-15T13:46:27Z</time>
      </trkpt>
      <trkpt lat="44.18964" lon="4.11227">
        <ele>245.27</ele>
        <time>2011-10-15T13:46:28Z</time>
      </trkpt>
      <trkpt lat="44.18975" lon="4.11232">
        <ele>247.2</ele>
        <time>2011-10-15T13:46:35Z</time>
      </trkpt>
      <trkpt lat="44.18976" lon="4.11234">
        <ele>247.68</ele>
        <time>2011-10-15T13:46:37Z</time>
      </trkpt>
      <trkpt lat="44.1898" lon="4.11242">
        <ele>249.6</ele>
        <time>2011-10-15T13:46:45Z</time>
      </trkpt>
      <trkpt lat="44.18977" lon="4.11248">
        <ele>249.6</ele>
        <time>2011-10-15T13:46:49Z</time>
      </trkpt>
      <trkpt lat="44.18955" lon="4.11276">
        <ele>249.6</ele>
        <time>2011-10-15T13:47:01Z</time>
      </trkpt>
      <trkpt lat="44.1894" lon="4.11294">
        <ele>249.12</ele>
        <time>2011-10-15T13:47:06Z</time>
      </trkpt>
      <trkpt lat="44.18937" lon="4.11299">
        <ele>249.12</ele>
        <time>2011-10-15T13:47:07Z</time>
      </trkpt>
      <trkpt lat="44.18935" lon="4.11304">
        <ele>248.64</ele>
        <time>2011-10-15T13:47:08Z</time>
      </trkpt>
      <trkpt lat="44.18934" lon="4.11309">
        <ele>248.16</ele>
        <time>2011-10-15T13:47:09Z</time>
      </trkpt>
      <trkpt lat="44.18933" lon="4.11314">
        <ele>248.16</ele>
        <time>2011-10-15T13:47:10Z</time>
      </trkpt>
      <trkpt lat="44.18932" lon="4.11319">
        <ele>247.68</ele>
        <time>2011-10-15T13:47:11Z</time>
      </trkpt>
      <trkpt lat="44.18931" lon="4.11324">
        <ele>247.68</ele>
        <time>2011-10-15T13:47:12Z</time>
      </trkpt>
      <trkpt lat="44.18928" lon="4.11327">
        <ele>246.72</ele>
        <time>2011-10-15T13:47:13Z</time>
      </trkpt>
      <trkpt lat="44.18925" lon="4.1133">
        <ele>246.72</ele>
        <time>2011-10-15T13:47:14Z</time>
      </trkpt>
      <trkpt lat="44.18921" lon="4.11333">
        <ele>246.72</ele>
        <time>2011-10-15T13:47:15Z</time>
      </trkpt>
      <trkpt lat="44.18919" lon="4.11336">
        <ele>246.23</ele>
        <time>2011-10-15T13:47:16Z</time>
      </trkpt>
      <trkpt lat="44.18917" lon="4.1134">
        <ele>246.23</ele>
        <time>2011-10-15T13:47:17Z</time>
      </trkpt>
      <trkpt lat="44.18915" lon="4.11343">
        <ele>245.75</ele>
        <time>2011-10-15T13:47:18Z</time>
      </trkpt>
      <trkpt lat="44.18912" lon="4.11344">
        <ele>244.79</ele>
        <time>2011-10-15T13:47:19Z</time>
      </trkpt>
      <trkpt lat="44.18909" lon="4.11347">
        <ele>244.79</ele>
        <time>2011-10-15T13:47:20Z</time>
      </trkpt>
      <trkpt lat="44.18898" lon="4.11356">
        <ele>243.83</ele>
        <time>2011-10-15T13:47:23Z</time>
      </trkpt>
      <trkpt lat="44.18894" lon="4.11359">
        <ele>243.35</ele>
        <time>2011-10-15T13:47:24Z</time>
      </trkpt>
      <trkpt lat="44.18879" lon="4.11366">
        <ele>243.83</ele>
        <time>2011-10-15T13:47:27Z</time>
      </trkpt>
      <trkpt lat="44.18871" lon="4.11374">
        <ele>241.91</ele>
        <time>2011-10-15T13:47:29Z</time>
      </trkpt>
      <trkpt lat="44.18867" lon="4.11377">
        <ele>241.91</ele>
        <time>2011-10-15T13:47:30Z</time>
      </trkpt>
      <trkpt lat="44.18858" lon="4.11384">
        <ele>240.95</ele>
        <time>2011-10-15T13:47:32Z</time>
      </trkpt>
      <trkpt lat="44.18853" lon="4.11386">
        <ele>240.95</ele>
        <time>2011-10-15T13:47:33Z</time>
      </trkpt>
      <trkpt lat="44.18847" lon="4.11388">
        <ele>239.99</ele>
        <time>2011-10-15T13:47:34Z</time>
      </trkpt>
      <trkpt lat="44.18843" lon="4.11389">
        <ele>239.51</ele>
        <time>2011-10-15T13:47:35Z</time>
      </trkpt>
      <trkpt lat="44.18838" lon="4.11389">
        <ele>239.02</ele>
        <time>2011-10-15T13:47:36Z</time>
      </trkpt>
      <trkpt lat="44.18833" lon="4.11389">
        <ele>239.02</ele>
        <time>2011-10-15T13:47:37Z</time>
      </trkpt>
      <trkpt lat="44.18828" lon="4.11389">
        <ele>238.54</ele>
        <time>2011-10-15T13:47:38Z</time>
      </trkpt>
      <trkpt lat="44.18824" lon="4.11389">
        <ele>237.1</ele>
        <time>2011-10-15T13:47:39Z</time>
      </trkpt>
      <trkpt lat="44.1882" lon="4.11389">
        <ele>236.62</ele>
        <time>2011-10-15T13:47:40Z</time>
      </trkpt>
      <trkpt lat="44.18816" lon="4.11389">
        <ele>236.14</ele>
        <time>2011-10-15T13:47:41Z</time>
      </trkpt>
      <trkpt lat="44.18812" lon="4.11389">
        <ele>236.14</ele>
        <time>2011-10-15T13:47:42Z</time>
      </trkpt>
      <trkpt lat="44.18804" lon="4.1139">
        <ele>232.3</ele>
        <time>2011-10-15T13:47:46Z</time>
      </trkpt>
      <trkpt lat="44.18793" lon="4.11398">
        <ele>229.41</ele>
        <time>2011-10-15T13:47:52Z</time>
      </trkpt>
      <trkpt lat="44.18784" lon="4.114">
        <ele>227.49</ele>
        <time>2011-10-15T13:47:55Z</time>
      </trkpt>
      <trkpt lat="44.18776" lon="4.11401">
        <ele>226.53</ele>
        <time>2011-10-15T13:47:57Z</time>
      </trkpt>
      <trkpt lat="44.18764" lon="4.11406">
        <ele>224.12</ele>
        <time>2011-10-15T13:48:00Z</time>
      </trkpt>
      <trkpt lat="44.18758" lon="4.11407">
        <ele>223.64</ele>
        <time>2011-10-15T13:48:01Z</time>
      </trkpt>
      <trkpt lat="44.18752" lon="4.11407">
        <ele>223.16</ele>
        <time>2011-10-15T13:48:02Z</time>
      </trkpt>
      <trkpt lat="44.18748" lon="4.11409">
        <ele>222.2</ele>
        <time>2011-10-15T13:48:03Z</time>
      </trkpt>
      <trkpt lat="44.18743" lon="4.11411">
        <ele>221.72</ele>
        <time>2011-10-15T13:48:04Z</time>
      </trkpt>
      <trkpt lat="44.18738" lon="4.11413">
        <ele>221.72</ele>
        <time>2011-10-15T13:48:05Z</time>
      </trkpt>
      <trkpt lat="44.18733" lon="4.11416">
        <ele>221.24</ele>
        <time>2011-10-15T13:48:06Z</time>
      </trkpt>
      <trkpt lat="44.18727" lon="4.11418">
        <ele>220.76</ele>
        <time>2011-10-15T13:48:07Z</time>
      </trkpt>
      <trkpt lat="44.18722" lon="4.11419">
        <ele>221.24</ele>
        <time>2011-10-15T13:48:08Z</time>
      </trkpt>
      <trkpt lat="44.18716" lon="4.11421">
        <ele>220.28</ele>
        <time>2011-10-15T13:48:09Z</time>
      </trkpt>
      <trkpt lat="44.1871" lon="4.11422">
        <ele>220.76</ele>
        <time>2011-10-15T13:48:10Z</time>
      </trkpt>
      <trkpt lat="44.18704" lon="4.11424">
        <ele>219.8</ele>
        <time>2011-10-15T13:48:11Z</time>
      </trkpt>
      <trkpt lat="44.18688" lon="4.1143">
        <ele>218.36</ele>
        <time>2011-10-15T13:48:14Z</time>
      </trkpt>
      <trkpt lat="44.18678" lon="4.11431">
        <ele>217.4</ele>
        <time>2011-10-15T13:48:16Z</time>
      </trkpt>
      <trkpt lat="44.18672" lon="4.1143">
        <ele>216.91</ele>
        <time>2011-10-15T13:48:17Z</time>
      </trkpt>
      <trkpt lat="44.18667" lon="4.11429">
        <ele>216.43</ele>
        <time>2011-10-15T13:48:18Z</time>
      </trkpt>
      <trkpt lat="44.18662" lon="4.11429">
        <ele>214.99</ele>
        <time>2011-10-15T13:48:19Z</time>
      </trkpt>
      <trkpt lat="44.18658" lon="4.11429">
        <ele>214.99</ele>
        <time>2011-10-15T13:48:20Z</time>
      </trkpt>
      <trkpt lat="44.18654" lon="4.11429">
        <ele>214.51</ele>
        <time>2011-10-15T13:48:21Z</time>
      </trkpt>
      <trkpt lat="44.1865" lon="4.11428">
        <ele>213.55</ele>
        <time>2011-10-15T13:48:22Z</time>
      </trkpt>
      <trkpt lat="44.18648" lon="4.11428">
        <ele>212.59</ele>
        <time>2011-10-15T13:48:24Z</time>
      </trkpt>
      <trkpt lat="44.18648" lon="4.11429">
        <ele>213.07</ele>
        <time>2011-10-15T13:48:32Z</time>
      </trkpt>
      <trkpt lat="44.18648" lon="4.1143">
        <ele>213.07</ele>
        <time>2011-10-15T13:48:33Z</time>
      </trkpt>
      <trkpt lat="44.18649" lon="4.11431">
        <ele>214.03</ele>
        <time>2011-10-15T13:48:47Z</time>
      </trkpt>
      <trkpt lat="44.18648" lon="4.11431">
        <ele>213.55</ele>
        <time>2011-10-15T13:48:57Z</time>
      </trkpt>
      <trkpt lat="44.18646" lon="4.11428">
        <ele>213.07</ele>
        <time>2011-10-15T13:48:58Z</time>
      </trkpt>
      <trkpt lat="44.18645" lon="4.11425">
        <ele>213.07</ele>
        <time>2011-10-15T13:48:59Z</time>
      </trkpt>
      <trkpt lat="44.18643" lon="4.11422">
        <ele>212.59</ele>
        <time>2011-10-15T13:49:00Z</time>
      </trkpt>
      <trkpt lat="44.1864" lon="4.11417">
        <ele>212.59</ele>
        <time>2011-10-15T13:49:01Z</time>
      </trkpt>
      <trkpt lat="44.18637" lon="4.11413">
        <ele>212.11</ele>
        <time>2011-10-15T13:49:02Z</time>
      </trkpt>
      <trkpt lat="44.18632" lon="4.1141">
        <ele>212.11</ele>
        <time>2011-10-15T13:49:03Z</time>
      </trkpt>
      <trkpt lat="44.18628" lon="4.11405">
        <ele>212.59</ele>
        <time>2011-10-15T13:49:04Z</time>
      </trkpt>
      <trkpt lat="44.18612" lon="4.11385">
        <ele>212.11</ele>
        <time>2011-10-15T13:49:08Z</time>
      </trkpt>
      <trkpt lat="44.18608" lon="4.11381">
        <ele>211.63</ele>
        <time>2011-10-15T13:49:09Z</time>
      </trkpt>
      <trkpt lat="44.18604" lon="4.11377">
        <ele>211.63</ele>
        <time>2011-10-15T13:49:10Z</time>
      </trkpt>
      <trkpt lat="44.186" lon="4.11374">
        <ele>211.63</ele>
        <time>2011-10-15T13:49:11Z</time>
      </trkpt>
      <trkpt lat="44.18596" lon="4.11371">
        <ele>211.15</ele>
        <time>2011-10-15T13:49:12Z</time>
      </trkpt>
      <trkpt lat="44.18592" lon="4.11368">
        <ele>211.15</ele>
        <time>2011-10-15T13:49:13Z</time>
      </trkpt>
      <trkpt lat="44.18589" lon="4.11365">
        <ele>210.19</ele>
        <time>2011-10-15T13:49:14Z</time>
      </trkpt>
      <trkpt lat="44.18585" lon="4.11362">
        <ele>209.7</ele>
        <time>2011-10-15T13:49:15Z</time>
      </trkpt>
      <trkpt lat="44.1858" lon="4.11362">
        <ele>208.74</ele>
        <time>2011-10-15T13:49:16Z</time>
      </trkpt>
      <trkpt lat="44.18575" lon="4.11362">
        <ele>208.74</ele>
        <time>2011-10-15T13:49:17Z</time>
      </trkpt>
      <trkpt lat="44.1857" lon="4.11363">
        <ele>208.74</ele>
        <time>2011-10-15T13:49:18Z</time>
      </trkpt>
      <trkpt lat="44.18564" lon="4.11364">
        <ele>208.74</ele>
        <time>2011-10-15T13:49:19Z</time>
      </trkpt>
      <trkpt lat="44.18559" lon="4.11366">
        <ele>208.74</ele>
        <time>2011-10-15T13:49:20Z</time>
      </trkpt>
      <trkpt lat="44.18553" lon="4.11368">
        <ele>208.26</ele>
        <time>2011-10-15T13:49:21Z</time>
      </trkpt>
      <trkpt lat="44.18548" lon="4.1137">
        <ele>208.26</ele>
        <time>2011-10-15T13:49:22Z</time>
      </trkpt>
      <trkpt lat="44.18544" lon="4.11373">
        <ele>208.26</ele>
        <time>2011-10-15T13:49:23Z</time>
      </trkpt>
      <trkpt lat="44.1854" lon="4.11377">
        <ele>208.26</ele>
        <time>2011-10-15T13:49:24Z</time>
      </trkpt>
      <trkpt lat="44.18536" lon="4.1138">
        <ele>207.78</ele>
        <time>2011-10-15T13:49:25Z</time>
      </trkpt>
      <trkpt lat="44.18532" lon="4.11383">
        <ele>208.26</ele>
        <time>2011-10-15T13:49:26Z</time>
      </trkpt>
      <trkpt lat="44.18528" lon="4.11386">
        <ele>208.26</ele>
        <time>2011-10-15T13:49:27Z</time>
      </trkpt>
      <trkpt lat="44.18524" lon="4.11387">
        <ele>208.26</ele>
        <time>2011-10-15T13:49:28Z</time>
      </trkpt>
      <trkpt lat="44.18519" lon="4.11388">
        <ele>207.78</ele>
        <time>2011-10-15T13:49:29Z</time>
      </trkpt>
      <trkpt lat="44.18451" lon="4.11402">
        <ele>206.82</ele>
        <time>2011-10-15T13:49:42Z</time>
      </trkpt>
      <trkpt lat="44.18446" lon="4.11403">
        <ele>207.78</ele>
        <time>2011-10-15T13:49:43Z</time>
      </trkpt>
      <trkpt lat="44.18441" lon="4.11405">
        <ele>207.78</ele>
        <time>2011-10-15T13:49:44Z</time>
      </trkpt>
      <trkpt lat="44.18437" lon="4.11407">
        <ele>207.3</ele>
        <time>2011-10-15T13:49:45Z</time>
      </trkpt>
      <trkpt lat="44.18433" lon="4.1141">
        <ele>207.78</ele>
        <time>2011-10-15T13:49:46Z</time>
      </trkpt>
      <trkpt lat="44.1843" lon="4.11413">
        <ele>207.3</ele>
        <time>2011-10-15T13:49:47Z</time>
      </trkpt>
      <trkpt lat="44.18428" lon="4.11414">
        <ele>208.26</ele>
        <time>2011-10-15T13:49:48Z</time>
      </trkpt>
      <trkpt lat="44.18425" lon="4.11415">
        <ele>208.26</ele>
        <time>2011-10-15T13:49:49Z</time>
      </trkpt>
      <trkpt lat="44.18423" lon="4.11417">
        <ele>208.26</ele>
        <time>2011-10-15T13:49:50Z</time>
      </trkpt>
      <trkpt lat="44.18421" lon="4.11418">
        <ele>208.26</ele>
        <time>2011-10-15T13:49:51Z</time>
      </trkpt>
      <trkpt lat="44.1842" lon="4.11421">
        <ele>208.74</ele>
        <time>2011-10-15T13:49:52Z</time>
      </trkpt>
      <trkpt lat="44.18419" lon="4.11423">
        <ele>209.22</ele>
        <time>2011-10-15T13:49:53Z</time>
      </trkpt>
      <trkpt lat="44.18418" lon="4.11425">
        <ele>209.7</ele>
        <time>2011-10-15T13:49:54Z</time>
      </trkpt>
      <trkpt lat="44.18416" lon="4.11426">
        <ele>209.7</ele>
        <time>2011-10-15T13:49:55Z</time>
      </trkpt>
      <trkpt lat="44.18414" lon="4.11426">
        <ele>209.7</ele>
        <time>2011-10-15T13:49:56Z</time>
      </trkpt>
      <trkpt lat="44.18412" lon="4.11428">
        <ele>210.67</ele>
        <time>2011-10-15T13:49:57Z</time>
      </trkpt>
      <trkpt lat="44.1841" lon="4.11431">
        <ele>210.19</ele>
        <time>2011-10-15T13:49:58Z</time>
      </trkpt>
      <trkpt lat="44.18407" lon="4.11432">
        <ele>209.7</ele>
        <time>2011-10-15T13:49:59Z</time>
      </trkpt>
      <trkpt lat="44.18404" lon="4.11433">
        <ele>209.7</ele>
        <time>2011-10-15T13:50:00Z</time>
      </trkpt>
      <trkpt lat="44.18401" lon="4.11435">
        <ele>209.7</ele>
        <time>2011-10-15T13:50:01Z</time>
      </trkpt>
      <trkpt lat="44.18399" lon="4.11437">
        <ele>210.19</ele>
        <time>2011-10-15T13:50:02Z</time>
      </trkpt>
      <trkpt lat="44.18397" lon="4.11439">
        <ele>209.7</ele>
        <time>2011-10-15T13:50:03Z</time>
      </trkpt>
      <trkpt lat="44.18387" lon="4.11447">
        <ele>210.67</ele>
        <time>2011-10-15T13:50:08Z</time>
      </trkpt>
      <trkpt lat="44.18362" lon="4.11481">
        <ele>211.63</ele>
        <time>2011-10-15T13:50:19Z</time>
      </trkpt>
      <trkpt lat="44.18335" lon="4.11504">
        <ele>212.59</ele>
        <time>2011-10-15T13:50:30Z</time>
      </trkpt>
      <trkpt lat="44.1831" lon="4.11513">
        <ele>214.51</ele>
        <time>2011-10-15T13:50:42Z</time>
      </trkpt>
      <trkpt lat="44.18308" lon="4.11515">
        <ele>214.51</ele>
        <time>2011-10-15T13:50:43Z</time>
      </trkpt>
      <trkpt lat="44.18291" lon="4.11531">
        <ele>216.43</ele>
        <time>2011-10-15T13:50:53Z</time>
      </trkpt>
      <trkpt lat="44.18289" lon="4.11532">
        <ele>216.43</ele>
        <time>2011-10-15T13:50:54Z</time>
      </trkpt>
      <trkpt lat="44.18288" lon="4.11533">
        <ele>217.4</ele>
        <time>2011-10-15T13:50:55Z</time>
      </trkpt>
      <trkpt lat="44.18286" lon="4.11535">
        <ele>216.91</ele>
        <time>2011-10-15T13:50:56Z</time>
      </trkpt>
      <trkpt lat="44.18284" lon="4.11536">
        <ele>217.88</ele>
        <time>2011-10-15T13:50:57Z</time>
      </trkpt>
      <trkpt lat="44.18282" lon="4.11538">
        <ele>217.88</ele>
        <time>2011-10-15T13:50:58Z</time>
      </trkpt>
      <trkpt lat="44.1827" lon="4.11554">
        <ele>219.8</ele>
        <time>2011-10-15T13:51:07Z</time>
      </trkpt>
      <trkpt lat="44.18263" lon="4.11566">
        <ele>220.76</ele>
        <time>2011-10-15T13:51:13Z</time>
      </trkpt>
      <trkpt lat="44.18261" lon="4.11567">
        <ele>221.24</ele>
        <time>2011-10-15T13:51:14Z</time>
      </trkpt>
      <trkpt lat="44.1826" lon="4.11568">
        <ele>221.72</ele>
        <time>2011-10-15T13:51:15Z</time>
      </trkpt>
      <trkpt lat="44.18259" lon="4.1157">
        <ele>221.72</ele>
        <time>2011-10-15T13:51:16Z</time>
      </trkpt>
      <trkpt lat="44.18257" lon="4.11571">
        <ele>221.72</ele>
        <time>2011-10-15T13:51:17Z</time>
      </trkpt>
      <trkpt lat="44.18256" lon="4.11573">
        <ele>222.2</ele>
        <time>2011-10-15T13:51:18Z</time>
      </trkpt>
      <trkpt lat="44.18254" lon="4.11574">
        <ele>222.2</ele>
        <time>2011-10-15T13:51:19Z</time>
      </trkpt>
      <trkpt lat="44.18253" lon="4.11576">
        <ele>222.2</ele>
        <time>2011-10-15T13:51:20Z</time>
      </trkpt>
      <trkpt lat="44.18252" lon="4.11577">
        <ele>222.68</ele>
        <time>2011-10-15T13:51:21Z</time>
      </trkpt>
      <trkpt lat="44.1825" lon="4.11579">
        <ele>222.2</ele>
        <time>2011-10-15T13:51:22Z</time>
      </trkpt>
      <trkpt lat="44.18249" lon="4.11581">
        <ele>222.68</ele>
        <time>2011-10-15T13:51:23Z</time>
      </trkpt>
      <trkpt lat="44.18248" lon="4.11582">
        <ele>222.68</ele>
        <time>2011-10-15T13:51:24Z</time>
      </trkpt>
      <trkpt lat="44.18222" lon="4.11605">
        <ele>222.2</ele>
        <time>2011-10-15T13:51:37Z</time>
      </trkpt>
      <trkpt lat="44.1822" lon="4.11606">
        <ele>221.72</ele>
        <time>2011-10-15T13:51:48Z</time>
      </trkpt>
      <trkpt lat="44.18215" lon="4.11616">
        <ele>222.2</ele>
        <time>2011-10-15T13:51:59Z</time>
      </trkpt>
      <trkpt lat="44.18214" lon="4.11618">
        <ele>222.2</ele>
        <time>2011-10-15T13:52:00Z</time>
      </trkpt>
      <trkpt lat="44.18212" lon="4.1162">
        <ele>221.72</ele>
        <time>2011-10-15T13:52:01Z</time>
      </trkpt>
      <trkpt lat="44.18211" lon="4.11623">
        <ele>221.72</ele>
        <time>2011-10-15T13:52:02Z</time>
      </trkpt>
      <trkpt lat="44.1821" lon="4.11626">
        <ele>221.72</ele>
        <time>2011-10-15T13:52:03Z</time>
      </trkpt>
      <trkpt lat="44.18208" lon="4.11628">
        <ele>221.72</ele>
        <time>2011-10-15T13:52:04Z</time>
      </trkpt>
      <trkpt lat="44.18206" lon="4.11631">
        <ele>222.2</ele>
        <time>2011-10-15T13:52:05Z</time>
      </trkpt>
      <trkpt lat="44.18175" lon="4.11667">
        <ele>223.16</ele>
        <time>2011-10-15T13:52:17Z</time>
      </trkpt>
      <trkpt lat="44.18152" lon="4.11709">
        <ele>223.16</ele>
        <time>2011-10-15T13:52:27Z</time>
      </trkpt>
      <trkpt lat="44.18147" lon="4.11724">
        <ele>222.2</ele>
        <time>2011-10-15T13:52:30Z</time>
      </trkpt>
      <trkpt lat="44.18143" lon="4.11728">
        <ele>222.2</ele>
        <time>2011-10-15T13:52:31Z</time>
      </trkpt>
      <trkpt lat="44.18134" lon="4.11734">
        <ele>221.24</ele>
        <time>2011-10-15T13:52:33Z</time>
      </trkpt>
      <trkpt lat="44.1813" lon="4.11735">
        <ele>219.8</ele>
        <time>2011-10-15T13:52:34Z</time>
      </trkpt>
      <trkpt lat="44.18126" lon="4.11736">
        <ele>219.8</ele>
        <time>2011-10-15T13:52:35Z</time>
      </trkpt>
      <trkpt lat="44.18113" lon="4.1174">
        <ele>218.36</ele>
        <time>2011-10-15T13:52:38Z</time>
      </trkpt>
      <trkpt lat="44.18109" lon="4.11742">
        <ele>216.91</ele>
        <time>2011-10-15T13:52:39Z</time>
      </trkpt>
      <trkpt lat="44.18104" lon="4.11743">
        <ele>217.4</ele>
        <time>2011-10-15T13:52:40Z</time>
      </trkpt>
      <trkpt lat="44.1809" lon="4.11746">
        <ele>215.47</ele>
        <time>2011-10-15T13:52:43Z</time>
      </trkpt>
      <trkpt lat="44.1808" lon="4.11746">
        <ele>214.03</ele>
        <time>2011-10-15T13:52:45Z</time>
      </trkpt>
      <trkpt lat="44.18064" lon="4.11751">
        <ele>210.19</ele>
        <time>2011-10-15T13:52:49Z</time>
      </trkpt>
      <trkpt lat="44.18061" lon="4.11754">
        <ele>210.19</ele>
        <time>2011-10-15T13:52:50Z</time>
      </trkpt>
      <trkpt lat="44.18057" lon="4.11758">
        <ele>209.22</ele>
        <time>2011-10-15T13:52:51Z</time>
      </trkpt>
      <trkpt lat="44.18053" lon="4.1176">
        <ele>208.74</ele>
        <time>2011-10-15T13:52:52Z</time>
      </trkpt>
      <trkpt lat="44.18048" lon="4.11761">
        <ele>207.78</ele>
        <time>2011-10-15T13:52:53Z</time>
      </trkpt>
      <trkpt lat="44.18043" lon="4.11761">
        <ele>207.3</ele>
        <time>2011-10-15T13:52:54Z</time>
      </trkpt>
      <trkpt lat="44.18038" lon="4.1176">
        <ele>206.82</ele>
        <time>2011-10-15T13:52:55Z</time>
      </trkpt>
      <trkpt lat="44.18034" lon="4.11761">
        <ele>205.86</ele>
        <time>2011-10-15T13:52:56Z</time>
      </trkpt>
      <trkpt lat="44.1803" lon="4.11764">
        <ele>204.42</ele>
        <time>2011-10-15T13:52:57Z</time>
      </trkpt>
      <trkpt lat="44.18027" lon="4.11767">
        <ele>203.94</ele>
        <time>2011-10-15T13:52:58Z</time>
      </trkpt>
      <trkpt lat="44.18024" lon="4.11771">
        <ele>203.94</ele>
        <time>2011-10-15T13:52:59Z</time>
      </trkpt>
      <trkpt lat="44.18022" lon="4.11776">
        <ele>203.94</ele>
        <time>2011-10-15T13:53:00Z</time>
      </trkpt>
      <trkpt lat="44.18021" lon="4.11782">
        <ele>202.98</ele>
        <time>2011-10-15T13:53:01Z</time>
      </trkpt>
      <trkpt lat="44.1802" lon="4.11787">
        <ele>202.98</ele>
        <time>2011-10-15T13:53:02Z</time>
      </trkpt>
      <trkpt lat="44.18019" lon="4.11793">
        <ele>202.98</ele>
        <time>2011-10-15T13:53:03Z</time>
      </trkpt>
      <trkpt lat="44.18017" lon="4.11806">
        <ele>203.46</ele>
        <time>2011-10-15T13:53:05Z</time>
      </trkpt>
      <trkpt lat="44.18017" lon="4.11812">
        <ele>203.94</ele>
        <time>2011-10-15T13:53:06Z</time>
      </trkpt>
      <trkpt lat="44.18017" lon="4.11818">
        <ele>203.46</ele>
        <time>2011-10-15T13:53:07Z</time>
      </trkpt>
      <trkpt lat="44.18019" lon="4.11824">
        <ele>204.42</ele>
        <time>2011-10-15T13:53:08Z</time>
      </trkpt>
      <trkpt lat="44.1802" lon="4.11829">
        <ele>203.94</ele>
        <time>2011-10-15T13:53:09Z</time>
      </trkpt>
      <trkpt lat="44.18021" lon="4.11834">
        <ele>204.42</ele>
        <time>2011-10-15T13:53:10Z</time>
      </trkpt>
      <trkpt lat="44.18022" lon="4.11839">
        <ele>203.94</ele>
        <time>2011-10-15T13:53:11Z</time>
      </trkpt>
      <trkpt lat="44.18022" lon="4.11844">
        <ele>203.94</ele>
        <time>2011-10-15T13:53:12Z</time>
      </trkpt>
      <trkpt lat="44.18023" lon="4.11849">
        <ele>204.42</ele>
        <time>2011-10-15T13:53:13Z</time>
      </trkpt>
      <trkpt lat="44.18034" lon="4.11914">
        <ele>206.82</ele>
        <time>2011-10-15T13:53:26Z</time>
      </trkpt>
      <trkpt lat="44.18072" lon="4.11954">
        <ele>206.82</ele>
        <time>2011-10-15T13:53:39Z</time>
      </trkpt>
      <trkpt lat="44.18078" lon="4.11967">
        <ele>207.3</ele>
        <time>2011-10-15T13:53:42Z</time>
      </trkpt>
      <trkpt lat="44.18079" lon="4.11973">
        <ele>207.78</ele>
        <time>2011-10-15T13:53:43Z</time>
      </trkpt>
      <trkpt lat="44.1808" lon="4.11978">
        <ele>207.78</ele>
        <time>2011-10-15T13:53:44Z</time>
      </trkpt>
      <trkpt lat="44.18079" lon="4.11984">
        <ele>208.26</ele>
        <time>2011-10-15T13:53:45Z</time>
      </trkpt>
      <trkpt lat="44.18078" lon="4.11988">
        <ele>208.26</ele>
        <time>2011-10-15T13:53:46Z</time>
      </trkpt>
      <trkpt lat="44.18076" lon="4.11993">
        <ele>207.78</ele>
        <time>2011-10-15T13:53:47Z</time>
      </trkpt>
      <trkpt lat="44.18074" lon="4.11997">
        <ele>208.26</ele>
        <time>2011-10-15T13:53:48Z</time>
      </trkpt>
      <trkpt lat="44.18037" lon="4.12055">
        <ele>209.22</ele>
        <time>2011-10-15T13:54:03Z</time>
      </trkpt>
      <trkpt lat="44.18025" lon="4.12078">
        <ele>211.63</ele>
        <time>2011-10-15T13:54:09Z</time>
      </trkpt>
      <trkpt lat="44.17991" lon="4.12117">
        <ele>214.51</ele>
        <time>2011-10-15T13:54:23Z</time>
      </trkpt>
      <trkpt lat="44.17963" lon="4.12167">
        <ele>215.95</ele>
        <time>2011-10-15T13:54:38Z</time>
      </trkpt>
      <trkpt lat="44.17961" lon="4.12167">
        <ele>215.47</ele>
        <time>2011-10-15T13:54:39Z</time>
      </trkpt>
      <trkpt lat="44.1796" lon="4.12164">
        <ele>215.95</ele>
        <time>2011-10-15T13:54:40Z</time>
      </trkpt>
      <trkpt lat="44.17958" lon="4.12162">
        <ele>215.47</ele>
        <time>2011-10-15T13:54:41Z</time>
      </trkpt>
      <trkpt lat="44.17956" lon="4.12159">
        <ele>215.95</ele>
        <time>2011-10-15T13:54:42Z</time>
      </trkpt>
      <trkpt lat="44.1793" lon="4.12122">
        <ele>215.47</ele>
        <time>2011-10-15T13:54:53Z</time>
      </trkpt>
      <trkpt lat="44.17927" lon="4.1212">
        <ele>215.95</ele>
        <time>2011-10-15T13:54:54Z</time>
      </trkpt>
      <trkpt lat="44.17923" lon="4.1212">
        <ele>215.95</ele>
        <time>2011-10-15T13:54:55Z</time>
      </trkpt>
      <trkpt lat="44.1792" lon="4.12123">
        <ele>214.99</ele>
        <time>2011-10-15T13:54:56Z</time>
      </trkpt>
      <trkpt lat="44.17918" lon="4.12127">
        <ele>215.47</ele>
        <time>2011-10-15T13:54:57Z</time>
      </trkpt>
      <trkpt lat="44.17917" lon="4.12132">
        <ele>215.47</ele>
        <time>2011-10-15T13:54:58Z</time>
      </trkpt>
      <trkpt lat="44.17909" lon="4.12198">
        <ele>216.91</ele>
        <time>2011-10-15T13:55:11Z</time>
      </trkpt>
      <trkpt lat="44.17909" lon="4.12271">
        <ele>217.88</ele>
        <time>2011-10-15T13:55:25Z</time>
      </trkpt>
      <trkpt lat="44.17912" lon="4.12335">
        <ele>219.8</ele>
        <time>2011-10-15T13:55:38Z</time>
      </trkpt>
      <trkpt lat="44.17899" lon="4.12404">
        <ele>221.72</ele>
        <time>2011-10-15T13:55:52Z</time>
      </trkpt>
      <trkpt lat="44.17898" lon="4.1244">
        <ele>225.09</ele>
        <time>2011-10-15T13:56:01Z</time>
      </trkpt>
      <trkpt lat="44.17909" lon="4.1247">
        <ele>227.49</ele>
        <time>2011-10-15T13:56:10Z</time>
      </trkpt>
      <trkpt lat="44.17916" lon="4.12494">
        <ele>229.89</ele>
        <time>2011-10-15T13:56:17Z</time>
      </trkpt>
      <trkpt lat="44.17922" lon="4.12507">
        <ele>231.81</ele>
        <time>2011-10-15T13:56:21Z</time>
      </trkpt>
      <trkpt lat="44.17928" lon="4.12533">
        <ele>233.74</ele>
        <time>2011-10-15T13:56:29Z</time>
      </trkpt>
      <trkpt lat="44.17923" lon="4.12576">
        <ele>235.66</ele>
        <time>2011-10-15T13:56:41Z</time>
      </trkpt>
      <trkpt lat="44.17909" lon="4.12629">
        <ele>232.78</ele>
        <time>2011-10-15T13:56:54Z</time>
      </trkpt>
      <trkpt lat="44.17895" lon="4.12685">
        <ele>229.41</ele>
        <time>2011-10-15T13:57:05Z</time>
      </trkpt>
      <trkpt lat="44.17882" lon="4.12776">
        <ele>229.41</ele>
        <time>2011-10-15T13:57:21Z</time>
      </trkpt>
      <trkpt lat="44.17879" lon="4.12809">
        <ele>228.45</ele>
        <time>2011-10-15T13:57:26Z</time>
      </trkpt>
      <trkpt lat="44.17878" lon="4.12859">
        <ele>226.05</ele>
        <time>2011-10-15T13:57:33Z</time>
      </trkpt>
      <trkpt lat="44.17877" lon="4.12865">
        <ele>226.05</ele>
        <time>2011-10-15T13:57:34Z</time>
      </trkpt>
      <trkpt lat="44.17875" lon="4.1287">
        <ele>225.57</ele>
        <time>2011-10-15T13:57:35Z</time>
      </trkpt>
      <trkpt lat="44.17873" lon="4.12874">
        <ele>225.57</ele>
        <time>2011-10-15T13:57:36Z</time>
      </trkpt>
      <trkpt lat="44.1787" lon="4.12878">
        <ele>225.57</ele>
        <time>2011-10-15T13:57:37Z</time>
      </trkpt>
      <trkpt lat="44.17867" lon="4.12882">
        <ele>225.57</ele>
        <time>2011-10-15T13:57:38Z</time>
      </trkpt>
      <trkpt lat="44.17854" lon="4.12896">
        <ele>224.61</ele>
        <time>2011-10-15T13:57:41Z</time>
      </trkpt>
      <trkpt lat="44.17829" lon="4.12914">
        <ele>222.2</ele>
        <time>2011-10-15T13:57:45Z</time>
      </trkpt>
      <trkpt lat="44.17824" lon="4.12922">
        <ele>222.68</ele>
        <time>2011-10-15T13:57:46Z</time>
      </trkpt>
      <trkpt lat="44.17794" lon="4.12992">
        <ele>223.64</ele>
        <time>2011-10-15T13:57:55Z</time>
      </trkpt>
      <trkpt lat="44.17787" lon="4.13023">
        <ele>224.61</ele>
        <time>2011-10-15T13:58:00Z</time>
      </trkpt>
      <trkpt lat="44.17785" lon="4.13028">
        <ele>225.09</ele>
        <time>2011-10-15T13:58:01Z</time>
      </trkpt>
      <trkpt lat="44.17777" lon="4.13047">
        <ele>223.64</ele>
        <time>2011-10-15T13:58:04Z</time>
      </trkpt>
      <trkpt lat="44.17771" lon="4.13063">
        <ele>223.16</ele>
        <time>2011-10-15T13:58:06Z</time>
      </trkpt>
      <trkpt lat="44.17769" lon="4.13072">
        <ele>222.68</ele>
        <time>2011-10-15T13:58:07Z</time>
      </trkpt>
      <trkpt lat="44.17769" lon="4.13083">
        <ele>222.2</ele>
        <time>2011-10-15T13:58:08Z</time>
      </trkpt>
      <trkpt lat="44.17769" lon="4.13108">
        <ele>221.24</ele>
        <time>2011-10-15T13:58:10Z</time>
      </trkpt>
      <trkpt lat="44.17767" lon="4.13192">
        <ele>218.36</ele>
        <time>2011-10-15T13:58:17Z</time>
      </trkpt>
      <trkpt lat="44.17765" lon="4.13202">
        <ele>217.88</ele>
        <time>2011-10-15T13:58:18Z</time>
      </trkpt>
      <trkpt lat="44.17761" lon="4.13211">
        <ele>218.36</ele>
        <time>2011-10-15T13:58:19Z</time>
      </trkpt>
      <trkpt lat="44.17755" lon="4.13218">
        <ele>217.88</ele>
        <time>2011-10-15T13:58:20Z</time>
      </trkpt>
      <trkpt lat="44.17748" lon="4.13222">
        <ele>218.36</ele>
        <time>2011-10-15T13:58:21Z</time>
      </trkpt>
      <trkpt lat="44.17741" lon="4.13223">
        <ele>218.36</ele>
        <time>2011-10-15T13:58:22Z</time>
      </trkpt>
      <trkpt lat="44.17734" lon="4.13224">
        <ele>218.84</ele>
        <time>2011-10-15T13:58:23Z</time>
      </trkpt>
      <trkpt lat="44.17693" lon="4.13226">
        <ele>218.84</ele>
        <time>2011-10-15T13:58:30Z</time>
      </trkpt>
      <trkpt lat="44.17688" lon="4.13224">
        <ele>218.36</ele>
        <time>2011-10-15T13:58:31Z</time>
      </trkpt>
      <trkpt lat="44.17683" lon="4.13219">
        <ele>218.36</ele>
        <time>2011-10-15T13:58:32Z</time>
      </trkpt>
      <trkpt lat="44.17679" lon="4.13213">
        <ele>216.91</ele>
        <time>2011-10-15T13:58:33Z</time>
      </trkpt>
      <trkpt lat="44.17674" lon="4.13205">
        <ele>216.43</ele>
        <time>2011-10-15T13:58:34Z</time>
      </trkpt>
      <trkpt lat="44.17668" lon="4.13198">
        <ele>215.95</ele>
        <time>2011-10-15T13:58:35Z</time>
      </trkpt>
      <trkpt lat="44.17662" lon="4.13191">
        <ele>214.51</ele>
        <time>2011-10-15T13:58:36Z</time>
      </trkpt>
      <trkpt lat="44.17654" lon="4.13183">
        <ele>214.03</ele>
        <time>2011-10-15T13:58:37Z</time>
      </trkpt>
      <trkpt lat="44.17646" lon="4.13175">
        <ele>213.07</ele>
        <time>2011-10-15T13:58:38Z</time>
      </trkpt>
      <trkpt lat="44.17638" lon="4.13167">
        <ele>211.63</ele>
        <time>2011-10-15T13:58:39Z</time>
      </trkpt>
      <trkpt lat="44.17629" lon="4.13161">
        <ele>211.15</ele>
        <time>2011-10-15T13:58:40Z</time>
      </trkpt>
      <trkpt lat="44.17619" lon="4.13157">
        <ele>210.67</ele>
        <time>2011-10-15T13:58:41Z</time>
      </trkpt>
      <trkpt lat="44.17609" lon="4.13155">
        <ele>209.7</ele>
        <time>2011-10-15T13:58:42Z</time>
      </trkpt>
      <trkpt lat="44.17598" lon="4.13152">
        <ele>208.74</ele>
        <time>2011-10-15T13:58:43Z</time>
      </trkpt>
      <trkpt lat="44.17587" lon="4.13148">
        <ele>207.78</ele>
        <time>2011-10-15T13:58:44Z</time>
      </trkpt>
      <trkpt lat="44.17577" lon="4.13143">
        <ele>205.38</ele>
        <time>2011-10-15T13:58:45Z</time>
      </trkpt>
      <trkpt lat="44.17567" lon="4.13137">
        <ele>204.9</ele>
        <time>2011-10-15T13:58:46Z</time>
      </trkpt>
      <trkpt lat="44.17537" lon="4.13124">
        <ele>202.49</ele>
        <time>2011-10-15T13:58:49Z</time>
      </trkpt>
      <trkpt lat="44.17502" lon="4.13109">
        <ele>201.53</ele>
        <time>2011-10-15T13:58:53Z</time>
      </trkpt>
      <trkpt lat="44.17495" lon="4.13103">
        <ele>201.53</ele>
        <time>2011-10-15T13:58:54Z</time>
      </trkpt>
      <trkpt lat="44.17488" lon="4.13098">
        <ele>201.05</ele>
        <time>2011-10-15T13:58:55Z</time>
      </trkpt>
      <trkpt lat="44.17434" lon="4.13027">
        <ele>199.13</ele>
        <time>2011-10-15T13:59:06Z</time>
      </trkpt>
      <trkpt lat="44.17376" lon="4.12946">
        <ele>198.65</ele>
        <time>2011-10-15T13:59:19Z</time>
      </trkpt>
      <trkpt lat="44.17345" lon="4.12905">
        <ele>198.65</ele>
        <time>2011-10-15T13:59:26Z</time>
      </trkpt>
      <trkpt lat="44.1734" lon="4.12901">
        <ele>199.13</ele>
        <time>2011-10-15T13:59:27Z</time>
      </trkpt>
      <trkpt lat="44.17295" lon="4.12868">
        <ele>199.61</ele>
        <time>2011-10-15T13:59:36Z</time>
      </trkpt>
      <trkpt lat="44.17282" lon="4.1285">
        <ele>202.01</ele>
        <time>2011-10-15T13:59:41Z</time>
      </trkpt>
      <trkpt lat="44.1728" lon="4.12831">
        <ele>203.94</ele>
        <time>2011-10-15T13:59:46Z</time>
      </trkpt>
      <trkpt lat="44.1728" lon="4.12823">
        <ele>204.42</ele>
        <time>2011-10-15T13:59:49Z</time>
      </trkpt>
      <trkpt lat="44.17279" lon="4.12815">
        <ele>204.42</ele>
        <time>2011-10-15T14:00:02Z</time>
      </trkpt>
      <trkpt lat="44.1728" lon="4.12813">
        <ele>204.42</ele>
        <time>2011-10-15T14:00:14Z</time>
      </trkpt>
      <trkpt lat="44.17281" lon="4.12811">
        <ele>204.42</ele>
        <time>2011-10-15T14:00:15Z</time>
      </trkpt>
      <trkpt lat="44.17282" lon="4.12809">
        <ele>204.9</ele>
        <time>2011-10-15T14:00:16Z</time>
      </trkpt>
      <trkpt lat="44.17301" lon="4.12776">
        <ele>207.78</ele>
        <time>2011-10-15T14:00:29Z</time>
      </trkpt>
      <trkpt lat="44.17302" lon="4.12774">
        <ele>208.74</ele>
        <time>2011-10-15T14:00:30Z</time>
      </trkpt>
      <trkpt lat="44.17304" lon="4.12772">
        <ele>208.26</ele>
        <time>2011-10-15T14:00:31Z</time>
      </trkpt>
      <trkpt lat="44.17305" lon="4.12769">
        <ele>208.26</ele>
        <time>2011-10-15T14:00:32Z</time>
      </trkpt>
      <trkpt lat="44.17307" lon="4.12767">
        <ele>207.78</ele>
        <time>2011-10-15T14:00:33Z</time>
      </trkpt>
      <trkpt lat="44.17308" lon="4.12764">
        <ele>208.26</ele>
        <time>2011-10-15T14:00:34Z</time>
      </trkpt>
      <trkpt lat="44.1731" lon="4.12762">
        <ele>209.22</ele>
        <time>2011-10-15T14:00:35Z</time>
      </trkpt>
      <trkpt lat="44.17311" lon="4.1276">
        <ele>208.74</ele>
        <time>2011-10-15T14:00:36Z</time>
      </trkpt>
      <trkpt lat="44.17321" lon="4.1274">
        <ele>212.11</ele>
        <time>2011-10-15T14:00:46Z</time>
      </trkpt>
      <trkpt lat="44.1733" lon="4.12725">
        <ele>214.03</ele>
        <time>2011-10-15T14:00:55Z</time>
      </trkpt>
      <trkpt lat="44.17331" lon="4.12724">
        <ele>214.99</ele>
        <time>2011-10-15T14:00:56Z</time>
      </trkpt>
      <trkpt lat="44.17333" lon="4.12723">
        <ele>215.47</ele>
        <time>2011-10-15T14:00:57Z</time>
      </trkpt>
      <trkpt lat="44.17335" lon="4.12722">
        <ele>215.47</ele>
        <time>2011-10-15T14:00:58Z</time>
      </trkpt>
      <trkpt lat="44.17336" lon="4.12721">
        <ele>215.95</ele>
        <time>2011-10-15T14:00:59Z</time>
      </trkpt>
      <trkpt lat="44.17345" lon="4.1271">
        <ele>218.84</ele>
        <time>2011-10-15T14:01:07Z</time>
      </trkpt>
      <trkpt lat="44.17349" lon="4.12699">
        <ele>220.28</ele>
        <time>2011-10-15T14:01:14Z</time>
      </trkpt>
      <trkpt lat="44.17349" lon="4.12697">
        <ele>220.28</ele>
        <time>2011-10-15T14:01:15Z</time>
      </trkpt>
      <trkpt lat="44.17349" lon="4.1269">
        <ele>220.76</ele>
        <time>2011-10-15T14:01:18Z</time>
      </trkpt>
      <trkpt lat="44.17349" lon="4.12688">
        <ele>220.76</ele>
        <time>2011-10-15T14:01:19Z</time>
      </trkpt>
      <trkpt lat="44.17349" lon="4.12685">
        <ele>220.28</ele>
        <time>2011-10-15T14:01:20Z</time>
      </trkpt>
      <trkpt lat="44.17349" lon="4.12682">
        <ele>220.76</ele>
        <time>2011-10-15T14:01:21Z</time>
      </trkpt>
      <trkpt lat="44.17349" lon="4.12679">
        <ele>221.24</ele>
        <time>2011-10-15T14:01:22Z</time>
      </trkpt>
      <trkpt lat="44.17349" lon="4.12676">
        <ele>220.76</ele>
        <time>2011-10-15T14:01:23Z</time>
      </trkpt>
      <trkpt lat="44.17347" lon="4.12643">
        <ele>221.72</ele>
        <time>2011-10-15T14:01:35Z</time>
      </trkpt>
      <trkpt lat="44.17346" lon="4.12602">
        <ele>221.72</ele>
        <time>2011-10-15T14:01:47Z</time>
      </trkpt>
      <trkpt lat="44.17357" lon="4.12579">
        <ele>223.16</ele>
        <time>2011-10-15T14:01:56Z</time>
      </trkpt>
      <trkpt lat="44.17365" lon="4.12567">
        <ele>224.61</ele>
        <time>2011-10-15T14:02:03Z</time>
      </trkpt>
      <trkpt lat="44.17365" lon="4.12564">
        <ele>225.57</ele>
        <time>2011-10-15T14:02:04Z</time>
      </trkpt>
      <trkpt lat="44.17366" lon="4.12562">
        <ele>225.57</ele>
        <time>2011-10-15T14:02:05Z</time>
      </trkpt>
      <trkpt lat="44.17368" lon="4.1255">
        <ele>227.97</ele>
        <time>2011-10-15T14:02:10Z</time>
      </trkpt>
      <trkpt lat="44.17368" lon="4.12544">
        <ele>229.41</ele>
        <time>2011-10-15T14:02:14Z</time>
      </trkpt>
      <trkpt lat="44.17368" lon="4.12522">
        <ele>231.81</ele>
        <time>2011-10-15T14:02:28Z</time>
      </trkpt>
      <trkpt lat="44.17366" lon="4.12499">
        <ele>232.78</ele>
        <time>2011-10-15T14:02:43Z</time>
      </trkpt>
      <trkpt lat="44.17365" lon="4.12494">
        <ele>233.74</ele>
        <time>2011-10-15T14:02:46Z</time>
      </trkpt>
      <trkpt lat="44.17365" lon="4.12492">
        <ele>233.74</ele>
        <time>2011-10-15T14:02:47Z</time>
      </trkpt>
      <trkpt lat="44.17364" lon="4.1249">
        <ele>234.22</ele>
        <time>2011-10-15T14:02:48Z</time>
      </trkpt>
      <trkpt lat="44.17364" lon="4.12488">
        <ele>234.22</ele>
        <time>2011-10-15T14:02:49Z</time>
      </trkpt>
      <trkpt lat="44.17364" lon="4.12486">
        <ele>234.7</ele>
        <time>2011-10-15T14:02:50Z</time>
      </trkpt>
      <trkpt lat="44.17368" lon="4.12479">
        <ele>235.66</ele>
        <time>2011-10-15T14:02:55Z</time>
      </trkpt>
      <trkpt lat="44.17371" lon="4.1247">
        <ele>235.18</ele>
        <time>2011-10-15T14:03:01Z</time>
      </trkpt>
      <trkpt lat="44.17372" lon="4.12469">
        <ele>235.66</ele>
        <time>2011-10-15T14:03:02Z</time>
      </trkpt>
      <trkpt lat="44.17374" lon="4.12466">
        <ele>236.62</ele>
        <time>2011-10-15T14:03:04Z</time>
      </trkpt>
      <trkpt lat="44.17376" lon="4.12462">
        <ele>237.58</ele>
        <time>2011-10-15T14:03:06Z</time>
      </trkpt>
      <trkpt lat="44.17377" lon="4.12461">
        <ele>237.58</ele>
        <time>2011-10-15T14:03:07Z</time>
      </trkpt>
      <trkpt lat="44.17379" lon="4.12459">
        <ele>238.06</ele>
        <time>2011-10-15T14:03:08Z</time>
      </trkpt>
      <trkpt lat="44.1738" lon="4.12457">
        <ele>237.58</ele>
        <time>2011-10-15T14:03:09Z</time>
      </trkpt>
      <trkpt lat="44.1738" lon="4.12456">
        <ele>238.06</ele>
        <time>2011-10-15T14:03:10Z</time>
      </trkpt>
      <trkpt lat="44.17382" lon="4.12453">
        <ele>238.54</ele>
        <time>2011-10-15T14:03:12Z</time>
      </trkpt>
      <trkpt lat="44.17384" lon="4.12444">
        <ele>239.51</ele>
        <time>2011-10-15T14:03:17Z</time>
      </trkpt>
      <trkpt lat="44.17391" lon="4.12427">
        <ele>240.95</ele>
        <time>2011-10-15T14:03:30Z</time>
      </trkpt>
      <trkpt lat="44.174" lon="4.12411">
        <ele>241.43</ele>
        <time>2011-10-15T14:03:42Z</time>
      </trkpt>
      <trkpt lat="44.17401" lon="4.1241">
        <ele>241.91</ele>
        <time>2011-10-15T14:03:43Z</time>
      </trkpt>
      <trkpt lat="44.17402" lon="4.12408">
        <ele>241.43</ele>
        <time>2011-10-15T14:03:44Z</time>
      </trkpt>
      <trkpt lat="44.17415" lon="4.12384">
        <ele>243.35</ele>
        <time>2011-10-15T14:03:59Z</time>
      </trkpt>
      <trkpt lat="44.17417" lon="4.12378">
        <ele>244.79</ele>
        <time>2011-10-15T14:04:02Z</time>
      </trkpt>
      <trkpt lat="44.17426" lon="4.12358">
        <ele>248.16</ele>
        <time>2011-10-15T14:04:12Z</time>
      </trkpt>
      <trkpt lat="44.17428" lon="4.12355">
        <ele>248.64</ele>
        <time>2011-10-15T14:04:14Z</time>
      </trkpt>
      <trkpt lat="44.17431" lon="4.12348">
        <ele>250.08</ele>
        <time>2011-10-15T14:04:18Z</time>
      </trkpt>
      <trkpt lat="44.17437" lon="4.12336">
        <ele>251.52</ele>
        <time>2011-10-15T14:04:25Z</time>
      </trkpt>
      <trkpt lat="44.17438" lon="4.12335">
        <ele>252</ele>
        <time>2011-10-15T14:04:26Z</time>
      </trkpt>
      <trkpt lat="44.1744" lon="4.12333">
        <ele>252.96</ele>
        <time>2011-10-15T14:04:27Z</time>
      </trkpt>
      <trkpt lat="44.17443" lon="4.1233">
        <ele>253.44</ele>
        <time>2011-10-15T14:04:29Z</time>
      </trkpt>
      <trkpt lat="44.17445" lon="4.12324">
        <ele>253.44</ele>
        <time>2011-10-15T14:04:34Z</time>
      </trkpt>
      <trkpt lat="44.17447" lon="4.12322">
        <ele>254.41</ele>
        <time>2011-10-15T14:04:36Z</time>
      </trkpt>
      <trkpt lat="44.17448" lon="4.12321">
        <ele>253.93</ele>
        <time>2011-10-15T14:04:37Z</time>
      </trkpt>
      <trkpt lat="44.17449" lon="4.1232">
        <ele>253.93</ele>
        <time>2011-10-15T14:04:38Z</time>
      </trkpt>
      <trkpt lat="44.17456" lon="4.12305">
        <ele>255.37</ele>
        <time>2011-10-15T14:04:53Z</time>
      </trkpt>
      <trkpt lat="44.17458" lon="4.12301">
        <ele>255.85</ele>
        <time>2011-10-15T14:04:57Z</time>
      </trkpt>
      <trkpt lat="44.17458" lon="4.123">
        <ele>255.85</ele>
        <time>2011-10-15T14:05:12Z</time>
      </trkpt>
      <trkpt lat="44.17459" lon="4.12296">
        <ele>255.85</ele>
        <time>2011-10-15T14:05:22Z</time>
      </trkpt>
      <trkpt lat="44.17454" lon="4.12271">
        <ele>256.33</ele>
        <time>2011-10-15T14:05:37Z</time>
      </trkpt>
      <trkpt lat="44.17453" lon="4.1227">
        <ele>256.81</ele>
        <time>2011-10-15T14:05:42Z</time>
      </trkpt>
      <trkpt lat="44.17452" lon="4.1227">
        <ele>256.81</ele>
        <time>2011-10-15T14:05:43Z</time>
      </trkpt>
      <trkpt lat="44.17451" lon="4.12269">
        <ele>256.81</ele>
        <time>2011-10-15T14:05:44Z</time>
      </trkpt>
      <trkpt lat="44.17449" lon="4.12268">
        <ele>256.81</ele>
        <time>2011-10-15T14:05:45Z</time>
      </trkpt>
      <trkpt lat="44.17448" lon="4.12267">
        <ele>256.81</ele>
        <time>2011-10-15T14:05:46Z</time>
      </trkpt>
      <trkpt lat="44.17447" lon="4.12267">
        <ele>257.29</ele>
        <time>2011-10-15T14:05:59Z</time>
      </trkpt>
      <trkpt lat="44.17445" lon="4.12268">
        <ele>256.33</ele>
        <time>2011-10-15T14:06:26Z</time>
      </trkpt>
      <trkpt lat="44.17444" lon="4.12269">
        <ele>256.81</ele>
        <time>2011-10-15T14:06:27Z</time>
      </trkpt>
      <trkpt lat="44.17442" lon="4.1227">
        <ele>257.29</ele>
        <time>2011-10-15T14:06:28Z</time>
      </trkpt>
      <trkpt lat="44.1744" lon="4.12272">
        <ele>257.29</ele>
        <time>2011-10-15T14:06:29Z</time>
      </trkpt>
      <trkpt lat="44.17438" lon="4.12274">
        <ele>256.81</ele>
        <time>2011-10-15T14:06:30Z</time>
      </trkpt>
      <trkpt lat="44.17436" lon="4.12276">
        <ele>256.81</ele>
        <time>2011-10-15T14:06:31Z</time>
      </trkpt>
      <trkpt lat="44.17424" lon="4.12285">
        <ele>255.85</ele>
        <time>2011-10-15T14:06:37Z</time>
      </trkpt>
      <trkpt lat="44.17423" lon="4.12285">
        <ele>255.37</ele>
        <time>2011-10-15T14:06:38Z</time>
      </trkpt>
      <trkpt lat="44.17421" lon="4.12284">
        <ele>254.89</ele>
        <time>2011-10-15T14:06:39Z</time>
      </trkpt>
      <trkpt lat="44.1742" lon="4.12282">
        <ele>255.37</ele>
        <time>2011-10-15T14:06:40Z</time>
      </trkpt>
      <trkpt lat="44.17419" lon="4.1228">
        <ele>255.37</ele>
        <time>2011-10-15T14:06:41Z</time>
      </trkpt>
      <trkpt lat="44.17418" lon="4.12278">
        <ele>255.37</ele>
        <time>2011-10-15T14:06:42Z</time>
      </trkpt>
      <trkpt lat="44.17416" lon="4.12274">
        <ele>255.85</ele>
        <time>2011-10-15T14:06:44Z</time>
      </trkpt>
      <trkpt lat="44.17416" lon="4.12272">
        <ele>255.37</ele>
        <time>2011-10-15T14:06:45Z</time>
      </trkpt>
      <trkpt lat="44.17416" lon="4.1227">
        <ele>255.85</ele>
        <time>2011-10-15T14:06:46Z</time>
      </trkpt>
      <trkpt lat="44.17415" lon="4.12268">
        <ele>255.85</ele>
        <time>2011-10-15T14:06:47Z</time>
      </trkpt>
      <trkpt lat="44.17415" lon="4.12266">
        <ele>256.33</ele>
        <time>2011-10-15T14:06:48Z</time>
      </trkpt>
      <trkpt lat="44.17414" lon="4.12264">
        <ele>256.33</ele>
        <time>2011-10-15T14:06:49Z</time>
      </trkpt>
      <trkpt lat="44.17397" lon="4.12238">
        <ele>258.73</ele>
        <time>2011-10-15T14:07:02Z</time>
      </trkpt>
      <trkpt lat="44.17391" lon="4.12234">
        <ele>258.25</ele>
        <time>2011-10-15T14:07:05Z</time>
      </trkpt>
      <trkpt lat="44.17389" lon="4.12234">
        <ele>258.25</ele>
        <time>2011-10-15T14:07:06Z</time>
      </trkpt>
      <trkpt lat="44.17364" lon="4.12234">
        <ele>261.14</ele>
        <time>2011-10-15T14:07:19Z</time>
      </trkpt>
      <trkpt lat="44.17341" lon="4.12234">
        <ele>263.54</ele>
        <time>2011-10-15T14:07:30Z</time>
      </trkpt>
      <trkpt lat="44.17324" lon="4.12237">
        <ele>264.98</ele>
        <time>2011-10-15T14:07:39Z</time>
      </trkpt>
      <trkpt lat="44.17323" lon="4.12237">
        <ele>266.42</ele>
        <time>2011-10-15T14:07:40Z</time>
      </trkpt>
      <trkpt lat="44.17312" lon="4.12232">
        <ele>267.38</ele>
        <time>2011-10-15T14:07:46Z</time>
      </trkpt>
      <trkpt lat="44.17303" lon="4.1223">
        <ele>269.79</ele>
        <time>2011-10-15T14:07:51Z</time>
      </trkpt>
      <trkpt lat="44.173" lon="4.12226">
        <ele>269.31</ele>
        <time>2011-10-15T14:07:55Z</time>
      </trkpt>
      <trkpt lat="44.17299" lon="4.12226">
        <ele>269.79</ele>
        <time>2011-10-15T14:07:56Z</time>
      </trkpt>
      <trkpt lat="44.17298" lon="4.12225">
        <ele>269.79</ele>
        <time>2011-10-15T14:07:57Z</time>
      </trkpt>
      <trkpt lat="44.17295" lon="4.12222">
        <ele>269.79</ele>
        <time>2011-10-15T14:08:00Z</time>
      </trkpt>
      <trkpt lat="44.17293" lon="4.12222">
        <ele>271.23</ele>
        <time>2011-10-15T14:08:01Z</time>
      </trkpt>
      <trkpt lat="44.17291" lon="4.12221">
        <ele>271.23</ele>
        <time>2011-10-15T14:08:02Z</time>
      </trkpt>
      <trkpt lat="44.17289" lon="4.12221">
        <ele>271.71</ele>
        <time>2011-10-15T14:08:03Z</time>
      </trkpt>
      <trkpt lat="44.17287" lon="4.1222">
        <ele>272.67</ele>
        <time>2011-10-15T14:08:04Z</time>
      </trkpt>
      <trkpt lat="44.17285" lon="4.1222">
        <ele>272.19</ele>
        <time>2011-10-15T14:08:05Z</time>
      </trkpt>
      <trkpt lat="44.17284" lon="4.12219">
        <ele>272.67</ele>
        <time>2011-10-15T14:08:06Z</time>
      </trkpt>
      <trkpt lat="44.17282" lon="4.12219">
        <ele>273.63</ele>
        <time>2011-10-15T14:08:07Z</time>
      </trkpt>
      <trkpt lat="44.17281" lon="4.12218">
        <ele>273.15</ele>
        <time>2011-10-15T14:08:08Z</time>
      </trkpt>
      <trkpt lat="44.17269" lon="4.12208">
        <ele>276.04</ele>
        <time>2011-10-15T14:08:18Z</time>
      </trkpt>
      <trkpt lat="44.17255" lon="4.12201">
        <ele>277.96</ele>
        <time>2011-10-15T14:08:30Z</time>
      </trkpt>
      <trkpt lat="44.17252" lon="4.12197">
        <ele>277.48</ele>
        <time>2011-10-15T14:08:34Z</time>
      </trkpt>
      <trkpt lat="44.17251" lon="4.12195">
        <ele>277.48</ele>
        <time>2011-10-15T14:08:35Z</time>
      </trkpt>
      <trkpt lat="44.17249" lon="4.12194">
        <ele>277.96</ele>
        <time>2011-10-15T14:08:36Z</time>
      </trkpt>
      <trkpt lat="44.17248" lon="4.12194">
        <ele>277</ele>
        <time>2011-10-15T14:08:37Z</time>
      </trkpt>
      <trkpt lat="44.17247" lon="4.12193">
        <ele>277</ele>
        <time>2011-10-15T14:08:38Z</time>
      </trkpt>
      <trkpt lat="44.17245" lon="4.12193">
        <ele>277.48</ele>
        <time>2011-10-15T14:08:39Z</time>
      </trkpt>
      <trkpt lat="44.17243" lon="4.12193">
        <ele>277.96</ele>
        <time>2011-10-15T14:08:40Z</time>
      </trkpt>
      <trkpt lat="44.17237" lon="4.12193">
        <ele>279.4</ele>
        <time>2011-10-15T14:08:43Z</time>
      </trkpt>
      <trkpt lat="44.17228" lon="4.12191">
        <ele>280.84</ele>
        <time>2011-10-15T14:08:53Z</time>
      </trkpt>
      <trkpt lat="44.17226" lon="4.12191">
        <ele>280.84</ele>
        <time>2011-10-15T14:09:05Z</time>
      </trkpt>
      <trkpt lat="44.17224" lon="4.1219">
        <ele>281.32</ele>
        <time>2011-10-15T14:09:06Z</time>
      </trkpt>
      <trkpt lat="44.17222" lon="4.12187">
        <ele>280.84</ele>
        <time>2011-10-15T14:09:08Z</time>
      </trkpt>
      <trkpt lat="44.17217" lon="4.12183">
        <ele>282.28</ele>
        <time>2011-10-15T14:09:19Z</time>
      </trkpt>
      <trkpt lat="44.17217" lon="4.12183">
        <ele>281.32</ele>
        <time>2011-10-15T14:09:39Z</time>
      </trkpt>
      <trkpt lat="44.17216" lon="4.12182">
        <ele>281.8</ele>
        <time>2011-10-15T14:09:59Z</time>
      </trkpt>
      <trkpt lat="44.17206" lon="4.12172">
        <ele>281.8</ele>
        <time>2011-10-15T14:10:07Z</time>
      </trkpt>
      <trkpt lat="44.17204" lon="4.12169">
        <ele>281.8</ele>
        <time>2011-10-15T14:10:09Z</time>
      </trkpt>
      <trkpt lat="44.17202" lon="4.12166">
        <ele>282.28</ele>
        <time>2011-10-15T14:10:10Z</time>
      </trkpt>
      <trkpt lat="44.17201" lon="4.12164">
        <ele>281.32</ele>
        <time>2011-10-15T14:10:11Z</time>
      </trkpt>
      <trkpt lat="44.17199" lon="4.12163">
        <ele>282.28</ele>
        <time>2011-10-15T14:10:12Z</time>
      </trkpt>
      <trkpt lat="44.17198" lon="4.12162">
        <ele>281.8</ele>
        <time>2011-10-15T14:10:13Z</time>
      </trkpt>
      <trkpt lat="44.17196" lon="4.12161">
        <ele>281.32</ele>
        <time>2011-10-15T14:10:14Z</time>
      </trkpt>
      <trkpt lat="44.17188" lon="4.12158">
        <ele>281.32</ele>
        <time>2011-10-15T14:10:18Z</time>
      </trkpt>
      <trkpt lat="44.17187" lon="4.12155">
        <ele>281.32</ele>
        <time>2011-10-15T14:10:19Z</time>
      </trkpt>
      <trkpt lat="44.17186" lon="4.12153">
        <ele>281.32</ele>
        <time>2011-10-15T14:10:20Z</time>
      </trkpt>
      <trkpt lat="44.17185" lon="4.12151">
        <ele>280.84</ele>
        <time>2011-10-15T14:10:21Z</time>
      </trkpt>
      <trkpt lat="44.17183" lon="4.12149">
        <ele>281.8</ele>
        <time>2011-10-15T14:10:22Z</time>
      </trkpt>
      <trkpt lat="44.17181" lon="4.12148">
        <ele>280.84</ele>
        <time>2011-10-15T14:10:23Z</time>
      </trkpt>
      <trkpt lat="44.1718" lon="4.12146">
        <ele>281.32</ele>
        <time>2011-10-15T14:10:24Z</time>
      </trkpt>
      <trkpt lat="44.17179" lon="4.12144">
        <ele>281.8</ele>
        <time>2011-10-15T14:10:25Z</time>
      </trkpt>
      <trkpt lat="44.17177" lon="4.12143">
        <ele>281.8</ele>
        <time>2011-10-15T14:10:26Z</time>
      </trkpt>
      <trkpt lat="44.17175" lon="4.12142">
        <ele>281.32</ele>
        <time>2011-10-15T14:10:27Z</time>
      </trkpt>
      <trkpt lat="44.17173" lon="4.12142">
        <ele>280.84</ele>
        <time>2011-10-15T14:10:28Z</time>
      </trkpt>
      <trkpt lat="44.17171" lon="4.12141">
        <ele>280.84</ele>
        <time>2011-10-15T14:10:29Z</time>
      </trkpt>
      <trkpt lat="44.17169" lon="4.12139">
        <ele>280.36</ele>
        <time>2011-10-15T14:10:30Z</time>
      </trkpt>
      <trkpt lat="44.17168" lon="4.12137">
        <ele>280.36</ele>
        <time>2011-10-15T14:10:31Z</time>
      </trkpt>
      <trkpt lat="44.17167" lon="4.12134">
        <ele>279.88</ele>
        <time>2011-10-15T14:10:32Z</time>
      </trkpt>
      <trkpt lat="44.17166" lon="4.12132">
        <ele>280.36</ele>
        <time>2011-10-15T14:10:33Z</time>
      </trkpt>
      <trkpt lat="44.17165" lon="4.1213">
        <ele>280.36</ele>
        <time>2011-10-15T14:10:34Z</time>
      </trkpt>
      <trkpt lat="44.17155" lon="4.12123">
        <ele>279.4</ele>
        <time>2011-10-15T14:10:39Z</time>
      </trkpt>
      <trkpt lat="44.17144" lon="4.12104">
        <ele>277.48</ele>
        <time>2011-10-15T14:10:44Z</time>
      </trkpt>
      <trkpt lat="44.17142" lon="4.12099">
        <ele>276.52</ele>
        <time>2011-10-15T14:10:45Z</time>
      </trkpt>
      <trkpt lat="44.1714" lon="4.12093">
        <ele>276.04</ele>
        <time>2011-10-15T14:10:46Z</time>
      </trkpt>
      <trkpt lat="44.17137" lon="4.12089">
        <ele>276.04</ele>
        <time>2011-10-15T14:10:47Z</time>
      </trkpt>
      <trkpt lat="44.17135" lon="4.12086">
        <ele>275.56</ele>
        <time>2011-10-15T14:10:48Z</time>
      </trkpt>
      <trkpt lat="44.1713" lon="4.12082">
        <ele>276.52</ele>
        <time>2011-10-15T14:10:50Z</time>
      </trkpt>
      <trkpt lat="44.17129" lon="4.12082">
        <ele>275.56</ele>
        <time>2011-10-15T14:10:51Z</time>
      </trkpt>
      <trkpt lat="44.17126" lon="4.12084">
        <ele>276.04</ele>
        <time>2011-10-15T14:10:53Z</time>
      </trkpt>
      <trkpt lat="44.17124" lon="4.12084">
        <ele>277</ele>
        <time>2011-10-15T14:11:08Z</time>
      </trkpt>
      <trkpt lat="44.17121" lon="4.12084">
        <ele>276.04</ele>
        <time>2011-10-15T14:11:09Z</time>
      </trkpt>
      <trkpt lat="44.17119" lon="4.12083">
        <ele>276.52</ele>
        <time>2011-10-15T14:11:10Z</time>
      </trkpt>
      <trkpt lat="44.17117" lon="4.12082">
        <ele>276.04</ele>
        <time>2011-10-15T14:11:11Z</time>
      </trkpt>
      <trkpt lat="44.17115" lon="4.12079">
        <ele>276.04</ele>
        <time>2011-10-15T14:11:12Z</time>
      </trkpt>
      <trkpt lat="44.17114" lon="4.12075">
        <ele>276.04</ele>
        <time>2011-10-15T14:11:13Z</time>
      </trkpt>
      <trkpt lat="44.17113" lon="4.12071">
        <ele>275.56</ele>
        <time>2011-10-15T14:11:14Z</time>
      </trkpt>
      <trkpt lat="44.17112" lon="4.12068">
        <ele>276.52</ele>
        <time>2011-10-15T14:11:15Z</time>
      </trkpt>
      <trkpt lat="44.1711" lon="4.12064">
        <ele>276.52</ele>
        <time>2011-10-15T14:11:16Z</time>
      </trkpt>
      <trkpt lat="44.17108" lon="4.12061">
        <ele>276.04</ele>
        <time>2011-10-15T14:11:17Z</time>
      </trkpt>
      <trkpt lat="44.17107" lon="4.12057">
        <ele>276.04</ele>
        <time>2011-10-15T14:11:18Z</time>
      </trkpt>
      <trkpt lat="44.17105" lon="4.12052">
        <ele>275.56</ele>
        <time>2011-10-15T14:11:19Z</time>
      </trkpt>
      <trkpt lat="44.17102" lon="4.12048">
        <ele>275.56</ele>
        <time>2011-10-15T14:11:20Z</time>
      </trkpt>
      <trkpt lat="44.17099" lon="4.12045">
        <ele>275.56</ele>
        <time>2011-10-15T14:11:21Z</time>
      </trkpt>
      <trkpt lat="44.17095" lon="4.12042">
        <ele>274.11</ele>
        <time>2011-10-15T14:11:22Z</time>
      </trkpt>
      <trkpt lat="44.17087" lon="4.12035">
        <ele>272.67</ele>
        <time>2011-10-15T14:11:24Z</time>
      </trkpt>
      <trkpt lat="44.17084" lon="4.12033">
        <ele>272.19</ele>
        <time>2011-10-15T14:11:25Z</time>
      </trkpt>
      <trkpt lat="44.1708" lon="4.12032">
        <ele>272.19</ele>
        <time>2011-10-15T14:11:26Z</time>
      </trkpt>
      <trkpt lat="44.17076" lon="4.12031">
        <ele>271.71</ele>
        <time>2011-10-15T14:11:27Z</time>
      </trkpt>
      <trkpt lat="44.17072" lon="4.12029">
        <ele>272.19</ele>
        <time>2011-10-15T14:11:28Z</time>
      </trkpt>
      <trkpt lat="44.17069" lon="4.12027">
        <ele>271.23</ele>
        <time>2011-10-15T14:11:29Z</time>
      </trkpt>
      <trkpt lat="44.17067" lon="4.12025">
        <ele>272.67</ele>
        <time>2011-10-15T14:11:30Z</time>
      </trkpt>
      <trkpt lat="44.17064" lon="4.12022">
        <ele>272.67</ele>
        <time>2011-10-15T14:11:31Z</time>
      </trkpt>
      <trkpt lat="44.17062" lon="4.12019">
        <ele>273.15</ele>
        <time>2011-10-15T14:11:32Z</time>
      </trkpt>
      <trkpt lat="44.17059" lon="4.12016">
        <ele>273.63</ele>
        <time>2011-10-15T14:11:33Z</time>
      </trkpt>
      <trkpt lat="44.17056" lon="4.12014">
        <ele>274.11</ele>
        <time>2011-10-15T14:11:34Z</time>
      </trkpt>
      <trkpt lat="44.17053" lon="4.12011">
        <ele>274.11</ele>
        <time>2011-10-15T14:11:35Z</time>
      </trkpt>
      <trkpt lat="44.17052" lon="4.12007">
        <ele>274.59</ele>
        <time>2011-10-15T14:11:36Z</time>
      </trkpt>
      <trkpt lat="44.1705" lon="4.12002">
        <ele>274.59</ele>
        <time>2011-10-15T14:11:37Z</time>
      </trkpt>
      <trkpt lat="44.17048" lon="4.11998">
        <ele>275.56</ele>
        <time>2011-10-15T14:11:38Z</time>
      </trkpt>
      <trkpt lat="44.1704" lon="4.11979">
        <ele>277.48</ele>
        <time>2011-10-15T14:11:45Z</time>
      </trkpt>
      <trkpt lat="44.17037" lon="4.11976">
        <ele>278.44</ele>
        <time>2011-10-15T14:11:47Z</time>
      </trkpt>
      <trkpt lat="44.17035" lon="4.11974">
        <ele>278.44</ele>
        <time>2011-10-15T14:11:48Z</time>
      </trkpt>
      <trkpt lat="44.17034" lon="4.11972">
        <ele>278.44</ele>
        <time>2011-10-15T14:11:49Z</time>
      </trkpt>
      <trkpt lat="44.17033" lon="4.1197">
        <ele>278.92</ele>
        <time>2011-10-15T14:11:50Z</time>
      </trkpt>
      <trkpt lat="44.17033" lon="4.11967">
        <ele>278.44</ele>
        <time>2011-10-15T14:11:51Z</time>
      </trkpt>
      <trkpt lat="44.17032" lon="4.11964">
        <ele>279.4</ele>
        <time>2011-10-15T14:11:52Z</time>
      </trkpt>
      <trkpt lat="44.1703" lon="4.11963">
        <ele>279.4</ele>
        <time>2011-10-15T14:11:53Z</time>
      </trkpt>
      <trkpt lat="44.17029" lon="4.11961">
        <ele>279.4</ele>
        <time>2011-10-15T14:11:54Z</time>
      </trkpt>
      <trkpt lat="44.17027" lon="4.1196">
        <ele>279.88</ele>
        <time>2011-10-15T14:11:55Z</time>
      </trkpt>
      <trkpt lat="44.17026" lon="4.11959">
        <ele>279.4</ele>
        <time>2011-10-15T14:11:56Z</time>
      </trkpt>
      <trkpt lat="44.17025" lon="4.11957">
        <ele>280.36</ele>
        <time>2011-10-15T14:11:57Z</time>
      </trkpt>
      <trkpt lat="44.17023" lon="4.11956">
        <ele>281.32</ele>
        <time>2011-10-15T14:11:58Z</time>
      </trkpt>
      <trkpt lat="44.17022" lon="4.11954">
        <ele>280.84</ele>
        <time>2011-10-15T14:11:59Z</time>
      </trkpt>
      <trkpt lat="44.1702" lon="4.11953">
        <ele>279.88</ele>
        <time>2011-10-15T14:12:00Z</time>
      </trkpt>
      <trkpt lat="44.17019" lon="4.11951">
        <ele>280.84</ele>
        <time>2011-10-15T14:12:01Z</time>
      </trkpt>
      <trkpt lat="44.17018" lon="4.1195">
        <ele>281.32</ele>
        <time>2011-10-15T14:12:02Z</time>
      </trkpt>
      <trkpt lat="44.17017" lon="4.11947">
        <ele>281.8</ele>
        <time>2011-10-15T14:12:03Z</time>
      </trkpt>
      <trkpt lat="44.17017" lon="4.11945">
        <ele>281.8</ele>
        <time>2011-10-15T14:12:04Z</time>
      </trkpt>
      <trkpt lat="44.17017" lon="4.11943">
        <ele>281.8</ele>
        <time>2011-10-15T14:12:05Z</time>
      </trkpt>
      <trkpt lat="44.17017" lon="4.11941">
        <ele>281.8</ele>
        <time>2011-10-15T14:12:06Z</time>
      </trkpt>
      <trkpt lat="44.17016" lon="4.11939">
        <ele>282.28</ele>
        <time>2011-10-15T14:12:07Z</time>
      </trkpt>
      <trkpt lat="44.17015" lon="4.11937">
        <ele>282.28</ele>
        <time>2011-10-15T14:12:08Z</time>
      </trkpt>
      <trkpt lat="44.17014" lon="4.11936">
        <ele>281.8</ele>
        <time>2011-10-15T14:12:09Z</time>
      </trkpt>
      <trkpt lat="44.17013" lon="4.11934">
        <ele>281.8</ele>
        <time>2011-10-15T14:12:10Z</time>
      </trkpt>
      <trkpt lat="44.17008" lon="4.11924">
        <ele>282.28</ele>
        <time>2011-10-15T14:12:16Z</time>
      </trkpt>
      <trkpt lat="44.17001" lon="4.11925">
        <ele>282.77</ele>
        <time>2011-10-15T14:12:22Z</time>
      </trkpt>
      <trkpt lat="44.16996" lon="4.11932">
        <ele>283.25</ele>
        <time>2011-10-15T14:12:32Z</time>
      </trkpt>
      <trkpt lat="44.16994" lon="4.11933">
        <ele>283.25</ele>
        <time>2011-10-15T14:12:33Z</time>
      </trkpt>
      <trkpt lat="44.16993" lon="4.11933">
        <ele>282.77</ele>
        <time>2011-10-15T14:12:34Z</time>
      </trkpt>
      <trkpt lat="44.16991" lon="4.11933">
        <ele>283.73</ele>
        <time>2011-10-15T14:12:35Z</time>
      </trkpt>
      <trkpt lat="44.16977" lon="4.11927">
        <ele>284.21</ele>
        <time>2011-10-15T14:12:43Z</time>
      </trkpt>
      <trkpt lat="44.1696" lon="4.11906">
        <ele>284.69</ele>
        <time>2011-10-15T14:12:54Z</time>
      </trkpt>
      <trkpt lat="44.16942" lon="4.11891">
        <ele>281.32</ele>
        <time>2011-10-15T14:13:01Z</time>
      </trkpt>
      <trkpt lat="44.1694" lon="4.11887">
        <ele>279.88</ele>
        <time>2011-10-15T14:13:02Z</time>
      </trkpt>
      <trkpt lat="44.16928" lon="4.11873">
        <ele>277</ele>
        <time>2011-10-15T14:13:07Z</time>
      </trkpt>
      <trkpt lat="44.16923" lon="4.11859">
        <ele>273.63</ele>
        <time>2011-10-15T14:13:12Z</time>
      </trkpt>
      <trkpt lat="44.16922" lon="4.11854">
        <ele>273.15</ele>
        <time>2011-10-15T14:13:14Z</time>
      </trkpt>
      <trkpt lat="44.16924" lon="4.11845">
        <ele>270.27</ele>
        <time>2011-10-15T14:13:17Z</time>
      </trkpt>
      <trkpt lat="44.16917" lon="4.11836">
        <ele>267.86</ele>
        <time>2011-10-15T14:13:21Z</time>
      </trkpt>
      <trkpt lat="44.16911" lon="4.11833">
        <ele>266.9</ele>
        <time>2011-10-15T14:13:23Z</time>
      </trkpt>
      <trkpt lat="44.16904" lon="4.11826">
        <ele>265.46</ele>
        <time>2011-10-15T14:13:26Z</time>
      </trkpt>
      <trkpt lat="44.169" lon="4.11821">
        <ele>263.54</ele>
        <time>2011-10-15T14:13:28Z</time>
      </trkpt>
      <trkpt lat="44.16901" lon="4.11806">
        <ele>260.65</ele>
        <time>2011-10-15T14:13:32Z</time>
      </trkpt>
      <trkpt lat="44.16895" lon="4.11783">
        <ele>255.85</ele>
        <time>2011-10-15T14:13:37Z</time>
      </trkpt>
      <trkpt lat="44.16894" lon="4.11778">
        <ele>256.33</ele>
        <time>2011-10-15T14:13:38Z</time>
      </trkpt>
      <trkpt lat="44.16895" lon="4.1176">
        <ele>254.41</ele>
        <time>2011-10-15T14:13:43Z</time>
      </trkpt>
      <trkpt lat="44.16896" lon="4.11729">
        <ele>254.41</ele>
        <time>2011-10-15T14:13:52Z</time>
      </trkpt>
      <trkpt lat="44.16895" lon="4.1172">
        <ele>254.41</ele>
        <time>2011-10-15T14:13:56Z</time>
      </trkpt>
      <trkpt lat="44.16893" lon="4.1171">
        <ele>254.89</ele>
        <time>2011-10-15T14:14:00Z</time>
      </trkpt>
      <trkpt lat="44.1689" lon="4.11698">
        <ele>255.85</ele>
        <time>2011-10-15T14:14:04Z</time>
      </trkpt>
      <trkpt lat="44.16892" lon="4.11686">
        <ele>256.33</ele>
        <time>2011-10-15T14:14:09Z</time>
      </trkpt>
      <trkpt lat="44.1689" lon="4.11677">
        <ele>256.81</ele>
        <time>2011-10-15T14:14:14Z</time>
      </trkpt>
      <trkpt lat="44.16887" lon="4.11661">
        <ele>258.25</ele>
        <time>2011-10-15T14:14:22Z</time>
      </trkpt>
      <trkpt lat="44.16867" lon="4.1163">
        <ele>259.69</ele>
        <time>2011-10-15T14:14:34Z</time>
      </trkpt>
      <trkpt lat="44.16855" lon="4.11617">
        <ele>260.17</ele>
        <time>2011-10-15T14:14:40Z</time>
      </trkpt>
      <trkpt lat="44.16851" lon="4.1161">
        <ele>260.17</ele>
        <time>2011-10-15T14:14:43Z</time>
      </trkpt>
      <trkpt lat="44.16845" lon="4.11601">
        <ele>261.62</ele>
        <time>2011-10-15T14:14:47Z</time>
      </trkpt>
      <trkpt lat="44.1684" lon="4.11598">
        <ele>263.06</ele>
        <time>2011-10-15T14:14:51Z</time>
      </trkpt>
      <trkpt lat="44.16837" lon="4.11595">
        <ele>263.54</ele>
        <time>2011-10-15T14:14:53Z</time>
      </trkpt>
      <trkpt lat="44.16828" lon="4.11594">
        <ele>264.98</ele>
        <time>2011-10-15T14:15:00Z</time>
      </trkpt>
      <trkpt lat="44.16826" lon="4.1159">
        <ele>265.46</ele>
        <time>2011-10-15T14:15:13Z</time>
      </trkpt>
      <trkpt lat="44.16824" lon="4.11587">
        <ele>266.9</ele>
        <time>2011-10-15T14:15:16Z</time>
      </trkpt>
      <trkpt lat="44.16816" lon="4.11587">
        <ele>266.9</ele>
        <time>2011-10-15T14:15:22Z</time>
      </trkpt>
      <trkpt lat="44.16807" lon="4.11586">
        <ele>268.83</ele>
        <time>2011-10-15T14:15:30Z</time>
      </trkpt>
      <trkpt lat="44.16793" lon="4.11589">
        <ele>272.19</ele>
        <time>2011-10-15T14:15:39Z</time>
      </trkpt>
      <trkpt lat="44.16788" lon="4.1159">
        <ele>271.23</ele>
        <time>2011-10-15T14:15:43Z</time>
      </trkpt>
      <trkpt lat="44.1678" lon="4.11587">
        <ele>273.63</ele>
        <time>2011-10-15T14:15:49Z</time>
      </trkpt>
      <trkpt lat="44.16771" lon="4.11586">
        <ele>274.11</ele>
        <time>2011-10-15T14:15:56Z</time>
      </trkpt>
      <trkpt lat="44.16768" lon="4.11581">
        <ele>275.56</ele>
        <time>2011-10-15T14:16:00Z</time>
      </trkpt>
      <trkpt lat="44.16762" lon="4.11583">
        <ele>275.07</ele>
        <time>2011-10-15T14:16:10Z</time>
      </trkpt>
      <trkpt lat="44.16762" lon="4.11583">
        <ele>275.56</ele>
        <time>2011-10-15T14:16:27Z</time>
      </trkpt>
      <trkpt lat="44.1676" lon="4.11582">
        <ele>275.56</ele>
        <time>2011-10-15T14:16:39Z</time>
      </trkpt>
      <trkpt lat="44.16758" lon="4.11582">
        <ele>275.56</ele>
        <time>2011-10-15T14:16:44Z</time>
      </trkpt>
      <trkpt lat="44.16752" lon="4.11579">
        <ele>276.52</ele>
        <time>2011-10-15T14:16:58Z</time>
      </trkpt>
      <trkpt lat="44.16752" lon="4.11579">
        <ele>276.04</ele>
        <time>2011-10-15T14:17:03Z</time>
      </trkpt>
      <trkpt lat="44.1674" lon="4.1156">
        <ele>275.07</ele>
        <time>2011-10-15T14:17:15Z</time>
      </trkpt>
      <trkpt lat="44.16734" lon="4.1155">
        <ele>275.07</ele>
        <time>2011-10-15T14:17:18Z</time>
      </trkpt>
      <trkpt lat="44.16726" lon="4.11533">
        <ele>274.59</ele>
        <time>2011-10-15T14:17:22Z</time>
      </trkpt>
      <trkpt lat="44.16719" lon="4.11522">
        <ele>275.07</ele>
        <time>2011-10-15T14:17:25Z</time>
      </trkpt>
      <trkpt lat="44.16712" lon="4.11514">
        <ele>275.56</ele>
        <time>2011-10-15T14:17:27Z</time>
      </trkpt>
      <trkpt lat="44.16709" lon="4.1151">
        <ele>274.59</ele>
        <time>2011-10-15T14:17:28Z</time>
      </trkpt>
      <trkpt lat="44.16705" lon="4.11507">
        <ele>274.11</ele>
        <time>2011-10-15T14:17:29Z</time>
      </trkpt>
      <trkpt lat="44.16697" lon="4.11504">
        <ele>274.11</ele>
        <time>2011-10-15T14:17:31Z</time>
      </trkpt>
      <trkpt lat="44.16675" lon="4.11493">
        <ele>274.59</ele>
        <time>2011-10-15T14:17:37Z</time>
      </trkpt>
      <trkpt lat="44.16672" lon="4.11493">
        <ele>274.59</ele>
        <time>2011-10-15T14:17:38Z</time>
      </trkpt>
      <trkpt lat="44.16668" lon="4.11494">
        <ele>274.59</ele>
        <time>2011-10-15T14:17:39Z</time>
      </trkpt>
      <trkpt lat="44.16665" lon="4.11495">
        <ele>274.11</ele>
        <time>2011-10-15T14:17:40Z</time>
      </trkpt>
      <trkpt lat="44.16661" lon="4.11496">
        <ele>274.59</ele>
        <time>2011-10-15T14:17:41Z</time>
      </trkpt>
      <trkpt lat="44.16658" lon="4.11495">
        <ele>274.11</ele>
        <time>2011-10-15T14:17:42Z</time>
      </trkpt>
      <trkpt lat="44.16655" lon="4.11494">
        <ele>274.59</ele>
        <time>2011-10-15T14:17:43Z</time>
      </trkpt>
      <trkpt lat="44.16626" lon="4.11478">
        <ele>274.59</ele>
        <time>2011-10-15T14:17:52Z</time>
      </trkpt>
      <trkpt lat="44.16602" lon="4.11477">
        <ele>274.59</ele>
        <time>2011-10-15T14:18:00Z</time>
      </trkpt>
      <trkpt lat="44.166" lon="4.11475">
        <ele>274.11</ele>
        <time>2011-10-15T14:18:01Z</time>
      </trkpt>
      <trkpt lat="44.166" lon="4.11473">
        <ele>273.63</ele>
        <time>2011-10-15T14:18:02Z</time>
      </trkpt>
      <trkpt lat="44.166" lon="4.11471">
        <ele>273.63</ele>
        <time>2011-10-15T14:18:03Z</time>
      </trkpt>
      <trkpt lat="44.16594" lon="4.11444">
        <ele>270.75</ele>
        <time>2011-10-15T14:18:11Z</time>
      </trkpt>
      <trkpt lat="44.16593" lon="4.11438">
        <ele>270.27</ele>
        <time>2011-10-15T14:18:12Z</time>
      </trkpt>
      <trkpt lat="44.16593" lon="4.11434">
        <ele>269.31</ele>
        <time>2011-10-15T14:18:13Z</time>
      </trkpt>
      <trkpt lat="44.16593" lon="4.11429">
        <ele>269.79</ele>
        <time>2011-10-15T14:18:14Z</time>
      </trkpt>
      <trkpt lat="44.16594" lon="4.11425">
        <ele>268.83</ele>
        <time>2011-10-15T14:18:15Z</time>
      </trkpt>
      <trkpt lat="44.16595" lon="4.11421">
        <ele>268.83</ele>
        <time>2011-10-15T14:18:16Z</time>
      </trkpt>
      <trkpt lat="44.16594" lon="4.11417">
        <ele>268.83</ele>
        <time>2011-10-15T14:18:17Z</time>
      </trkpt>
      <trkpt lat="44.16594" lon="4.11412">
        <ele>268.35</ele>
        <time>2011-10-15T14:18:18Z</time>
      </trkpt>
      <trkpt lat="44.16595" lon="4.11407">
        <ele>267.86</ele>
        <time>2011-10-15T14:18:19Z</time>
      </trkpt>
      <trkpt lat="44.16596" lon="4.11402">
        <ele>268.35</ele>
        <time>2011-10-15T14:18:20Z</time>
      </trkpt>
      <trkpt lat="44.16598" lon="4.11396">
        <ele>267.38</ele>
        <time>2011-10-15T14:18:21Z</time>
      </trkpt>
      <trkpt lat="44.16599" lon="4.11387">
        <ele>267.38</ele>
        <time>2011-10-15T14:18:23Z</time>
      </trkpt>
      <trkpt lat="44.16598" lon="4.11381">
        <ele>267.38</ele>
        <time>2011-10-15T14:18:24Z</time>
      </trkpt>
      <trkpt lat="44.1659" lon="4.11338">
        <ele>268.83</ele>
        <time>2011-10-15T14:18:32Z</time>
      </trkpt>
      <trkpt lat="44.16589" lon="4.11305">
        <ele>271.23</ele>
        <time>2011-10-15T14:18:38Z</time>
      </trkpt>
      <trkpt lat="44.16586" lon="4.11296">
        <ele>272.19</ele>
        <time>2011-10-15T14:18:40Z</time>
      </trkpt>
      <trkpt lat="44.16569" lon="4.11267">
        <ele>272.19</ele>
        <time>2011-10-15T14:18:50Z</time>
      </trkpt>
      <trkpt lat="44.16568" lon="4.11265">
        <ele>271.71</ele>
        <time>2011-10-15T14:18:51Z</time>
      </trkpt>
      <trkpt lat="44.16565" lon="4.11261">
        <ele>271.23</ele>
        <time>2011-10-15T14:19:04Z</time>
      </trkpt>
      <trkpt lat="44.16555" lon="4.11242">
        <ele>270.27</ele>
        <time>2011-10-15T14:19:22Z</time>
      </trkpt>
      <trkpt lat="44.16548" lon="4.11233">
        <ele>270.27</ele>
        <time>2011-10-15T14:19:24Z</time>
      </trkpt>
      <trkpt lat="44.16546" lon="4.11228">
        <ele>270.27</ele>
        <time>2011-10-15T14:19:25Z</time>
      </trkpt>
      <trkpt lat="44.16543" lon="4.11222">
        <ele>270.27</ele>
        <time>2011-10-15T14:19:26Z</time>
      </trkpt>
      <trkpt lat="44.1654" lon="4.11217">
        <ele>270.27</ele>
        <time>2011-10-15T14:19:27Z</time>
      </trkpt>
      <trkpt lat="44.16537" lon="4.11211">
        <ele>269.79</ele>
        <time>2011-10-15T14:19:28Z</time>
      </trkpt>
      <trkpt lat="44.16535" lon="4.11205">
        <ele>268.83</ele>
        <time>2011-10-15T14:19:29Z</time>
      </trkpt>
      <trkpt lat="44.16529" lon="4.11194">
        <ele>269.31</ele>
        <time>2011-10-15T14:19:31Z</time>
      </trkpt>
      <trkpt lat="44.16526" lon="4.11189">
        <ele>269.79</ele>
        <time>2011-10-15T14:19:32Z</time>
      </trkpt>
      <trkpt lat="44.16522" lon="4.11185">
        <ele>269.79</ele>
        <time>2011-10-15T14:19:33Z</time>
      </trkpt>
      <trkpt lat="44.16518" lon="4.11181">
        <ele>269.79</ele>
        <time>2011-10-15T14:19:34Z</time>
      </trkpt>
      <trkpt lat="44.16515" lon="4.11177">
        <ele>269.79</ele>
        <time>2011-10-15T14:19:35Z</time>
      </trkpt>
      <trkpt lat="44.16512" lon="4.11173">
        <ele>269.79</ele>
        <time>2011-10-15T14:19:36Z</time>
      </trkpt>
      <trkpt lat="44.16509" lon="4.11168">
        <ele>269.79</ele>
        <time>2011-10-15T14:19:37Z</time>
      </trkpt>
      <trkpt lat="44.16504" lon="4.11159">
        <ele>270.27</ele>
        <time>2011-10-15T14:19:39Z</time>
      </trkpt>
      <trkpt lat="44.16498" lon="4.11151">
        <ele>269.79</ele>
        <time>2011-10-15T14:19:41Z</time>
      </trkpt>
      <trkpt lat="44.16491" lon="4.11144">
        <ele>270.27</ele>
        <time>2011-10-15T14:19:43Z</time>
      </trkpt>
      <trkpt lat="44.16488" lon="4.1114">
        <ele>270.27</ele>
        <time>2011-10-15T14:19:44Z</time>
      </trkpt>
      <trkpt lat="44.16486" lon="4.11137">
        <ele>269.79</ele>
        <time>2011-10-15T14:19:45Z</time>
      </trkpt>
      <trkpt lat="44.16484" lon="4.11135">
        <ele>270.27</ele>
        <time>2011-10-15T14:19:46Z</time>
      </trkpt>
      <trkpt lat="44.16482" lon="4.11134">
        <ele>268.83</ele>
        <time>2011-10-15T14:19:47Z</time>
      </trkpt>
      <trkpt lat="44.16475" lon="4.11141">
        <ele>270.27</ele>
        <time>2011-10-15T14:19:52Z</time>
      </trkpt>
      <trkpt lat="44.16453" lon="4.11147">
        <ele>270.27</ele>
        <time>2011-10-15T14:20:01Z</time>
      </trkpt>
      <trkpt lat="44.16443" lon="4.11142">
        <ele>271.71</ele>
        <time>2011-10-15T14:20:07Z</time>
      </trkpt>
      <trkpt lat="44.16428" lon="4.11147">
        <ele>273.15</ele>
        <time>2011-10-15T14:20:13Z</time>
      </trkpt>
      <trkpt lat="44.16394" lon="4.11154">
        <ele>273.63</ele>
        <time>2011-10-15T14:20:25Z</time>
      </trkpt>
      <trkpt lat="44.16362" lon="4.11145">
        <ele>274.11</ele>
        <time>2011-10-15T14:20:34Z</time>
      </trkpt>
      <trkpt lat="44.16358" lon="4.11143">
        <ele>274.11</ele>
        <time>2011-10-15T14:20:35Z</time>
      </trkpt>
      <trkpt lat="44.1635" lon="4.11141">
        <ele>274.11</ele>
        <time>2011-10-15T14:20:37Z</time>
      </trkpt>
      <trkpt lat="44.16337" lon="4.11138">
        <ele>273.15</ele>
        <time>2011-10-15T14:20:40Z</time>
      </trkpt>
      <trkpt lat="44.16316" lon="4.11135">
        <ele>271.23</ele>
        <time>2011-10-15T14:20:44Z</time>
      </trkpt>
      <trkpt lat="44.16293" lon="4.11138">
        <ele>272.67</ele>
        <time>2011-10-15T14:20:49Z</time>
      </trkpt>
      <trkpt lat="44.16261" lon="4.11152">
        <ele>273.15</ele>
        <time>2011-10-15T14:20:58Z</time>
      </trkpt>
      <trkpt lat="44.16254" lon="4.11125">
        <ele>275.07</ele>
        <time>2011-10-15T14:21:06Z</time>
      </trkpt>
      <trkpt lat="44.16255" lon="4.11112">
        <ele>276.04</ele>
        <time>2011-10-15T14:21:09Z</time>
      </trkpt>
      <trkpt lat="44.16255" lon="4.11098">
        <ele>276.52</ele>
        <time>2011-10-15T14:21:13Z</time>
      </trkpt>
      <trkpt lat="44.1626" lon="4.11079">
        <ele>275.56</ele>
        <time>2011-10-15T14:21:23Z</time>
      </trkpt>
      <trkpt lat="44.1626" lon="4.11076">
        <ele>275.56</ele>
        <time>2011-10-15T14:21:25Z</time>
      </trkpt>
      <trkpt lat="44.16268" lon="4.11044">
        <ele>273.63</ele>
        <time>2011-10-15T14:21:36Z</time>
      </trkpt>
      <trkpt lat="44.16269" lon="4.11038">
        <ele>273.63</ele>
        <time>2011-10-15T14:21:37Z</time>
      </trkpt>
      <trkpt lat="44.16269" lon="4.11032">
        <ele>273.63</ele>
        <time>2011-10-15T14:21:38Z</time>
      </trkpt>
      <trkpt lat="44.16269" lon="4.11027">
        <ele>273.63</ele>
        <time>2011-10-15T14:21:39Z</time>
      </trkpt>
      <trkpt lat="44.1627" lon="4.11021">
        <ele>274.11</ele>
        <time>2011-10-15T14:21:40Z</time>
      </trkpt>
      <trkpt lat="44.1627" lon="4.11015">
        <ele>273.63</ele>
        <time>2011-10-15T14:21:41Z</time>
      </trkpt>
      <trkpt lat="44.1627" lon="4.11009">
        <ele>274.11</ele>
        <time>2011-10-15T14:21:42Z</time>
      </trkpt>
      <trkpt lat="44.1627" lon="4.11003">
        <ele>273.63</ele>
        <time>2011-10-15T14:21:43Z</time>
      </trkpt>
      <trkpt lat="44.16269" lon="4.10997">
        <ele>274.11</ele>
        <time>2011-10-15T14:21:44Z</time>
      </trkpt>
      <trkpt lat="44.16253" lon="4.10945">
        <ele>274.11</ele>
        <time>2011-10-15T14:21:55Z</time>
      </trkpt>
      <trkpt lat="44.1623" lon="4.1091">
        <ele>274.11</ele>
        <time>2011-10-15T14:22:04Z</time>
      </trkpt>
      <trkpt lat="44.16203" lon="4.10876">
        <ele>275.56</ele>
        <time>2011-10-15T14:22:13Z</time>
      </trkpt>
      <trkpt lat="44.16171" lon="4.10859">
        <ele>275.56</ele>
        <time>2011-10-15T14:22:22Z</time>
      </trkpt>
      <trkpt lat="44.1616" lon="4.10853">
        <ele>274.59</ele>
        <time>2011-10-15T14:22:25Z</time>
      </trkpt>
      <trkpt lat="44.16156" lon="4.10851">
        <ele>274.59</ele>
        <time>2011-10-15T14:22:26Z</time>
      </trkpt>
      <trkpt lat="44.16152" lon="4.1085">
        <ele>274.59</ele>
        <time>2011-10-15T14:22:27Z</time>
      </trkpt>
      <trkpt lat="44.16134" lon="4.10842">
        <ele>273.63</ele>
        <time>2011-10-15T14:22:32Z</time>
      </trkpt>
      <trkpt lat="44.1613" lon="4.10841">
        <ele>273.63</ele>
        <time>2011-10-15T14:22:33Z</time>
      </trkpt>
      <trkpt lat="44.1612" lon="4.10838">
        <ele>273.63</ele>
        <time>2011-10-15T14:22:35Z</time>
      </trkpt>
      <trkpt lat="44.16109" lon="4.10834">
        <ele>273.63</ele>
        <time>2011-10-15T14:22:37Z</time>
      </trkpt>
      <trkpt lat="44.16105" lon="4.1083">
        <ele>273.63</ele>
        <time>2011-10-15T14:22:38Z</time>
      </trkpt>
      <trkpt lat="44.161" lon="4.10827">
        <ele>273.63</ele>
        <time>2011-10-15T14:22:39Z</time>
      </trkpt>
      <trkpt lat="44.16096" lon="4.10824">
        <ele>273.63</ele>
        <time>2011-10-15T14:22:40Z</time>
      </trkpt>
      <trkpt lat="44.16093" lon="4.10819">
        <ele>273.63</ele>
        <time>2011-10-15T14:22:41Z</time>
      </trkpt>
      <trkpt lat="44.16092" lon="4.10814">
        <ele>273.63</ele>
        <time>2011-10-15T14:22:42Z</time>
      </trkpt>
      <trkpt lat="44.1609" lon="4.10808">
        <ele>274.11</ele>
        <time>2011-10-15T14:22:43Z</time>
      </trkpt>
      <trkpt lat="44.16089" lon="4.10802">
        <ele>274.11</ele>
        <time>2011-10-15T14:22:44Z</time>
      </trkpt>
      <trkpt lat="44.16084" lon="4.10785">
        <ele>274.11</ele>
        <time>2011-10-15T14:22:47Z</time>
      </trkpt>
      <trkpt lat="44.16079" lon="4.10769">
        <ele>274.11</ele>
        <time>2011-10-15T14:22:50Z</time>
      </trkpt>
      <trkpt lat="44.16077" lon="4.10764">
        <ele>274.11</ele>
        <time>2011-10-15T14:22:51Z</time>
      </trkpt>
      <trkpt lat="44.16073" lon="4.10753">
        <ele>273.63</ele>
        <time>2011-10-15T14:22:53Z</time>
      </trkpt>
      <trkpt lat="44.16069" lon="4.10742">
        <ele>273.63</ele>
        <time>2011-10-15T14:22:55Z</time>
      </trkpt>
      <trkpt lat="44.16065" lon="4.1073">
        <ele>273.63</ele>
        <time>2011-10-15T14:22:57Z</time>
      </trkpt>
      <trkpt lat="44.16054" lon="4.10706">
        <ele>272.67</ele>
        <time>2011-10-15T14:23:01Z</time>
      </trkpt>
      <trkpt lat="44.16051" lon="4.10701">
        <ele>272.19</ele>
        <time>2011-10-15T14:23:02Z</time>
      </trkpt>
      <trkpt lat="44.16047" lon="4.10696">
        <ele>271.23</ele>
        <time>2011-10-15T14:23:03Z</time>
      </trkpt>
      <trkpt lat="44.16044" lon="4.1069">
        <ele>271.71</ele>
        <time>2011-10-15T14:23:04Z</time>
      </trkpt>
      <trkpt lat="44.16041" lon="4.10683">
        <ele>270.27</ele>
        <time>2011-10-15T14:23:05Z</time>
      </trkpt>
      <trkpt lat="44.16037" lon="4.10677">
        <ele>270.27</ele>
        <time>2011-10-15T14:23:06Z</time>
      </trkpt>
      <trkpt lat="44.1603" lon="4.10664">
        <ele>269.79</ele>
        <time>2011-10-15T14:23:08Z</time>
      </trkpt>
      <trkpt lat="44.16026" lon="4.10658">
        <ele>268.83</ele>
        <time>2011-10-15T14:23:09Z</time>
      </trkpt>
      <trkpt lat="44.16022" lon="4.10652">
        <ele>268.35</ele>
        <time>2011-10-15T14:23:10Z</time>
      </trkpt>
      <trkpt lat="44.16018" lon="4.10646">
        <ele>267.86</ele>
        <time>2011-10-15T14:23:11Z</time>
      </trkpt>
      <trkpt lat="44.16014" lon="4.10641">
        <ele>268.35</ele>
        <time>2011-10-15T14:23:12Z</time>
      </trkpt>
      <trkpt lat="44.1601" lon="4.10635">
        <ele>267.38</ele>
        <time>2011-10-15T14:23:13Z</time>
      </trkpt>
      <trkpt lat="44.16" lon="4.10619">
        <ele>267.38</ele>
        <time>2011-10-15T14:23:16Z</time>
      </trkpt>
      <trkpt lat="44.15989" lon="4.10606">
        <ele>267.38</ele>
        <time>2011-10-15T14:23:19Z</time>
      </trkpt>
      <trkpt lat="44.15987" lon="4.10601">
        <ele>266.9</ele>
        <time>2011-10-15T14:23:20Z</time>
      </trkpt>
      <trkpt lat="44.15986" lon="4.10595">
        <ele>266.9</ele>
        <time>2011-10-15T14:23:21Z</time>
      </trkpt>
      <trkpt lat="44.15983" lon="4.1059">
        <ele>266.9</ele>
        <time>2011-10-15T14:23:22Z</time>
      </trkpt>
      <trkpt lat="44.15981" lon="4.10585">
        <ele>266.42</ele>
        <time>2011-10-15T14:23:23Z</time>
      </trkpt>
      <trkpt lat="44.15979" lon="4.10581">
        <ele>266.9</ele>
        <time>2011-10-15T14:23:24Z</time>
      </trkpt>
      <trkpt lat="44.15977" lon="4.10576">
        <ele>266.9</ele>
        <time>2011-10-15T14:23:25Z</time>
      </trkpt>
      <trkpt lat="44.15976" lon="4.10571">
        <ele>265.46</ele>
        <time>2011-10-15T14:23:26Z</time>
      </trkpt>
      <trkpt lat="44.15976" lon="4.10565">
        <ele>265.94</ele>
        <time>2011-10-15T14:23:27Z</time>
      </trkpt>
      <trkpt lat="44.15977" lon="4.10559">
        <ele>265.94</ele>
        <time>2011-10-15T14:23:28Z</time>
      </trkpt>
      <trkpt lat="44.15978" lon="4.10553">
        <ele>266.42</ele>
        <time>2011-10-15T14:23:29Z</time>
      </trkpt>
      <trkpt lat="44.15977" lon="4.10547">
        <ele>266.42</ele>
        <time>2011-10-15T14:23:30Z</time>
      </trkpt>
      <trkpt lat="44.15975" lon="4.10542">
        <ele>265.94</ele>
        <time>2011-10-15T14:23:31Z</time>
      </trkpt>
      <trkpt lat="44.15972" lon="4.10537">
        <ele>265.46</ele>
        <time>2011-10-15T14:23:32Z</time>
      </trkpt>
      <trkpt lat="44.15965" lon="4.10524">
        <ele>264.5</ele>
        <time>2011-10-15T14:23:35Z</time>
      </trkpt>
      <trkpt lat="44.15961" lon="4.10513">
        <ele>263.54</ele>
        <time>2011-10-15T14:23:37Z</time>
      </trkpt>
      <trkpt lat="44.15957" lon="4.10501">
        <ele>263.06</ele>
        <time>2011-10-15T14:23:39Z</time>
      </trkpt>
      <trkpt lat="44.15956" lon="4.10494">
        <ele>263.06</ele>
        <time>2011-10-15T14:23:40Z</time>
      </trkpt>
      <trkpt lat="44.15954" lon="4.10488">
        <ele>262.58</ele>
        <time>2011-10-15T14:23:41Z</time>
      </trkpt>
      <trkpt lat="44.15942" lon="4.10463">
        <ele>262.1</ele>
        <time>2011-10-15T14:23:45Z</time>
      </trkpt>
      <trkpt lat="44.15941" lon="4.10457">
        <ele>262.1</ele>
        <time>2011-10-15T14:23:46Z</time>
      </trkpt>
      <trkpt lat="44.15941" lon="4.10437">
        <ele>263.06</ele>
        <time>2011-10-15T14:23:49Z</time>
      </trkpt>
      <trkpt lat="44.15939" lon="4.1043">
        <ele>264.02</ele>
        <time>2011-10-15T14:23:50Z</time>
      </trkpt>
      <trkpt lat="44.15938" lon="4.10425">
        <ele>264.02</ele>
        <time>2011-10-15T14:23:51Z</time>
      </trkpt>
      <trkpt lat="44.15934" lon="4.10414">
        <ele>264.5</ele>
        <time>2011-10-15T14:23:53Z</time>
      </trkpt>
      <trkpt lat="44.15932" lon="4.10409">
        <ele>264.5</ele>
        <time>2011-10-15T14:23:54Z</time>
      </trkpt>
      <trkpt lat="44.15929" lon="4.10405">
        <ele>264.5</ele>
        <time>2011-10-15T14:23:55Z</time>
      </trkpt>
      <trkpt lat="44.15903" lon="4.10387">
        <ele>267.38</ele>
        <time>2011-10-15T14:24:04Z</time>
      </trkpt>
      <trkpt lat="44.15899" lon="4.10386">
        <ele>266.42</ele>
        <time>2011-10-15T14:24:05Z</time>
      </trkpt>
      <trkpt lat="44.15896" lon="4.10383">
        <ele>265.94</ele>
        <time>2011-10-15T14:24:06Z</time>
      </trkpt>
      <trkpt lat="44.15893" lon="4.1038">
        <ele>266.42</ele>
        <time>2011-10-15T14:24:07Z</time>
      </trkpt>
      <trkpt lat="44.15891" lon="4.10376">
        <ele>266.9</ele>
        <time>2011-10-15T14:24:08Z</time>
      </trkpt>
      <trkpt lat="44.1589" lon="4.10372">
        <ele>266.42</ele>
        <time>2011-10-15T14:24:09Z</time>
      </trkpt>
      <trkpt lat="44.15877" lon="4.10351">
        <ele>265.94</ele>
        <time>2011-10-15T14:24:14Z</time>
      </trkpt>
      <trkpt lat="44.15874" lon="4.10347">
        <ele>265.94</ele>
        <time>2011-10-15T14:24:15Z</time>
      </trkpt>
      <trkpt lat="44.15865" lon="4.10335">
        <ele>262.1</ele>
        <time>2011-10-15T14:24:19Z</time>
      </trkpt>
      <trkpt lat="44.15863" lon="4.10332">
        <ele>262.1</ele>
        <time>2011-10-15T14:24:20Z</time>
      </trkpt>
      <trkpt lat="44.1585" lon="4.10328">
        <ele>258.73</ele>
        <time>2011-10-15T14:24:24Z</time>
      </trkpt>
      <trkpt lat="44.15844" lon="4.10327">
        <ele>257.77</ele>
        <time>2011-10-15T14:24:26Z</time>
      </trkpt>
      <trkpt lat="44.15825" lon="4.10318">
        <ele>254.41</ele>
        <time>2011-10-15T14:24:31Z</time>
      </trkpt>
      <trkpt lat="44.15817" lon="4.10314">
        <ele>253.44</ele>
        <time>2011-10-15T14:24:33Z</time>
      </trkpt>
      <trkpt lat="44.15813" lon="4.10311">
        <ele>252.96</ele>
        <time>2011-10-15T14:24:34Z</time>
      </trkpt>
      <trkpt lat="44.15805" lon="4.10303">
        <ele>252.48</ele>
        <time>2011-10-15T14:24:36Z</time>
      </trkpt>
      <trkpt lat="44.15802" lon="4.10299">
        <ele>252</ele>
        <time>2011-10-15T14:24:37Z</time>
      </trkpt>
      <trkpt lat="44.15798" lon="4.10294">
        <ele>251.52</ele>
        <time>2011-10-15T14:24:38Z</time>
      </trkpt>
      <trkpt lat="44.15794" lon="4.1029">
        <ele>252</ele>
        <time>2011-10-15T14:24:39Z</time>
      </trkpt>
      <trkpt lat="44.1579" lon="4.10287">
        <ele>251.52</ele>
        <time>2011-10-15T14:24:40Z</time>
      </trkpt>
      <trkpt lat="44.15778" lon="4.10274">
        <ele>251.52</ele>
        <time>2011-10-15T14:24:43Z</time>
      </trkpt>
      <trkpt lat="44.15769" lon="4.10267">
        <ele>252.48</ele>
        <time>2011-10-15T14:24:45Z</time>
      </trkpt>
      <trkpt lat="44.15765" lon="4.10264">
        <ele>252.48</ele>
        <time>2011-10-15T14:24:46Z</time>
      </trkpt>
      <trkpt lat="44.15761" lon="4.1026">
        <ele>252.96</ele>
        <time>2011-10-15T14:24:47Z</time>
      </trkpt>
      <trkpt lat="44.15759" lon="4.10255">
        <ele>252.96</ele>
        <time>2011-10-15T14:24:48Z</time>
      </trkpt>
      <trkpt lat="44.15757" lon="4.10249">
        <ele>252.96</ele>
        <time>2011-10-15T14:24:49Z</time>
      </trkpt>
      <trkpt lat="44.15755" lon="4.10243">
        <ele>252.96</ele>
        <time>2011-10-15T14:24:50Z</time>
      </trkpt>
      <trkpt lat="44.15753" lon="4.10238">
        <ele>251.52</ele>
        <time>2011-10-15T14:24:51Z</time>
      </trkpt>
      <trkpt lat="44.15749" lon="4.10232">
        <ele>252</ele>
        <time>2011-10-15T14:24:52Z</time>
      </trkpt>
      <trkpt lat="44.15746" lon="4.10226">
        <ele>251.04</ele>
        <time>2011-10-15T14:24:53Z</time>
      </trkpt>
      <trkpt lat="44.15736" lon="4.10194">
        <ele>249.12</ele>
        <time>2011-10-15T14:25:00Z</time>
      </trkpt>
      <trkpt lat="44.15727" lon="4.10147">
        <ele>252.48</ele>
        <time>2011-10-15T14:25:11Z</time>
      </trkpt>
      <trkpt lat="44.15723" lon="4.10119">
        <ele>255.37</ele>
        <time>2011-10-15T14:25:18Z</time>
      </trkpt>
      <trkpt lat="44.15718" lon="4.10103">
        <ele>257.29</ele>
        <time>2011-10-15T14:25:22Z</time>
      </trkpt>
      <trkpt lat="44.15695" lon="4.10084">
        <ele>260.17</ele>
        <time>2011-10-15T14:25:32Z</time>
      </trkpt>
      <trkpt lat="44.15678" lon="4.10068">
        <ele>263.06</ele>
        <time>2011-10-15T14:25:43Z</time>
      </trkpt>
      <trkpt lat="44.15678" lon="4.10066">
        <ele>262.58</ele>
        <time>2011-10-15T14:25:44Z</time>
      </trkpt>
      <trkpt lat="44.15677" lon="4.10065">
        <ele>263.06</ele>
        <time>2011-10-15T14:25:45Z</time>
      </trkpt>
      <trkpt lat="44.15677" lon="4.10063">
        <ele>262.58</ele>
        <time>2011-10-15T14:25:46Z</time>
      </trkpt>
      <trkpt lat="44.15677" lon="4.1006">
        <ele>262.58</ele>
        <time>2011-10-15T14:25:47Z</time>
      </trkpt>
      <trkpt lat="44.15677" lon="4.10058">
        <ele>262.58</ele>
        <time>2011-10-15T14:25:48Z</time>
      </trkpt>
      <trkpt lat="44.15677" lon="4.10056">
        <ele>262.58</ele>
        <time>2011-10-15T14:25:49Z</time>
      </trkpt>
      <trkpt lat="44.15676" lon="4.10053">
        <ele>262.58</ele>
        <time>2011-10-15T14:25:50Z</time>
      </trkpt>
      <trkpt lat="44.15676" lon="4.10051">
        <ele>262.58</ele>
        <time>2011-10-15T14:25:51Z</time>
      </trkpt>
      <trkpt lat="44.15658" lon="4.10034">
        <ele>263.54</ele>
        <time>2011-10-15T14:26:05Z</time>
      </trkpt>
      <trkpt lat="44.15644" lon="4.10043">
        <ele>263.54</ele>
        <time>2011-10-15T14:26:16Z</time>
      </trkpt>
      <trkpt lat="44.15643" lon="4.10042">
        <ele>263.54</ele>
        <time>2011-10-15T14:26:17Z</time>
      </trkpt>
      <trkpt lat="44.15642" lon="4.10041">
        <ele>263.06</ele>
        <time>2011-10-15T14:26:18Z</time>
      </trkpt>
      <trkpt lat="44.15642" lon="4.10039">
        <ele>263.06</ele>
        <time>2011-10-15T14:26:19Z</time>
      </trkpt>
      <trkpt lat="44.15643" lon="4.1003">
        <ele>262.58</ele>
        <time>2011-10-15T14:26:32Z</time>
      </trkpt>
      <trkpt lat="44.15642" lon="4.10027">
        <ele>262.58</ele>
        <time>2011-10-15T14:26:33Z</time>
      </trkpt>
      <trkpt lat="44.15641" lon="4.10025">
        <ele>262.1</ele>
        <time>2011-10-15T14:26:34Z</time>
      </trkpt>
      <trkpt lat="44.15641" lon="4.10023">
        <ele>261.14</ele>
        <time>2011-10-15T14:26:35Z</time>
      </trkpt>
      <trkpt lat="44.1564" lon="4.1002">
        <ele>262.1</ele>
        <time>2011-10-15T14:26:36Z</time>
      </trkpt>
      <trkpt lat="44.15638" lon="4.10018">
        <ele>261.62</ele>
        <time>2011-10-15T14:26:37Z</time>
      </trkpt>
      <trkpt lat="44.15637" lon="4.10016">
        <ele>261.14</ele>
        <time>2011-10-15T14:26:38Z</time>
      </trkpt>
      <trkpt lat="44.15635" lon="4.10015">
        <ele>260.17</ele>
        <time>2011-10-15T14:26:39Z</time>
      </trkpt>
      <trkpt lat="44.15632" lon="4.10011">
        <ele>259.21</ele>
        <time>2011-10-15T14:26:41Z</time>
      </trkpt>
      <trkpt lat="44.1563" lon="4.10007">
        <ele>258.25</ele>
        <time>2011-10-15T14:26:42Z</time>
      </trkpt>
      <trkpt lat="44.1563" lon="4.10003">
        <ele>257.77</ele>
        <time>2011-10-15T14:26:43Z</time>
      </trkpt>
      <trkpt lat="44.15629" lon="4.09999">
        <ele>256.81</ele>
        <time>2011-10-15T14:26:44Z</time>
      </trkpt>
      <trkpt lat="44.1563" lon="4.09996">
        <ele>256.33</ele>
        <time>2011-10-15T14:26:45Z</time>
      </trkpt>
      <trkpt lat="44.1563" lon="4.09992">
        <ele>255.85</ele>
        <time>2011-10-15T14:26:46Z</time>
      </trkpt>
      <trkpt lat="44.15631" lon="4.09988">
        <ele>255.37</ele>
        <time>2011-10-15T14:26:47Z</time>
      </trkpt>
      <trkpt lat="44.1563" lon="4.09984">
        <ele>254.89</ele>
        <time>2011-10-15T14:26:48Z</time>
      </trkpt>
      <trkpt lat="44.15629" lon="4.0998">
        <ele>254.41</ele>
        <time>2011-10-15T14:26:49Z</time>
      </trkpt>
      <trkpt lat="44.15629" lon="4.09975">
        <ele>253.44</ele>
        <time>2011-10-15T14:26:50Z</time>
      </trkpt>
      <trkpt lat="44.15628" lon="4.0997">
        <ele>252</ele>
        <time>2011-10-15T14:26:51Z</time>
      </trkpt>
      <trkpt lat="44.15628" lon="4.09966">
        <ele>252</ele>
        <time>2011-10-15T14:26:52Z</time>
      </trkpt>
      <trkpt lat="44.15626" lon="4.09946">
        <ele>248.64</ele>
        <time>2011-10-15T14:26:56Z</time>
      </trkpt>
      <trkpt lat="44.15625" lon="4.09932">
        <ele>247.2</ele>
        <time>2011-10-15T14:26:58Z</time>
      </trkpt>
      <trkpt lat="44.15624" lon="4.09905">
        <ele>243.83</ele>
        <time>2011-10-15T14:27:01Z</time>
      </trkpt>
      <trkpt lat="44.15622" lon="4.09867">
        <ele>241.91</ele>
        <time>2011-10-15T14:27:05Z</time>
      </trkpt>
      <trkpt lat="44.1562" lon="4.0986">
        <ele>242.87</ele>
        <time>2011-10-15T14:27:06Z</time>
      </trkpt>
      <trkpt lat="44.15616" lon="4.09854">
        <ele>241.43</ele>
        <time>2011-10-15T14:27:07Z</time>
      </trkpt>
      <trkpt lat="44.15601" lon="4.09838">
        <ele>241.91</ele>
        <time>2011-10-15T14:27:11Z</time>
      </trkpt>
      <trkpt lat="44.15594" lon="4.09828">
        <ele>241.91</ele>
        <time>2011-10-15T14:27:13Z</time>
      </trkpt>
      <trkpt lat="44.1559" lon="4.09824">
        <ele>241.43</ele>
        <time>2011-10-15T14:27:14Z</time>
      </trkpt>
      <trkpt lat="44.15577" lon="4.09814">
        <ele>241.43</ele>
        <time>2011-10-15T14:27:17Z</time>
      </trkpt>
      <trkpt lat="44.15572" lon="4.09811">
        <ele>240.47</ele>
        <time>2011-10-15T14:27:18Z</time>
      </trkpt>
      <trkpt lat="44.15567" lon="4.09808">
        <ele>241.43</ele>
        <time>2011-10-15T14:27:19Z</time>
      </trkpt>
      <trkpt lat="44.15562" lon="4.09805">
        <ele>239.51</ele>
        <time>2011-10-15T14:27:20Z</time>
      </trkpt>
      <trkpt lat="44.15556" lon="4.09801">
        <ele>239.51</ele>
        <time>2011-10-15T14:27:21Z</time>
      </trkpt>
      <trkpt lat="44.15541" lon="4.09792">
        <ele>238.54</ele>
        <time>2011-10-15T14:27:24Z</time>
      </trkpt>
      <trkpt lat="44.15536" lon="4.09787">
        <ele>238.06</ele>
        <time>2011-10-15T14:27:25Z</time>
      </trkpt>
      <trkpt lat="44.15531" lon="4.09783">
        <ele>238.06</ele>
        <time>2011-10-15T14:27:26Z</time>
      </trkpt>
      <trkpt lat="44.15526" lon="4.0978">
        <ele>238.06</ele>
        <time>2011-10-15T14:27:27Z</time>
      </trkpt>
      <trkpt lat="44.15521" lon="4.09778">
        <ele>237.1</ele>
        <time>2011-10-15T14:27:28Z</time>
      </trkpt>
      <trkpt lat="44.15516" lon="4.09775">
        <ele>237.58</ele>
        <time>2011-10-15T14:27:29Z</time>
      </trkpt>
      <trkpt lat="44.1551" lon="4.09773">
        <ele>236.62</ele>
        <time>2011-10-15T14:27:30Z</time>
      </trkpt>
      <trkpt lat="44.15505" lon="4.09771">
        <ele>236.62</ele>
        <time>2011-10-15T14:27:31Z</time>
      </trkpt>
      <trkpt lat="44.15496" lon="4.0977">
        <ele>237.1</ele>
        <time>2011-10-15T14:27:33Z</time>
      </trkpt>
      <trkpt lat="44.15492" lon="4.09767">
        <ele>237.1</ele>
        <time>2011-10-15T14:27:34Z</time>
      </trkpt>
      <trkpt lat="44.1549" lon="4.09763">
        <ele>238.06</ele>
        <time>2011-10-15T14:27:35Z</time>
      </trkpt>
      <trkpt lat="44.15488" lon="4.0976">
        <ele>238.54</ele>
        <time>2011-10-15T14:27:36Z</time>
      </trkpt>
      <trkpt lat="44.15486" lon="4.09758">
        <ele>238.54</ele>
        <time>2011-10-15T14:27:37Z</time>
      </trkpt>
      <trkpt lat="44.15473" lon="4.09745">
        <ele>241.43</ele>
        <time>2011-10-15T14:27:44Z</time>
      </trkpt>
      <trkpt lat="44.15471" lon="4.09745">
        <ele>239.99</ele>
        <time>2011-10-15T14:27:45Z</time>
      </trkpt>
      <trkpt lat="44.15465" lon="4.09743">
        <ele>242.39</ele>
        <time>2011-10-15T14:27:48Z</time>
      </trkpt>
      <trkpt lat="44.1545" lon="4.09735">
        <ele>243.83</ele>
        <time>2011-10-15T14:27:56Z</time>
      </trkpt>
      <trkpt lat="44.1545" lon="4.09735">
        <ele>243.83</ele>
        <time>2011-10-15T14:28:26Z</time>
      </trkpt>
      <trkpt lat="44.1545" lon="4.09734">
        <ele>244.31</ele>
        <time>2011-10-15T14:28:52Z</time>
      </trkpt>
      <trkpt lat="44.1545" lon="4.09734">
        <ele>243.83</ele>
        <time>2011-10-15T14:29:14Z</time>
      </trkpt>
      <trkpt lat="44.15452" lon="4.09735">
        <ele>243.35</ele>
        <time>2011-10-15T14:29:15Z</time>
      </trkpt>
      <trkpt lat="44.15454" lon="4.09737">
        <ele>243.83</ele>
        <time>2011-10-15T14:29:16Z</time>
      </trkpt>
      <trkpt lat="44.15456" lon="4.09738">
        <ele>243.35</ele>
        <time>2011-10-15T14:29:17Z</time>
      </trkpt>
      <trkpt lat="44.1546" lon="4.0974">
        <ele>243.35</ele>
        <time>2011-10-15T14:29:18Z</time>
      </trkpt>
      <trkpt lat="44.15463" lon="4.09741">
        <ele>242.39</ele>
        <time>2011-10-15T14:29:19Z</time>
      </trkpt>
      <trkpt lat="44.15467" lon="4.09742">
        <ele>241.91</ele>
        <time>2011-10-15T14:29:20Z</time>
      </trkpt>
      <trkpt lat="44.1547" lon="4.09744">
        <ele>241.91</ele>
        <time>2011-10-15T14:29:21Z</time>
      </trkpt>
      <trkpt lat="44.15483" lon="4.09755">
        <ele>238.54</ele>
        <time>2011-10-15T14:29:28Z</time>
      </trkpt>
      <trkpt lat="44.15481" lon="4.0976">
        <ele>238.54</ele>
        <time>2011-10-15T14:29:36Z</time>
      </trkpt>
      <trkpt lat="44.1548" lon="4.09761">
        <ele>238.06</ele>
        <time>2011-10-15T14:29:37Z</time>
      </trkpt>
      <trkpt lat="44.15479" lon="4.09761">
        <ele>238.06</ele>
        <time>2011-10-15T14:29:38Z</time>
      </trkpt>
      <trkpt lat="44.15478" lon="4.0976">
        <ele>238.06</ele>
        <time>2011-10-15T14:29:39Z</time>
      </trkpt>
      <trkpt lat="44.15476" lon="4.0976">
        <ele>238.54</ele>
        <time>2011-10-15T14:29:40Z</time>
      </trkpt>
      <trkpt lat="44.15474" lon="4.0976">
        <ele>238.54</ele>
        <time>2011-10-15T14:29:41Z</time>
      </trkpt>
      <trkpt lat="44.15472" lon="4.0976">
        <ele>238.54</ele>
        <time>2011-10-15T14:29:42Z</time>
      </trkpt>
      <trkpt lat="44.15469" lon="4.0976">
        <ele>238.54</ele>
        <time>2011-10-15T14:29:43Z</time>
      </trkpt>
      <trkpt lat="44.15467" lon="4.0976">
        <ele>239.02</ele>
        <time>2011-10-15T14:29:44Z</time>
      </trkpt>
      <trkpt lat="44.15464" lon="4.0976">
        <ele>239.02</ele>
        <time>2011-10-15T14:29:45Z</time>
      </trkpt>
      <trkpt lat="44.15462" lon="4.09759">
        <ele>239.02</ele>
        <time>2011-10-15T14:29:46Z</time>
      </trkpt>
      <trkpt lat="44.15428" lon="4.09757">
        <ele>239.51</ele>
        <time>2011-10-15T14:29:57Z</time>
      </trkpt>
      <trkpt lat="44.15405" lon="4.09747">
        <ele>239.02</ele>
        <time>2011-10-15T14:30:05Z</time>
      </trkpt>
      <trkpt lat="44.15389" lon="4.09725">
        <ele>239.99</ele>
        <time>2011-10-15T14:30:11Z</time>
      </trkpt>
      <trkpt lat="44.15386" lon="4.09721">
        <ele>239.51</ele>
        <time>2011-10-15T14:30:12Z</time>
      </trkpt>
      <trkpt lat="44.15375" lon="4.09706">
        <ele>238.54</ele>
        <time>2011-10-15T14:30:15Z</time>
      </trkpt>
      <trkpt lat="44.15372" lon="4.09701">
        <ele>237.58</ele>
        <time>2011-10-15T14:30:16Z</time>
      </trkpt>
      <trkpt lat="44.15368" lon="4.09696">
        <ele>238.06</ele>
        <time>2011-10-15T14:30:17Z</time>
      </trkpt>
      <trkpt lat="44.15365" lon="4.09693">
        <ele>238.06</ele>
        <time>2011-10-15T14:30:18Z</time>
      </trkpt>
      <trkpt lat="44.15361" lon="4.0969">
        <ele>238.06</ele>
        <time>2011-10-15T14:30:19Z</time>
      </trkpt>
      <trkpt lat="44.15358" lon="4.09687">
        <ele>238.06</ele>
        <time>2011-10-15T14:30:20Z</time>
      </trkpt>
      <trkpt lat="44.15355" lon="4.09683">
        <ele>238.06</ele>
        <time>2011-10-15T14:30:21Z</time>
      </trkpt>
      <trkpt lat="44.15351" lon="4.09679">
        <ele>238.06</ele>
        <time>2011-10-15T14:30:22Z</time>
      </trkpt>
      <trkpt lat="44.15347" lon="4.09676">
        <ele>237.58</ele>
        <time>2011-10-15T14:30:23Z</time>
      </trkpt>
      <trkpt lat="44.15339" lon="4.09669">
        <ele>237.58</ele>
        <time>2011-10-15T14:30:25Z</time>
      </trkpt>
      <trkpt lat="44.15311" lon="4.09646">
        <ele>236.14</ele>
        <time>2011-10-15T14:30:33Z</time>
      </trkpt>
      <trkpt lat="44.15296" lon="4.09626">
        <ele>232.78</ele>
        <time>2011-10-15T14:30:40Z</time>
      </trkpt>
      <trkpt lat="44.15287" lon="4.09613">
        <ele>229.89</ele>
        <time>2011-10-15T14:30:44Z</time>
      </trkpt>
      <trkpt lat="44.15282" lon="4.09601">
        <ele>227.97</ele>
        <time>2011-10-15T14:30:47Z</time>
      </trkpt>
      <trkpt lat="44.15277" lon="4.09594">
        <ele>226.53</ele>
        <time>2011-10-15T14:30:49Z</time>
      </trkpt>
      <trkpt lat="44.15271" lon="4.09584">
        <ele>222.2</ele>
        <time>2011-10-15T14:30:52Z</time>
      </trkpt>
      <trkpt lat="44.15266" lon="4.09576">
        <ele>221.72</ele>
        <time>2011-10-15T14:30:54Z</time>
      </trkpt>
      <trkpt lat="44.15258" lon="4.09566">
        <ele>217.88</ele>
        <time>2011-10-15T14:30:58Z</time>
      </trkpt>
      <trkpt lat="44.15256" lon="4.09563">
        <ele>217.88</ele>
        <time>2011-10-15T14:30:59Z</time>
      </trkpt>
      <trkpt lat="44.1524" lon="4.09545">
        <ele>214.03</ele>
        <time>2011-10-15T14:31:04Z</time>
      </trkpt>
      <trkpt lat="44.15233" lon="4.09535">
        <ele>213.55</ele>
        <time>2011-10-15T14:31:06Z</time>
      </trkpt>
      <trkpt lat="44.15229" lon="4.09531">
        <ele>212.59</ele>
        <time>2011-10-15T14:31:07Z</time>
      </trkpt>
      <trkpt lat="44.15219" lon="4.09524">
        <ele>211.63</ele>
        <time>2011-10-15T14:31:09Z</time>
      </trkpt>
      <trkpt lat="44.15205" lon="4.09513">
        <ele>209.7</ele>
        <time>2011-10-15T14:31:14Z</time>
      </trkpt>
      <trkpt lat="44.15199" lon="4.09509">
        <ele>209.22</ele>
        <time>2011-10-15T14:31:33Z</time>
      </trkpt>
      <trkpt lat="44.15199" lon="4.09509">
        <ele>208.26</ele>
        <time>2011-10-15T14:31:55Z</time>
      </trkpt>
      <trkpt lat="44.15199" lon="4.09509">
        <ele>208.26</ele>
        <time>2011-10-15T14:32:11Z</time>
      </trkpt>
      <trkpt lat="44.15203" lon="4.09509">
        <ele>209.22</ele>
        <time>2011-10-15T14:32:16Z</time>
      </trkpt>
      <trkpt lat="44.15204" lon="4.0951">
        <ele>209.7</ele>
        <time>2011-10-15T14:32:17Z</time>
      </trkpt>
      <trkpt lat="44.15206" lon="4.09511">
        <ele>209.7</ele>
        <time>2011-10-15T14:32:22Z</time>
      </trkpt>
      <trkpt lat="44.15215" lon="4.09517">
        <ele>211.15</ele>
        <time>2011-10-15T14:32:31Z</time>
      </trkpt>
      <trkpt lat="44.15225" lon="4.09528">
        <ele>212.11</ele>
        <time>2011-10-15T14:32:37Z</time>
      </trkpt>
      <trkpt lat="44.15226" lon="4.09531">
        <ele>212.59</ele>
        <time>2011-10-15T14:32:38Z</time>
      </trkpt>
      <trkpt lat="44.15227" lon="4.09533">
        <ele>213.55</ele>
        <time>2011-10-15T14:32:39Z</time>
      </trkpt>
      <trkpt lat="44.15228" lon="4.09535">
        <ele>213.55</ele>
        <time>2011-10-15T14:32:40Z</time>
      </trkpt>
      <trkpt lat="44.15229" lon="4.09537">
        <ele>213.55</ele>
        <time>2011-10-15T14:32:41Z</time>
      </trkpt>
      <trkpt lat="44.15231" lon="4.09539">
        <ele>214.03</ele>
        <time>2011-10-15T14:32:42Z</time>
      </trkpt>
      <trkpt lat="44.15232" lon="4.09541">
        <ele>214.03</ele>
        <time>2011-10-15T14:32:43Z</time>
      </trkpt>
      <trkpt lat="44.15233" lon="4.09543">
        <ele>214.99</ele>
        <time>2011-10-15T14:32:44Z</time>
      </trkpt>
      <trkpt lat="44.15247" lon="4.09559">
        <ele>217.88</ele>
        <time>2011-10-15T14:32:53Z</time>
      </trkpt>
      <trkpt lat="44.15249" lon="4.09561">
        <ele>217.88</ele>
        <time>2011-10-15T14:32:54Z</time>
      </trkpt>
      <trkpt lat="44.15256" lon="4.09569">
        <ele>218.84</ele>
        <time>2011-10-15T14:32:59Z</time>
      </trkpt>
      <trkpt lat="44.15257" lon="4.09571">
        <ele>219.32</ele>
        <time>2011-10-15T14:33:00Z</time>
      </trkpt>
      <trkpt lat="44.15262" lon="4.09578">
        <ele>221.24</ele>
        <time>2011-10-15T14:33:05Z</time>
      </trkpt>
      <trkpt lat="44.15266" lon="4.09581">
        <ele>222.2</ele>
        <time>2011-10-15T14:33:08Z</time>
      </trkpt>
      <trkpt lat="44.15277" lon="4.09596">
        <ele>225.09</ele>
        <time>2011-10-15T14:33:18Z</time>
      </trkpt>
      <trkpt lat="44.15282" lon="4.09602">
        <ele>227.01</ele>
        <time>2011-10-15T14:33:30Z</time>
      </trkpt>
      <trkpt lat="44.15286" lon="4.09612">
        <ele>228.45</ele>
        <time>2011-10-15T14:33:43Z</time>
      </trkpt>
      <trkpt lat="44.15293" lon="4.09622">
        <ele>231.81</ele>
        <time>2011-10-15T14:33:56Z</time>
      </trkpt>
      <trkpt lat="44.153" lon="4.09633">
        <ele>233.74</ele>
        <time>2011-10-15T14:34:10Z</time>
      </trkpt>
      <trkpt lat="44.15303" lon="4.09638">
        <ele>234.22</ele>
        <time>2011-10-15T14:34:23Z</time>
      </trkpt>
      <trkpt lat="44.15302" lon="4.09638">
        <ele>235.18</ele>
        <time>2011-10-15T14:34:44Z</time>
      </trkpt>
      <trkpt lat="44.15301" lon="4.09641">
        <ele>234.7</ele>
        <time>2011-10-15T14:35:04Z</time>
      </trkpt>
      <trkpt lat="44.15297" lon="4.09648">
        <ele>233.74</ele>
        <time>2011-10-15T14:35:07Z</time>
      </trkpt>
      <trkpt lat="44.15295" lon="4.0965">
        <ele>232.78</ele>
        <time>2011-10-15T14:35:08Z</time>
      </trkpt>
      <trkpt lat="44.15292" lon="4.09652">
        <ele>232.78</ele>
        <time>2011-10-15T14:35:09Z</time>
      </trkpt>
      <trkpt lat="44.15289" lon="4.09653">
        <ele>232.78</ele>
        <time>2011-10-15T14:35:10Z</time>
      </trkpt>
      <trkpt lat="44.15286" lon="4.09654">
        <ele>231.33</ele>
        <time>2011-10-15T14:35:11Z</time>
      </trkpt>
      <trkpt lat="44.15283" lon="4.09656">
        <ele>230.85</ele>
        <time>2011-10-15T14:35:12Z</time>
      </trkpt>
      <trkpt lat="44.15282" lon="4.09657">
        <ele>230.37</ele>
        <time>2011-10-15T14:35:13Z</time>
      </trkpt>
      <trkpt lat="44.1528" lon="4.09659">
        <ele>229.41</ele>
        <time>2011-10-15T14:35:14Z</time>
      </trkpt>
      <trkpt lat="44.15278" lon="4.09661">
        <ele>228.45</ele>
        <time>2011-10-15T14:35:15Z</time>
      </trkpt>
      <trkpt lat="44.15262" lon="4.09669">
        <ele>225.57</ele>
        <time>2011-10-15T14:35:19Z</time>
      </trkpt>
      <trkpt lat="44.15257" lon="4.09671">
        <ele>225.57</ele>
        <time>2011-10-15T14:35:20Z</time>
      </trkpt>
      <trkpt lat="44.15252" lon="4.09673">
        <ele>224.61</ele>
        <time>2011-10-15T14:35:21Z</time>
      </trkpt>
      <trkpt lat="44.1523" lon="4.09681">
        <ele>222.2</ele>
        <time>2011-10-15T14:35:25Z</time>
      </trkpt>
      <trkpt lat="44.15224" lon="4.09681">
        <ele>221.24</ele>
        <time>2011-10-15T14:35:27Z</time>
      </trkpt>
      <trkpt lat="44.15222" lon="4.09681">
        <ele>221.72</ele>
        <time>2011-10-15T14:35:28Z</time>
      </trkpt>
      <trkpt lat="44.1522" lon="4.09682">
        <ele>221.72</ele>
        <time>2011-10-15T14:35:29Z</time>
      </trkpt>
      <trkpt lat="44.15218" lon="4.09682">
        <ele>221.24</ele>
        <time>2011-10-15T14:35:30Z</time>
      </trkpt>
      <trkpt lat="44.15216" lon="4.09684">
        <ele>221.24</ele>
        <time>2011-10-15T14:35:31Z</time>
      </trkpt>
      <trkpt lat="44.15213" lon="4.09686">
        <ele>221.72</ele>
        <time>2011-10-15T14:35:32Z</time>
      </trkpt>
      <trkpt lat="44.1521" lon="4.09687">
        <ele>221.24</ele>
        <time>2011-10-15T14:35:33Z</time>
      </trkpt>
      <trkpt lat="44.15202" lon="4.09689">
        <ele>220.76</ele>
        <time>2011-10-15T14:35:35Z</time>
      </trkpt>
      <trkpt lat="44.15189" lon="4.09687">
        <ele>219.8</ele>
        <time>2011-10-15T14:35:39Z</time>
      </trkpt>
      <trkpt lat="44.15186" lon="4.09689">
        <ele>220.28</ele>
        <time>2011-10-15T14:35:40Z</time>
      </trkpt>
      <trkpt lat="44.15182" lon="4.09692">
        <ele>218.84</ele>
        <time>2011-10-15T14:35:41Z</time>
      </trkpt>
      <trkpt lat="44.15176" lon="4.09693">
        <ele>218.84</ele>
        <time>2011-10-15T14:35:42Z</time>
      </trkpt>
      <trkpt lat="44.1517" lon="4.09694">
        <ele>218.84</ele>
        <time>2011-10-15T14:35:43Z</time>
      </trkpt>
      <trkpt lat="44.15158" lon="4.09696">
        <ele>217.88</ele>
        <time>2011-10-15T14:35:45Z</time>
      </trkpt>
      <trkpt lat="44.15133" lon="4.09702">
        <ele>215.95</ele>
        <time>2011-10-15T14:35:49Z</time>
      </trkpt>
      <trkpt lat="44.15118" lon="4.09711">
        <ele>214.03</ele>
        <time>2011-10-15T14:35:52Z</time>
      </trkpt>
      <trkpt lat="44.15112" lon="4.09712">
        <ele>214.03</ele>
        <time>2011-10-15T14:35:53Z</time>
      </trkpt>
      <trkpt lat="44.15106" lon="4.09712">
        <ele>212.59</ele>
        <time>2011-10-15T14:35:54Z</time>
      </trkpt>
      <trkpt lat="44.15098" lon="4.09712">
        <ele>213.07</ele>
        <time>2011-10-15T14:35:55Z</time>
      </trkpt>
      <trkpt lat="44.15091" lon="4.09712">
        <ele>212.11</ele>
        <time>2011-10-15T14:35:56Z</time>
      </trkpt>
      <trkpt lat="44.15079" lon="4.09712">
        <ele>210.67</ele>
        <time>2011-10-15T14:35:58Z</time>
      </trkpt>
      <trkpt lat="44.15075" lon="4.09713">
        <ele>210.67</ele>
        <time>2011-10-15T14:35:59Z</time>
      </trkpt>
      <trkpt lat="44.15059" lon="4.09717">
        <ele>208.26</ele>
        <time>2011-10-15T14:36:03Z</time>
      </trkpt>
      <trkpt lat="44.15039" lon="4.09721">
        <ele>205.38</ele>
        <time>2011-10-15T14:36:11Z</time>
      </trkpt>
      <trkpt lat="44.15037" lon="4.09725">
        <ele>204.42</ele>
        <time>2011-10-15T14:36:13Z</time>
      </trkpt>
      <trkpt lat="44.15032" lon="4.09743">
        <ele>201.53</ele>
        <time>2011-10-15T14:36:18Z</time>
      </trkpt>
      <trkpt lat="44.15028" lon="4.09756">
        <ele>198.65</ele>
        <time>2011-10-15T14:36:24Z</time>
      </trkpt>
      <trkpt lat="44.15029" lon="4.09771">
        <ele>196.25</ele>
        <time>2011-10-15T14:36:28Z</time>
      </trkpt>
      <trkpt lat="44.15046" lon="4.09808">
        <ele>192.4</ele>
        <time>2011-10-15T14:36:37Z</time>
      </trkpt>
      <trkpt lat="44.15054" lon="4.09824">
        <ele>190.48</ele>
        <time>2011-10-15T14:36:41Z</time>
      </trkpt>
      <trkpt lat="44.15057" lon="4.09831">
        <ele>189.52</ele>
        <time>2011-10-15T14:36:44Z</time>
      </trkpt>
      <trkpt lat="44.15055" lon="4.09832">
        <ele>188.56</ele>
        <time>2011-10-15T14:36:46Z</time>
      </trkpt>
      <trkpt lat="44.15054" lon="4.09831">
        <ele>188.56</ele>
        <time>2011-10-15T14:36:47Z</time>
      </trkpt>
      <trkpt lat="44.15053" lon="4.09829">
        <ele>188.56</ele>
        <time>2011-10-15T14:36:48Z</time>
      </trkpt>
      <trkpt lat="44.15051" lon="4.09827">
        <ele>188.56</ele>
        <time>2011-10-15T14:36:49Z</time>
      </trkpt>
      <trkpt lat="44.15049" lon="4.09826">
        <ele>188.56</ele>
        <time>2011-10-15T14:36:50Z</time>
      </trkpt>
      <trkpt lat="44.15047" lon="4.09825">
        <ele>188.56</ele>
        <time>2011-10-15T14:36:51Z</time>
      </trkpt>
      <trkpt lat="44.15033" lon="4.09816">
        <ele>186.63</ele>
        <time>2011-10-15T14:36:55Z</time>
      </trkpt>
      <trkpt lat="44.15011" lon="4.09801">
        <ele>185.67</ele>
        <time>2011-10-15T14:37:00Z</time>
      </trkpt>
      <trkpt lat="44.15008" lon="4.098">
        <ele>185.19</ele>
        <time>2011-10-15T14:37:01Z</time>
      </trkpt>
      <trkpt lat="44.15004" lon="4.098">
        <ele>185.19</ele>
        <time>2011-10-15T14:37:02Z</time>
      </trkpt>
      <trkpt lat="44.15001" lon="4.09802">
        <ele>184.23</ele>
        <time>2011-10-15T14:37:03Z</time>
      </trkpt>
      <trkpt lat="44.14997" lon="4.09805">
        <ele>184.23</ele>
        <time>2011-10-15T14:37:04Z</time>
      </trkpt>
      <trkpt lat="44.14993" lon="4.09809">
        <ele>183.27</ele>
        <time>2011-10-15T14:37:05Z</time>
      </trkpt>
      <trkpt lat="44.14989" lon="4.09814">
        <ele>183.27</ele>
        <time>2011-10-15T14:37:06Z</time>
      </trkpt>
      <trkpt lat="44.14986" lon="4.09821">
        <ele>183.27</ele>
        <time>2011-10-15T14:37:07Z</time>
      </trkpt>
      <trkpt lat="44.14973" lon="4.09843">
        <ele>180.87</ele>
        <time>2011-10-15T14:37:10Z</time>
      </trkpt>
      <trkpt lat="44.14968" lon="4.0985">
        <ele>180.38</ele>
        <time>2011-10-15T14:37:11Z</time>
      </trkpt>
      <trkpt lat="44.14962" lon="4.09857">
        <ele>179.9</ele>
        <time>2011-10-15T14:37:12Z</time>
      </trkpt>
      <trkpt lat="44.14936" lon="4.09888">
        <ele>177.02</ele>
        <time>2011-10-15T14:37:16Z</time>
      </trkpt>
      <trkpt lat="44.14922" lon="4.09905">
        <ele>174.14</ele>
        <time>2011-10-15T14:37:18Z</time>
      </trkpt>
      <trkpt lat="44.14917" lon="4.09914">
        <ele>174.14</ele>
        <time>2011-10-15T14:37:19Z</time>
      </trkpt>
      <trkpt lat="44.14915" lon="4.09923">
        <ele>173.66</ele>
        <time>2011-10-15T14:37:20Z</time>
      </trkpt>
      <trkpt lat="44.14914" lon="4.09933">
        <ele>172.69</ele>
        <time>2011-10-15T14:37:21Z</time>
      </trkpt>
      <trkpt lat="44.14917" lon="4.09942">
        <ele>172.69</ele>
        <time>2011-10-15T14:37:22Z</time>
      </trkpt>
      <trkpt lat="44.1492" lon="4.09951">
        <ele>172.69</ele>
        <time>2011-10-15T14:37:23Z</time>
      </trkpt>
      <trkpt lat="44.14924" lon="4.09958">
        <ele>172.69</ele>
        <time>2011-10-15T14:37:24Z</time>
      </trkpt>
      <trkpt lat="44.14928" lon="4.09965">
        <ele>172.21</ele>
        <time>2011-10-15T14:37:25Z</time>
      </trkpt>
      <trkpt lat="44.14932" lon="4.09972">
        <ele>171.73</ele>
        <time>2011-10-15T14:37:26Z</time>
      </trkpt>
      <trkpt lat="44.1494" lon="4.09987">
        <ele>171.25</ele>
        <time>2011-10-15T14:37:28Z</time>
      </trkpt>
      <trkpt lat="44.1494" lon="4.09995">
        <ele>171.25</ele>
        <time>2011-10-15T14:37:29Z</time>
      </trkpt>
      <trkpt lat="44.14937" lon="4.1">
        <ele>170.77</ele>
        <time>2011-10-15T14:37:30Z</time>
      </trkpt>
      <trkpt lat="44.14933" lon="4.10002">
        <ele>171.25</ele>
        <time>2011-10-15T14:37:31Z</time>
      </trkpt>
      <trkpt lat="44.14929" lon="4.1">
        <ele>170.77</ele>
        <time>2011-10-15T14:37:32Z</time>
      </trkpt>
      <trkpt lat="44.14925" lon="4.09995">
        <ele>171.25</ele>
        <time>2011-10-15T14:37:33Z</time>
      </trkpt>
      <trkpt lat="44.14922" lon="4.0999">
        <ele>171.25</ele>
        <time>2011-10-15T14:37:34Z</time>
      </trkpt>
      <trkpt lat="44.14916" lon="4.09978">
        <ele>170.77</ele>
        <time>2011-10-15T14:37:36Z</time>
      </trkpt>
      <trkpt lat="44.14896" lon="4.09939">
        <ele>169.33</ele>
        <time>2011-10-15T14:37:42Z</time>
      </trkpt>
      <trkpt lat="44.14895" lon="4.09931">
        <ele>169.33</ele>
        <time>2011-10-15T14:37:43Z</time>
      </trkpt>
      <trkpt lat="44.14894" lon="4.09924">
        <ele>169.33</ele>
        <time>2011-10-15T14:37:44Z</time>
      </trkpt>
      <trkpt lat="44.14895" lon="4.09916">
        <ele>168.85</ele>
        <time>2011-10-15T14:37:45Z</time>
      </trkpt>
      <trkpt lat="44.14896" lon="4.09909">
        <ele>168.37</ele>
        <time>2011-10-15T14:37:46Z</time>
      </trkpt>
      <trkpt lat="44.14898" lon="4.09901">
        <ele>169.33</ele>
        <time>2011-10-15T14:37:47Z</time>
      </trkpt>
      <trkpt lat="44.14901" lon="4.09895">
        <ele>169.33</ele>
        <time>2011-10-15T14:37:48Z</time>
      </trkpt>
      <trkpt lat="44.14906" lon="4.0989">
        <ele>168.85</ele>
        <time>2011-10-15T14:37:49Z</time>
      </trkpt>
      <trkpt lat="44.14929" lon="4.09869">
        <ele>170.77</ele>
        <time>2011-10-15T14:37:54Z</time>
      </trkpt>
      <trkpt lat="44.1496" lon="4.09827">
        <ele>173.66</ele>
        <time>2011-10-15T14:38:05Z</time>
      </trkpt>
      <trkpt lat="44.14962" lon="4.09823">
        <ele>174.14</ele>
        <time>2011-10-15T14:38:06Z</time>
      </trkpt>
      <trkpt lat="44.14985" lon="4.09773">
        <ele>177.02</ele>
        <time>2011-10-15T14:38:18Z</time>
      </trkpt>
      <trkpt lat="44.15" lon="4.09717">
        <ele>179.9</ele>
        <time>2011-10-15T14:38:31Z</time>
      </trkpt>
      <trkpt lat="44.15012" lon="4.09672">
        <ele>182.79</ele>
        <time>2011-10-15T14:38:41Z</time>
      </trkpt>
      <trkpt lat="44.15028" lon="4.09611">
        <ele>186.15</ele>
        <time>2011-10-15T14:38:54Z</time>
      </trkpt>
      <trkpt lat="44.15046" lon="4.09557">
        <ele>189.04</ele>
        <time>2011-10-15T14:39:07Z</time>
      </trkpt>
      <trkpt lat="44.15072" lon="4.09511">
        <ele>192.4</ele>
        <time>2011-10-15T14:39:21Z</time>
      </trkpt>
      <trkpt lat="44.15107" lon="4.09482">
        <ele>194.32</ele>
        <time>2011-10-15T14:39:34Z</time>
      </trkpt>
      <trkpt lat="44.15143" lon="4.09467">
        <ele>196.73</ele>
        <time>2011-10-15T14:39:46Z</time>
      </trkpt>
      <trkpt lat="44.15198" lon="4.09471">
        <ele>198.65</ele>
        <time>2011-10-15T14:40:03Z</time>
      </trkpt>
      <trkpt lat="44.15261" lon="4.09489">
        <ele>198.65</ele>
        <time>2011-10-15T14:40:20Z</time>
      </trkpt>
      <trkpt lat="44.15342" lon="4.09479">
        <ele>197.69</ele>
        <time>2011-10-15T14:40:36Z</time>
      </trkpt>
      <trkpt lat="44.15399" lon="4.09441">
        <ele>196.25</ele>
        <time>2011-10-15T14:40:45Z</time>
      </trkpt>
      <trkpt lat="44.15417" lon="4.09427">
        <ele>194.32</ele>
        <time>2011-10-15T14:40:48Z</time>
      </trkpt>
      <trkpt lat="44.15452" lon="4.09405">
        <ele>188.56</ele>
        <time>2011-10-15T14:40:54Z</time>
      </trkpt>
      <trkpt lat="44.15459" lon="4.09402">
        <ele>193.84</ele>
        <time>2011-10-15T14:40:55Z</time>
      </trkpt>
      <trkpt lat="44.15486" lon="4.09394">
        <ele>190.96</ele>
        <time>2011-10-15T14:40:59Z</time>
      </trkpt>
      <trkpt lat="44.15494" lon="4.09393">
        <ele>190.48</ele>
        <time>2011-10-15T14:41:00Z</time>
      </trkpt>
      <trkpt lat="44.15511" lon="4.09393">
        <ele>189.52</ele>
        <time>2011-10-15T14:41:02Z</time>
      </trkpt>
      <trkpt lat="44.15548" lon="4.09397">
        <ele>187.11</ele>
        <time>2011-10-15T14:41:06Z</time>
      </trkpt>
      <trkpt lat="44.156" lon="4.09407">
        <ele>183.27</ele>
        <time>2011-10-15T14:41:11Z</time>
      </trkpt>
      <trkpt lat="44.15622" lon="4.09411">
        <ele>187.11</ele>
        <time>2011-10-15T14:41:13Z</time>
      </trkpt>
      <trkpt lat="44.15633" lon="4.09411">
        <ele>181.35</ele>
        <time>2011-10-15T14:41:14Z</time>
      </trkpt>
      <trkpt lat="44.15645" lon="4.0941">
        <ele>181.35</ele>
        <time>2011-10-15T14:41:15Z</time>
      </trkpt>
      <trkpt lat="44.15656" lon="4.09408">
        <ele>179.9</ele>
        <time>2011-10-15T14:41:16Z</time>
      </trkpt>
      <trkpt lat="44.15667" lon="4.09405">
        <ele>178.94</ele>
        <time>2011-10-15T14:41:17Z</time>
      </trkpt>
      <trkpt lat="44.15678" lon="4.094">
        <ele>178.94</ele>
        <time>2011-10-15T14:41:18Z</time>
      </trkpt>
      <trkpt lat="44.15689" lon="4.09394">
        <ele>177.98</ele>
        <time>2011-10-15T14:41:19Z</time>
      </trkpt>
      <trkpt lat="44.15699" lon="4.09386">
        <ele>177.5</ele>
        <time>2011-10-15T14:41:20Z</time>
      </trkpt>
      <trkpt lat="44.15709" lon="4.09377">
        <ele>176.54</ele>
        <time>2011-10-15T14:41:21Z</time>
      </trkpt>
      <trkpt lat="44.15718" lon="4.09367">
        <ele>176.06</ele>
        <time>2011-10-15T14:41:22Z</time>
      </trkpt>
      <trkpt lat="44.15727" lon="4.09355">
        <ele>175.1</ele>
        <time>2011-10-15T14:41:23Z</time>
      </trkpt>
      <trkpt lat="44.15734" lon="4.09343">
        <ele>174.62</ele>
        <time>2011-10-15T14:41:24Z</time>
      </trkpt>
      <trkpt lat="44.15741" lon="4.0933">
        <ele>173.66</ele>
        <time>2011-10-15T14:41:25Z</time>
      </trkpt>
      <trkpt lat="44.15747" lon="4.09317">
        <ele>173.66</ele>
        <time>2011-10-15T14:41:26Z</time>
      </trkpt>
      <trkpt lat="44.15753" lon="4.09302">
        <ele>172.21</ele>
        <time>2011-10-15T14:41:27Z</time>
      </trkpt>
      <trkpt lat="44.15757" lon="4.09288">
        <ele>171.73</ele>
        <time>2011-10-15T14:41:28Z</time>
      </trkpt>
      <trkpt lat="44.15773" lon="4.09216">
        <ele>167.89</ele>
        <time>2011-10-15T14:41:33Z</time>
      </trkpt>
      <trkpt lat="44.15775" lon="4.09202">
        <ele>167.89</ele>
        <time>2011-10-15T14:41:34Z</time>
      </trkpt>
      <trkpt lat="44.15791" lon="4.09104">
        <ele>164.04</ele>
        <time>2011-10-15T14:41:41Z</time>
      </trkpt>
      <trkpt lat="44.15793" lon="4.09091">
        <ele>164.04</ele>
        <time>2011-10-15T14:41:42Z</time>
      </trkpt>
      <trkpt lat="44.15811" lon="4.08985">
        <ele>161.16</ele>
        <time>2011-10-15T14:41:50Z</time>
      </trkpt>
      <trkpt lat="44.15832" lon="4.08836">
        <ele>160.2</ele>
        <time>2011-10-15T14:42:03Z</time>
      </trkpt>
      <trkpt lat="44.15832" lon="4.08826">
        <ele>160.2</ele>
        <time>2011-10-15T14:42:04Z</time>
      </trkpt>
      <trkpt lat="44.1583" lon="4.08789">
        <ele>160.2</ele>
        <time>2011-10-15T14:42:08Z</time>
      </trkpt>
      <trkpt lat="44.15824" lon="4.08739">
        <ele>160.68</ele>
        <time>2011-10-15T14:42:14Z</time>
      </trkpt>
      <trkpt lat="44.15787" lon="4.08634">
        <ele>161.16</ele>
        <time>2011-10-15T14:42:29Z</time>
      </trkpt>
      <trkpt lat="44.15726" lon="4.0853">
        <ele>161.16</ele>
        <time>2011-10-15T14:42:47Z</time>
      </trkpt>
      <trkpt lat="44.15723" lon="4.08525">
        <ele>161.16</ele>
        <time>2011-10-15T14:42:48Z</time>
      </trkpt>
      <trkpt lat="44.15712" lon="4.08502">
        <ele>162.12</ele>
        <time>2011-10-15T14:42:52Z</time>
      </trkpt>
      <trkpt lat="44.15709" lon="4.08495">
        <ele>162.12</ele>
        <time>2011-10-15T14:42:53Z</time>
      </trkpt>
      <trkpt lat="44.15705" lon="4.08476">
        <ele>162.6</ele>
        <time>2011-10-15T14:42:56Z</time>
      </trkpt>
      <trkpt lat="44.15704" lon="4.08469">
        <ele>162.6</ele>
        <time>2011-10-15T14:42:57Z</time>
      </trkpt>
      <trkpt lat="44.15704" lon="4.08462">
        <ele>162.12</ele>
        <time>2011-10-15T14:42:58Z</time>
      </trkpt>
      <trkpt lat="44.15705" lon="4.08456">
        <ele>162.12</ele>
        <time>2011-10-15T14:42:59Z</time>
      </trkpt>
      <trkpt lat="44.15707" lon="4.08449">
        <ele>163.08</ele>
        <time>2011-10-15T14:43:00Z</time>
      </trkpt>
      <trkpt lat="44.1571" lon="4.08444">
        <ele>162.6</ele>
        <time>2011-10-15T14:43:01Z</time>
      </trkpt>
      <trkpt lat="44.15714" lon="4.08439">
        <ele>162.12</ele>
        <time>2011-10-15T14:43:02Z</time>
      </trkpt>
      <trkpt lat="44.15718" lon="4.08435">
        <ele>162.12</ele>
        <time>2011-10-15T14:43:03Z</time>
      </trkpt>
      <trkpt lat="44.15722" lon="4.08432">
        <ele>162.12</ele>
        <time>2011-10-15T14:43:04Z</time>
      </trkpt>
      <trkpt lat="44.15727" lon="4.08428">
        <ele>162.6</ele>
        <time>2011-10-15T14:43:05Z</time>
      </trkpt>
      <trkpt lat="44.15731" lon="4.08423">
        <ele>162.6</ele>
        <time>2011-10-15T14:43:06Z</time>
      </trkpt>
      <trkpt lat="44.15734" lon="4.08416">
        <ele>163.08</ele>
        <time>2011-10-15T14:43:07Z</time>
      </trkpt>
      <trkpt lat="44.15736" lon="4.08409">
        <ele>162.6</ele>
        <time>2011-10-15T14:43:08Z</time>
      </trkpt>
      <trkpt lat="44.15737" lon="4.08403">
        <ele>163.08</ele>
        <time>2011-10-15T14:43:09Z</time>
      </trkpt>
      <trkpt lat="44.15738" lon="4.08396">
        <ele>163.08</ele>
        <time>2011-10-15T14:43:10Z</time>
      </trkpt>
      <trkpt lat="44.15739" lon="4.0839">
        <ele>163.56</ele>
        <time>2011-10-15T14:43:11Z</time>
      </trkpt>
      <trkpt lat="44.15742" lon="4.08384">
        <ele>163.56</ele>
        <time>2011-10-15T14:43:12Z</time>
      </trkpt>
      <trkpt lat="44.15747" lon="4.0838">
        <ele>163.56</ele>
        <time>2011-10-15T14:43:13Z</time>
      </trkpt>
      <trkpt lat="44.15752" lon="4.08378">
        <ele>163.56</ele>
        <time>2011-10-15T14:43:14Z</time>
      </trkpt>
      <trkpt lat="44.15757" lon="4.08375">
        <ele>163.56</ele>
        <time>2011-10-15T14:43:15Z</time>
      </trkpt>
      <trkpt lat="44.15762" lon="4.08373">
        <ele>164.04</ele>
        <time>2011-10-15T14:43:16Z</time>
      </trkpt>
      <trkpt lat="44.15828" lon="4.0834">
        <ele>165.96</ele>
        <time>2011-10-15T14:43:30Z</time>
      </trkpt>
      <trkpt lat="44.1588" lon="4.08313">
        <ele>166.45</ele>
        <time>2011-10-15T14:43:42Z</time>
      </trkpt>
      <trkpt lat="44.15904" lon="4.08302">
        <ele>167.41</ele>
        <time>2011-10-15T14:43:47Z</time>
      </trkpt>
      <trkpt lat="44.15953" lon="4.08281">
        <ele>168.37</ele>
        <time>2011-10-15T14:43:57Z</time>
      </trkpt>
      <trkpt lat="44.15958" lon="4.08278">
        <ele>168.85</ele>
        <time>2011-10-15T14:43:58Z</time>
      </trkpt>
      <trkpt lat="44.15962" lon="4.08274">
        <ele>168.85</ele>
        <time>2011-10-15T14:43:59Z</time>
      </trkpt>
      <trkpt lat="44.15966" lon="4.08269">
        <ele>169.33</ele>
        <time>2011-10-15T14:44:00Z</time>
      </trkpt>
      <trkpt lat="44.1597" lon="4.08264">
        <ele>169.81</ele>
        <time>2011-10-15T14:44:01Z</time>
      </trkpt>
      <trkpt lat="44.15974" lon="4.0826">
        <ele>169.81</ele>
        <time>2011-10-15T14:44:02Z</time>
      </trkpt>
      <trkpt lat="44.15978" lon="4.08258">
        <ele>170.77</ele>
        <time>2011-10-15T14:44:03Z</time>
      </trkpt>
      <trkpt lat="44.15983" lon="4.08255">
        <ele>171.25</ele>
        <time>2011-10-15T14:44:04Z</time>
      </trkpt>
      <trkpt lat="44.15986" lon="4.08253">
        <ele>171.25</ele>
        <time>2011-10-15T14:44:05Z</time>
      </trkpt>
      <trkpt lat="44.16019" lon="4.08235">
        <ele>174.62</ele>
        <time>2011-10-15T14:44:15Z</time>
      </trkpt>
      <trkpt lat="44.16057" lon="4.08207">
        <ele>175.58</ele>
        <time>2011-10-15T14:44:27Z</time>
      </trkpt>
      <trkpt lat="44.16097" lon="4.08176">
        <ele>177.5</ele>
        <time>2011-10-15T14:44:40Z</time>
      </trkpt>
      <trkpt lat="44.16144" lon="4.0814">
        <ele>179.42</ele>
        <time>2011-10-15T14:44:55Z</time>
      </trkpt>
      <trkpt lat="44.16181" lon="4.08099">
        <ele>181.35</ele>
        <time>2011-10-15T14:45:09Z</time>
      </trkpt>
      <trkpt lat="44.16215" lon="4.08039">
        <ele>183.75</ele>
        <time>2011-10-15T14:45:26Z</time>
      </trkpt>
      <trkpt lat="44.16226" lon="4.08002">
        <ele>184.71</ele>
        <time>2011-10-15T14:45:36Z</time>
      </trkpt>
      <trkpt lat="44.16225" lon="4.07999">
        <ele>185.19</ele>
        <time>2011-10-15T14:45:37Z</time>
      </trkpt>
      <trkpt lat="44.16222" lon="4.07998">
        <ele>184.71</ele>
        <time>2011-10-15T14:45:38Z</time>
      </trkpt>
      <trkpt lat="44.16219" lon="4.07999">
        <ele>185.19</ele>
        <time>2011-10-15T14:45:39Z</time>
      </trkpt>
      <trkpt lat="44.16216" lon="4.07999">
        <ele>185.19</ele>
        <time>2011-10-15T14:45:40Z</time>
      </trkpt>
      <trkpt lat="44.16214" lon="4.07998">
        <ele>185.67</ele>
        <time>2011-10-15T14:45:41Z</time>
      </trkpt>
      <trkpt lat="44.16212" lon="4.07996">
        <ele>185.67</ele>
        <time>2011-10-15T14:45:42Z</time>
      </trkpt>
      <trkpt lat="44.16207" lon="4.07993">
        <ele>185.67</ele>
        <time>2011-10-15T14:45:49Z</time>
      </trkpt>
      <trkpt lat="44.16208" lon="4.07995">
        <ele>186.15</ele>
        <time>2011-10-15T14:45:50Z</time>
      </trkpt>
      <trkpt lat="44.16209" lon="4.07996">
        <ele>185.67</ele>
        <time>2011-10-15T14:45:51Z</time>
      </trkpt>
      <trkpt lat="44.16209" lon="4.07996">
        <ele>185.67</ele>
        <time>2011-10-15T14:46:02Z</time>
      </trkpt>
      <trkpt lat="44.16208" lon="4.07995">
        <ele>186.15</ele>
        <time>2011-10-15T14:46:03Z</time>
      </trkpt>
      <trkpt lat="44.16203" lon="4.07989">
        <ele>187.11</ele>
        <time>2011-10-15T14:46:16Z</time>
      </trkpt>
      <trkpt lat="44.16203" lon="4.07989">
        <ele>186.63</ele>
        <time>2011-10-15T14:46:41Z</time>
      </trkpt>
      <trkpt lat="44.16203" lon="4.07989">
        <ele>186.63</ele>
        <time>2011-10-15T14:47:04Z</time>
      </trkpt>
      <trkpt lat="44.16203" lon="4.07989">
        <ele>186.15</ele>
        <time>2011-10-15T14:47:31Z</time>
      </trkpt>
      <trkpt lat="44.16203" lon="4.07988">
        <ele>186.15</ele>
        <time>2011-10-15T14:47:57Z</time>
      </trkpt>
      <trkpt lat="44.16203" lon="4.07988">
        <ele>186.15</ele>
        <time>2011-10-15T14:48:23Z</time>
      </trkpt>
      <trkpt lat="44.16203" lon="4.07988">
        <ele>186.63</ele>
        <time>2011-10-15T14:48:53Z</time>
      </trkpt>
      <trkpt lat="44.16202" lon="4.07988">
        <ele>186.63</ele>
        <time>2011-10-15T14:49:10Z</time>
      </trkpt>
    </trkseg>
  </trk>
</gpx>